<?xml version="1.0" encoding="UTF-8" standalone="no" ?>
<gpx xmlns="http://www.topografix.com/GPX/1/1" xmlns:xsi="http://www.w3.org/2001/XMLSchema-instance" xsi:schemaLocation="http://www.topografix.com/GPX/1/1 http://www.topografix.com/GPX/1/1/gpx.xsd" version="1.1" creator="VisuGPX - https://www.visugpx.com">
  <metadata>
    <name>Liaison SP3 - 420m D+</name>
    <desc><![CDATA[

]]></desc>
  </metadata>
  <trk>
    <name><![CDATA[Liaison SP3 - 420m D+]]></name>
    <trkseg>
      <trkpt lat="43.55202" lon="2.96879">
        <ele>295</ele>
        <time>2019-03-03T12:49:31Z</time>
      </trkpt>
      <trkpt lat="43.55202" lon="2.96879">
        <ele>295</ele>
        <time>2019-03-03T12:49:31Z</time>
      </trkpt>
      <trkpt lat="43.55202" lon="2.96879">
        <ele>295</ele>
        <time>2019-03-03T12:49:31Z</time>
      </trkpt>
      <trkpt lat="43.55203" lon="2.96876">
        <ele>295</ele>
        <time>2019-03-03T12:49:32Z</time>
      </trkpt>
      <trkpt lat="43.55203" lon="2.96873">
        <ele>295</ele>
        <time>2019-03-03T12:49:33Z</time>
      </trkpt>
      <trkpt lat="43.55203" lon="2.9687">
        <ele>295</ele>
        <time>2019-03-03T12:49:34Z</time>
      </trkpt>
      <trkpt lat="43.55203" lon="2.96867">
        <ele>295</ele>
        <time>2019-03-03T12:49:35Z</time>
      </trkpt>
      <trkpt lat="43.55203" lon="2.96863">
        <ele>295</ele>
        <time>2019-03-03T12:49:36Z</time>
      </trkpt>
      <trkpt lat="43.55203" lon="2.9686">
        <ele>295</ele>
        <time>2019-03-03T12:49:37Z</time>
      </trkpt>
      <trkpt lat="43.55203" lon="2.96858">
        <ele>296</ele>
        <time>2019-03-03T12:49:38Z</time>
      </trkpt>
      <trkpt lat="43.55203" lon="2.96855">
        <ele>296</ele>
        <time>2019-03-03T12:49:39Z</time>
      </trkpt>
      <trkpt lat="43.55203" lon="2.96852">
        <ele>296</ele>
        <time>2019-03-03T12:49:40Z</time>
      </trkpt>
      <trkpt lat="43.55202" lon="2.9685">
        <ele>296</ele>
        <time>2019-03-03T12:49:41Z</time>
      </trkpt>
      <trkpt lat="43.55202" lon="2.96847">
        <ele>296</ele>
        <time>2019-03-03T12:49:42Z</time>
      </trkpt>
      <trkpt lat="43.55202" lon="2.96845">
        <ele>296</ele>
        <time>2019-03-03T12:49:43Z</time>
      </trkpt>
      <trkpt lat="43.55201" lon="2.96842">
        <ele>296</ele>
        <time>2019-03-03T12:49:44Z</time>
      </trkpt>
      <trkpt lat="43.55201" lon="2.9684">
        <ele>296</ele>
        <time>2019-03-03T12:49:45Z</time>
      </trkpt>
      <trkpt lat="43.552" lon="2.96837">
        <ele>297</ele>
        <time>2019-03-03T12:49:46Z</time>
      </trkpt>
      <trkpt lat="43.55199" lon="2.96834">
        <ele>297</ele>
        <time>2019-03-03T12:49:47Z</time>
      </trkpt>
      <trkpt lat="43.55199" lon="2.96832">
        <ele>297</ele>
        <time>2019-03-03T12:49:48Z</time>
      </trkpt>
      <trkpt lat="43.55198" lon="2.96829">
        <ele>297</ele>
        <time>2019-03-03T12:49:49Z</time>
      </trkpt>
      <trkpt lat="43.55197" lon="2.96826">
        <ele>298</ele>
        <time>2019-03-03T12:49:50Z</time>
      </trkpt>
      <trkpt lat="43.55197" lon="2.96823">
        <ele>298</ele>
        <time>2019-03-03T12:49:51Z</time>
      </trkpt>
      <trkpt lat="43.55196" lon="2.9682">
        <ele>298</ele>
        <time>2019-03-03T12:49:52Z</time>
      </trkpt>
      <trkpt lat="43.55195" lon="2.96817">
        <ele>298</ele>
        <time>2019-03-03T12:49:53Z</time>
      </trkpt>
      <trkpt lat="43.55195" lon="2.96814">
        <ele>298</ele>
        <time>2019-03-03T12:49:54Z</time>
      </trkpt>
      <trkpt lat="43.55194" lon="2.96811">
        <ele>298</ele>
        <time>2019-03-03T12:49:55Z</time>
      </trkpt>
      <trkpt lat="43.55194" lon="2.96808">
        <ele>299</ele>
        <time>2019-03-03T12:49:56Z</time>
      </trkpt>
      <trkpt lat="43.55194" lon="2.96805">
        <ele>299</ele>
        <time>2019-03-03T12:49:57Z</time>
      </trkpt>
      <trkpt lat="43.55193" lon="2.96802">
        <ele>299</ele>
        <time>2019-03-03T12:49:58Z</time>
      </trkpt>
      <trkpt lat="43.55193" lon="2.96799">
        <ele>299</ele>
        <time>2019-03-03T12:49:59Z</time>
      </trkpt>
      <trkpt lat="43.55192" lon="2.96797">
        <ele>299</ele>
        <time>2019-03-03T12:50:00Z</time>
      </trkpt>
      <trkpt lat="43.55192" lon="2.96794">
        <ele>299</ele>
        <time>2019-03-03T12:50:01Z</time>
      </trkpt>
      <trkpt lat="43.55192" lon="2.96791">
        <ele>300</ele>
        <time>2019-03-03T12:50:02Z</time>
      </trkpt>
      <trkpt lat="43.55192" lon="2.96788">
        <ele>300</ele>
        <time>2019-03-03T12:50:03Z</time>
      </trkpt>
      <trkpt lat="43.55192" lon="2.96786">
        <ele>300</ele>
        <time>2019-03-03T12:50:04Z</time>
      </trkpt>
      <trkpt lat="43.55192" lon="2.96783">
        <ele>300</ele>
        <time>2019-03-03T12:50:05Z</time>
      </trkpt>
      <trkpt lat="43.55192" lon="2.9678">
        <ele>301</ele>
        <time>2019-03-03T12:50:06Z</time>
      </trkpt>
      <trkpt lat="43.55192" lon="2.96777">
        <ele>301</ele>
        <time>2019-03-03T12:50:07Z</time>
      </trkpt>
      <trkpt lat="43.55192" lon="2.96774">
        <ele>301</ele>
        <time>2019-03-03T12:50:08Z</time>
      </trkpt>
      <trkpt lat="43.55192" lon="2.96771">
        <ele>301</ele>
        <time>2019-03-03T12:50:09Z</time>
      </trkpt>
      <trkpt lat="43.55192" lon="2.96768">
        <ele>302</ele>
        <time>2019-03-03T12:50:10Z</time>
      </trkpt>
      <trkpt lat="43.55192" lon="2.96765">
        <ele>302</ele>
        <time>2019-03-03T12:50:11Z</time>
      </trkpt>
      <trkpt lat="43.55192" lon="2.96762">
        <ele>302</ele>
        <time>2019-03-03T12:50:12Z</time>
      </trkpt>
      <trkpt lat="43.55193" lon="2.96759">
        <ele>302</ele>
        <time>2019-03-03T12:50:13Z</time>
      </trkpt>
      <trkpt lat="43.55193" lon="2.96756">
        <ele>303</ele>
        <time>2019-03-03T12:50:14Z</time>
      </trkpt>
      <trkpt lat="43.55193" lon="2.96753">
        <ele>303</ele>
        <time>2019-03-03T12:50:15Z</time>
      </trkpt>
      <trkpt lat="43.55193" lon="2.9675">
        <ele>303</ele>
        <time>2019-03-03T12:50:16Z</time>
      </trkpt>
      <trkpt lat="43.55194" lon="2.96747">
        <ele>303</ele>
        <time>2019-03-03T12:50:17Z</time>
      </trkpt>
      <trkpt lat="43.55194" lon="2.96744">
        <ele>303</ele>
        <time>2019-03-03T12:50:18Z</time>
      </trkpt>
      <trkpt lat="43.55194" lon="2.96741">
        <ele>304</ele>
        <time>2019-03-03T12:50:19Z</time>
      </trkpt>
      <trkpt lat="43.55194" lon="2.96738">
        <ele>304</ele>
        <time>2019-03-03T12:50:20Z</time>
      </trkpt>
      <trkpt lat="43.55194" lon="2.96735">
        <ele>304</ele>
        <time>2019-03-03T12:50:21Z</time>
      </trkpt>
      <trkpt lat="43.55194" lon="2.96732">
        <ele>304</ele>
        <time>2019-03-03T12:50:22Z</time>
      </trkpt>
      <trkpt lat="43.55195" lon="2.96729">
        <ele>304</ele>
        <time>2019-03-03T12:50:23Z</time>
      </trkpt>
      <trkpt lat="43.55195" lon="2.96725">
        <ele>305</ele>
        <time>2019-03-03T12:50:24Z</time>
      </trkpt>
      <trkpt lat="43.55195" lon="2.96722">
        <ele>305</ele>
        <time>2019-03-03T12:50:25Z</time>
      </trkpt>
      <trkpt lat="43.55196" lon="2.96718">
        <ele>305</ele>
        <time>2019-03-03T12:50:26Z</time>
      </trkpt>
      <trkpt lat="43.55196" lon="2.96715">
        <ele>305</ele>
        <time>2019-03-03T12:50:27Z</time>
      </trkpt>
      <trkpt lat="43.55196" lon="2.96712">
        <ele>305</ele>
        <time>2019-03-03T12:50:28Z</time>
      </trkpt>
      <trkpt lat="43.55196" lon="2.96709">
        <ele>305</ele>
        <time>2019-03-03T12:50:29Z</time>
      </trkpt>
      <trkpt lat="43.55196" lon="2.96706">
        <ele>305</ele>
        <time>2019-03-03T12:50:30Z</time>
      </trkpt>
      <trkpt lat="43.55197" lon="2.96703">
        <ele>306</ele>
        <time>2019-03-03T12:50:31Z</time>
      </trkpt>
      <trkpt lat="43.55197" lon="2.96699">
        <ele>306</ele>
        <time>2019-03-03T12:50:32Z</time>
      </trkpt>
      <trkpt lat="43.55197" lon="2.96696">
        <ele>306</ele>
        <time>2019-03-03T12:50:33Z</time>
      </trkpt>
      <trkpt lat="43.55197" lon="2.96693">
        <ele>306</ele>
        <time>2019-03-03T12:50:34Z</time>
      </trkpt>
      <trkpt lat="43.55197" lon="2.96689">
        <ele>306</ele>
        <time>2019-03-03T12:50:35Z</time>
      </trkpt>
      <trkpt lat="43.55197" lon="2.96686">
        <ele>307</ele>
        <time>2019-03-03T12:50:36Z</time>
      </trkpt>
      <trkpt lat="43.55197" lon="2.96683">
        <ele>307</ele>
        <time>2019-03-03T12:50:37Z</time>
      </trkpt>
      <trkpt lat="43.55196" lon="2.9668">
        <ele>307</ele>
        <time>2019-03-03T12:50:38Z</time>
      </trkpt>
      <trkpt lat="43.55196" lon="2.96677">
        <ele>307</ele>
        <time>2019-03-03T12:50:39Z</time>
      </trkpt>
      <trkpt lat="43.55196" lon="2.96674">
        <ele>307</ele>
        <time>2019-03-03T12:50:40Z</time>
      </trkpt>
      <trkpt lat="43.55195" lon="2.9667">
        <ele>307</ele>
        <time>2019-03-03T12:50:41Z</time>
      </trkpt>
      <trkpt lat="43.55195" lon="2.96667">
        <ele>307</ele>
        <time>2019-03-03T12:50:42Z</time>
      </trkpt>
      <trkpt lat="43.55195" lon="2.96664">
        <ele>307</ele>
        <time>2019-03-03T12:50:43Z</time>
      </trkpt>
      <trkpt lat="43.55194" lon="2.96661">
        <ele>307</ele>
        <time>2019-03-03T12:50:44Z</time>
      </trkpt>
      <trkpt lat="43.55194" lon="2.96658">
        <ele>308</ele>
        <time>2019-03-03T12:50:45Z</time>
      </trkpt>
      <trkpt lat="43.55193" lon="2.96655">
        <ele>308</ele>
        <time>2019-03-03T12:50:46Z</time>
      </trkpt>
      <trkpt lat="43.55193" lon="2.96652">
        <ele>308</ele>
        <time>2019-03-03T12:50:47Z</time>
      </trkpt>
      <trkpt lat="43.55192" lon="2.96648">
        <ele>308</ele>
        <time>2019-03-03T12:50:48Z</time>
      </trkpt>
      <trkpt lat="43.55192" lon="2.96645">
        <ele>308</ele>
        <time>2019-03-03T12:50:49Z</time>
      </trkpt>
      <trkpt lat="43.55191" lon="2.96642">
        <ele>308</ele>
        <time>2019-03-03T12:50:50Z</time>
      </trkpt>
      <trkpt lat="43.5519" lon="2.96639">
        <ele>308</ele>
        <time>2019-03-03T12:50:51Z</time>
      </trkpt>
      <trkpt lat="43.55189" lon="2.96636">
        <ele>309</ele>
        <time>2019-03-03T12:50:52Z</time>
      </trkpt>
      <trkpt lat="43.55188" lon="2.96633">
        <ele>309</ele>
        <time>2019-03-03T12:50:53Z</time>
      </trkpt>
      <trkpt lat="43.55187" lon="2.9663">
        <ele>309</ele>
        <time>2019-03-03T12:50:54Z</time>
      </trkpt>
      <trkpt lat="43.55186" lon="2.96627">
        <ele>309</ele>
        <time>2019-03-03T12:50:55Z</time>
      </trkpt>
      <trkpt lat="43.55184" lon="2.96624">
        <ele>309</ele>
        <time>2019-03-03T12:50:56Z</time>
      </trkpt>
      <trkpt lat="43.55182" lon="2.96622">
        <ele>309</ele>
        <time>2019-03-03T12:50:57Z</time>
      </trkpt>
      <trkpt lat="43.55181" lon="2.96619">
        <ele>309</ele>
        <time>2019-03-03T12:50:58Z</time>
      </trkpt>
      <trkpt lat="43.55179" lon="2.96617">
        <ele>309</ele>
        <time>2019-03-03T12:50:59Z</time>
      </trkpt>
      <trkpt lat="43.55177" lon="2.96614">
        <ele>309</ele>
        <time>2019-03-03T12:51:00Z</time>
      </trkpt>
      <trkpt lat="43.55175" lon="2.96612">
        <ele>309</ele>
        <time>2019-03-03T12:51:01Z</time>
      </trkpt>
      <trkpt lat="43.55173" lon="2.96611">
        <ele>309</ele>
        <time>2019-03-03T12:51:02Z</time>
      </trkpt>
      <trkpt lat="43.55171" lon="2.9661">
        <ele>309</ele>
        <time>2019-03-03T12:51:03Z</time>
      </trkpt>
      <trkpt lat="43.55168" lon="2.96608">
        <ele>309</ele>
        <time>2019-03-03T12:51:04Z</time>
      </trkpt>
      <trkpt lat="43.55166" lon="2.96608">
        <ele>309</ele>
        <time>2019-03-03T12:51:05Z</time>
      </trkpt>
      <trkpt lat="43.55163" lon="2.96607">
        <ele>309</ele>
        <time>2019-03-03T12:51:06Z</time>
      </trkpt>
      <trkpt lat="43.5516" lon="2.96607">
        <ele>309</ele>
        <time>2019-03-03T12:51:07Z</time>
      </trkpt>
      <trkpt lat="43.55157" lon="2.96607">
        <ele>309</ele>
        <time>2019-03-03T12:51:08Z</time>
      </trkpt>
      <trkpt lat="43.55155" lon="2.96607">
        <ele>309</ele>
        <time>2019-03-03T12:51:09Z</time>
      </trkpt>
      <trkpt lat="43.55152" lon="2.96607">
        <ele>309</ele>
        <time>2019-03-03T12:51:10Z</time>
      </trkpt>
      <trkpt lat="43.55149" lon="2.96607">
        <ele>309</ele>
        <time>2019-03-03T12:51:11Z</time>
      </trkpt>
      <trkpt lat="43.55146" lon="2.96608">
        <ele>309</ele>
        <time>2019-03-03T12:51:12Z</time>
      </trkpt>
      <trkpt lat="43.55144" lon="2.96608">
        <ele>309</ele>
        <time>2019-03-03T12:51:13Z</time>
      </trkpt>
      <trkpt lat="43.55141" lon="2.96608">
        <ele>309</ele>
        <time>2019-03-03T12:51:14Z</time>
      </trkpt>
      <trkpt lat="43.55138" lon="2.96609">
        <ele>309</ele>
        <time>2019-03-03T12:51:15Z</time>
      </trkpt>
      <trkpt lat="43.55136" lon="2.9661">
        <ele>309</ele>
        <time>2019-03-03T12:51:16Z</time>
      </trkpt>
      <trkpt lat="43.55133" lon="2.96611">
        <ele>309</ele>
        <time>2019-03-03T12:51:17Z</time>
      </trkpt>
      <trkpt lat="43.5513" lon="2.96612">
        <ele>309</ele>
        <time>2019-03-03T12:51:18Z</time>
      </trkpt>
      <trkpt lat="43.55128" lon="2.96613">
        <ele>309</ele>
        <time>2019-03-03T12:51:19Z</time>
      </trkpt>
      <trkpt lat="43.55125" lon="2.96615">
        <ele>309</ele>
        <time>2019-03-03T12:51:20Z</time>
      </trkpt>
      <trkpt lat="43.55122" lon="2.96617">
        <ele>309</ele>
        <time>2019-03-03T12:51:21Z</time>
      </trkpt>
      <trkpt lat="43.5512" lon="2.96618">
        <ele>310</ele>
        <time>2019-03-03T12:51:22Z</time>
      </trkpt>
      <trkpt lat="43.55117" lon="2.9662">
        <ele>310</ele>
        <time>2019-03-03T12:51:23Z</time>
      </trkpt>
      <trkpt lat="43.55114" lon="2.96622">
        <ele>310</ele>
        <time>2019-03-03T12:51:24Z</time>
      </trkpt>
      <trkpt lat="43.55112" lon="2.96624">
        <ele>310</ele>
        <time>2019-03-03T12:51:25Z</time>
      </trkpt>
      <trkpt lat="43.55109" lon="2.96625">
        <ele>310</ele>
        <time>2019-03-03T12:51:26Z</time>
      </trkpt>
      <trkpt lat="43.55106" lon="2.96627">
        <ele>310</ele>
        <time>2019-03-03T12:51:27Z</time>
      </trkpt>
      <trkpt lat="43.55103" lon="2.96628">
        <ele>310</ele>
        <time>2019-03-03T12:51:28Z</time>
      </trkpt>
      <trkpt lat="43.551" lon="2.96629">
        <ele>310</ele>
        <time>2019-03-03T12:51:29Z</time>
      </trkpt>
      <trkpt lat="43.55098" lon="2.9663">
        <ele>310</ele>
        <time>2019-03-03T12:51:30Z</time>
      </trkpt>
      <trkpt lat="43.55095" lon="2.96631">
        <ele>310</ele>
        <time>2019-03-03T12:51:31Z</time>
      </trkpt>
      <trkpt lat="43.55092" lon="2.96632">
        <ele>310</ele>
        <time>2019-03-03T12:51:32Z</time>
      </trkpt>
      <trkpt lat="43.55089" lon="2.96632">
        <ele>311</ele>
        <time>2019-03-03T12:51:33Z</time>
      </trkpt>
      <trkpt lat="43.55086" lon="2.96633">
        <ele>311</ele>
        <time>2019-03-03T12:51:34Z</time>
      </trkpt>
      <trkpt lat="43.55083" lon="2.96634">
        <ele>311</ele>
        <time>2019-03-03T12:51:35Z</time>
      </trkpt>
      <trkpt lat="43.5508" lon="2.96634">
        <ele>311</ele>
        <time>2019-03-03T12:51:36Z</time>
      </trkpt>
      <trkpt lat="43.55077" lon="2.96635">
        <ele>311</ele>
        <time>2019-03-03T12:51:37Z</time>
      </trkpt>
      <trkpt lat="43.55074" lon="2.96636">
        <ele>311</ele>
        <time>2019-03-03T12:51:38Z</time>
      </trkpt>
      <trkpt lat="43.55072" lon="2.96637">
        <ele>311</ele>
        <time>2019-03-03T12:51:39Z</time>
      </trkpt>
      <trkpt lat="43.55069" lon="2.96637">
        <ele>311</ele>
        <time>2019-03-03T12:51:40Z</time>
      </trkpt>
      <trkpt lat="43.55066" lon="2.96638">
        <ele>311</ele>
        <time>2019-03-03T12:51:41Z</time>
      </trkpt>
      <trkpt lat="43.55063" lon="2.96639">
        <ele>311</ele>
        <time>2019-03-03T12:51:42Z</time>
      </trkpt>
      <trkpt lat="43.5506" lon="2.96639">
        <ele>311</ele>
        <time>2019-03-03T12:51:43Z</time>
      </trkpt>
      <trkpt lat="43.55057" lon="2.9664">
        <ele>311</ele>
        <time>2019-03-03T12:51:44Z</time>
      </trkpt>
      <trkpt lat="43.55054" lon="2.96641">
        <ele>311</ele>
        <time>2019-03-03T12:51:45Z</time>
      </trkpt>
      <trkpt lat="43.55051" lon="2.96642">
        <ele>312</ele>
        <time>2019-03-03T12:51:46Z</time>
      </trkpt>
      <trkpt lat="43.55048" lon="2.96642">
        <ele>312</ele>
        <time>2019-03-03T12:51:47Z</time>
      </trkpt>
      <trkpt lat="43.55045" lon="2.96643">
        <ele>312</ele>
        <time>2019-03-03T12:51:48Z</time>
      </trkpt>
      <trkpt lat="43.55042" lon="2.96643">
        <ele>312</ele>
        <time>2019-03-03T12:51:49Z</time>
      </trkpt>
      <trkpt lat="43.55039" lon="2.96644">
        <ele>312</ele>
        <time>2019-03-03T12:51:50Z</time>
      </trkpt>
      <trkpt lat="43.55036" lon="2.96645">
        <ele>312</ele>
        <time>2019-03-03T12:51:51Z</time>
      </trkpt>
      <trkpt lat="43.55033" lon="2.96646">
        <ele>312</ele>
        <time>2019-03-03T12:51:52Z</time>
      </trkpt>
      <trkpt lat="43.5503" lon="2.96646">
        <ele>312</ele>
        <time>2019-03-03T12:51:53Z</time>
      </trkpt>
      <trkpt lat="43.55027" lon="2.96647">
        <ele>312</ele>
        <time>2019-03-03T12:51:54Z</time>
      </trkpt>
      <trkpt lat="43.55024" lon="2.96648">
        <ele>312</ele>
        <time>2019-03-03T12:51:55Z</time>
      </trkpt>
      <trkpt lat="43.55021" lon="2.96648">
        <ele>313</ele>
        <time>2019-03-03T12:51:56Z</time>
      </trkpt>
      <trkpt lat="43.55018" lon="2.96649">
        <ele>313</ele>
        <time>2019-03-03T12:51:57Z</time>
      </trkpt>
      <trkpt lat="43.55015" lon="2.96649">
        <ele>313</ele>
        <time>2019-03-03T12:51:58Z</time>
      </trkpt>
      <trkpt lat="43.55012" lon="2.96649">
        <ele>313</ele>
        <time>2019-03-03T12:51:59Z</time>
      </trkpt>
      <trkpt lat="43.55009" lon="2.96649">
        <ele>313</ele>
        <time>2019-03-03T12:52:00Z</time>
      </trkpt>
      <trkpt lat="43.55006" lon="2.96649">
        <ele>313</ele>
        <time>2019-03-03T12:52:01Z</time>
      </trkpt>
      <trkpt lat="43.55003" lon="2.96648">
        <ele>313</ele>
        <time>2019-03-03T12:52:02Z</time>
      </trkpt>
      <trkpt lat="43.55" lon="2.96648">
        <ele>313</ele>
        <time>2019-03-03T12:52:03Z</time>
      </trkpt>
      <trkpt lat="43.54997" lon="2.96647">
        <ele>313</ele>
        <time>2019-03-03T12:52:04Z</time>
      </trkpt>
      <trkpt lat="43.54994" lon="2.96646">
        <ele>313</ele>
        <time>2019-03-03T12:52:05Z</time>
      </trkpt>
      <trkpt lat="43.54992" lon="2.96645">
        <ele>313</ele>
        <time>2019-03-03T12:52:06Z</time>
      </trkpt>
      <trkpt lat="43.54989" lon="2.96645">
        <ele>313</ele>
        <time>2019-03-03T12:52:07Z</time>
      </trkpt>
      <trkpt lat="43.54986" lon="2.96644">
        <ele>313</ele>
        <time>2019-03-03T12:52:08Z</time>
      </trkpt>
      <trkpt lat="43.54983" lon="2.96643">
        <ele>313</ele>
        <time>2019-03-03T12:52:09Z</time>
      </trkpt>
      <trkpt lat="43.5498" lon="2.96642">
        <ele>313</ele>
        <time>2019-03-03T12:52:10Z</time>
      </trkpt>
      <trkpt lat="43.54977" lon="2.96641">
        <ele>313</ele>
        <time>2019-03-03T12:52:11Z</time>
      </trkpt>
      <trkpt lat="43.54974" lon="2.9664">
        <ele>314</ele>
        <time>2019-03-03T12:52:12Z</time>
      </trkpt>
      <trkpt lat="43.54971" lon="2.96638">
        <ele>314</ele>
        <time>2019-03-03T12:52:13Z</time>
      </trkpt>
      <trkpt lat="43.54968" lon="2.96637">
        <ele>314</ele>
        <time>2019-03-03T12:52:14Z</time>
      </trkpt>
      <trkpt lat="43.54965" lon="2.96636">
        <ele>314</ele>
        <time>2019-03-03T12:52:15Z</time>
      </trkpt>
      <trkpt lat="43.54962" lon="2.96635">
        <ele>314</ele>
        <time>2019-03-03T12:52:16Z</time>
      </trkpt>
      <trkpt lat="43.54959" lon="2.96633">
        <ele>314</ele>
        <time>2019-03-03T12:52:17Z</time>
      </trkpt>
      <trkpt lat="43.54956" lon="2.96632">
        <ele>314</ele>
        <time>2019-03-03T12:52:18Z</time>
      </trkpt>
      <trkpt lat="43.54954" lon="2.96631">
        <ele>314</ele>
        <time>2019-03-03T12:52:19Z</time>
      </trkpt>
      <trkpt lat="43.54951" lon="2.96629">
        <ele>314</ele>
        <time>2019-03-03T12:52:20Z</time>
      </trkpt>
      <trkpt lat="43.54948" lon="2.96628">
        <ele>314</ele>
        <time>2019-03-03T12:52:21Z</time>
      </trkpt>
      <trkpt lat="43.54945" lon="2.96626">
        <ele>314</ele>
        <time>2019-03-03T12:52:22Z</time>
      </trkpt>
      <trkpt lat="43.54942" lon="2.96625">
        <ele>314</ele>
        <time>2019-03-03T12:52:23Z</time>
      </trkpt>
      <trkpt lat="43.54939" lon="2.96623">
        <ele>314</ele>
        <time>2019-03-03T12:52:24Z</time>
      </trkpt>
      <trkpt lat="43.54936" lon="2.96622">
        <ele>314</ele>
        <time>2019-03-03T12:52:25Z</time>
      </trkpt>
      <trkpt lat="43.54934" lon="2.9662">
        <ele>314</ele>
        <time>2019-03-03T12:52:26Z</time>
      </trkpt>
      <trkpt lat="43.54931" lon="2.96619">
        <ele>314</ele>
        <time>2019-03-03T12:52:27Z</time>
      </trkpt>
      <trkpt lat="43.54928" lon="2.96617">
        <ele>315</ele>
        <time>2019-03-03T12:52:28Z</time>
      </trkpt>
      <trkpt lat="43.54925" lon="2.96615">
        <ele>315</ele>
        <time>2019-03-03T12:52:29Z</time>
      </trkpt>
      <trkpt lat="43.54922" lon="2.96614">
        <ele>315</ele>
        <time>2019-03-03T12:52:30Z</time>
      </trkpt>
      <trkpt lat="43.54919" lon="2.96612">
        <ele>315</ele>
        <time>2019-03-03T12:52:31Z</time>
      </trkpt>
      <trkpt lat="43.54916" lon="2.9661">
        <ele>315</ele>
        <time>2019-03-03T12:52:32Z</time>
      </trkpt>
      <trkpt lat="43.54913" lon="2.96608">
        <ele>315</ele>
        <time>2019-03-03T12:52:33Z</time>
      </trkpt>
      <trkpt lat="43.5491" lon="2.96606">
        <ele>315</ele>
        <time>2019-03-03T12:52:34Z</time>
      </trkpt>
      <trkpt lat="43.54907" lon="2.96605">
        <ele>316</ele>
        <time>2019-03-03T12:52:35Z</time>
      </trkpt>
      <trkpt lat="43.54904" lon="2.96603">
        <ele>316</ele>
        <time>2019-03-03T12:52:36Z</time>
      </trkpt>
      <trkpt lat="43.54901" lon="2.96601">
        <ele>316</ele>
        <time>2019-03-03T12:52:37Z</time>
      </trkpt>
      <trkpt lat="43.54898" lon="2.96599">
        <ele>316</ele>
        <time>2019-03-03T12:52:38Z</time>
      </trkpt>
      <trkpt lat="43.54896" lon="2.96598">
        <ele>316</ele>
        <time>2019-03-03T12:52:39Z</time>
      </trkpt>
      <trkpt lat="43.54893" lon="2.96596">
        <ele>316</ele>
        <time>2019-03-03T12:52:40Z</time>
      </trkpt>
      <trkpt lat="43.5489" lon="2.96594">
        <ele>316</ele>
        <time>2019-03-03T12:52:41Z</time>
      </trkpt>
      <trkpt lat="43.54887" lon="2.96592">
        <ele>317</ele>
        <time>2019-03-03T12:52:42Z</time>
      </trkpt>
      <trkpt lat="43.54884" lon="2.96591">
        <ele>317</ele>
        <time>2019-03-03T12:52:43Z</time>
      </trkpt>
      <trkpt lat="43.54881" lon="2.96589">
        <ele>317</ele>
        <time>2019-03-03T12:52:44Z</time>
      </trkpt>
      <trkpt lat="43.54879" lon="2.96588">
        <ele>317</ele>
        <time>2019-03-03T12:52:45Z</time>
      </trkpt>
      <trkpt lat="43.54876" lon="2.96586">
        <ele>317</ele>
        <time>2019-03-03T12:52:46Z</time>
      </trkpt>
      <trkpt lat="43.54873" lon="2.96585">
        <ele>317</ele>
        <time>2019-03-03T12:52:47Z</time>
      </trkpt>
      <trkpt lat="43.5487" lon="2.96583">
        <ele>317</ele>
        <time>2019-03-03T12:52:48Z</time>
      </trkpt>
      <trkpt lat="43.54867" lon="2.96581">
        <ele>317</ele>
        <time>2019-03-03T12:52:49Z</time>
      </trkpt>
      <trkpt lat="43.54865" lon="2.9658">
        <ele>317</ele>
        <time>2019-03-03T12:52:50Z</time>
      </trkpt>
      <trkpt lat="43.54862" lon="2.96578">
        <ele>317</ele>
        <time>2019-03-03T12:52:51Z</time>
      </trkpt>
      <trkpt lat="43.54859" lon="2.96576">
        <ele>317</ele>
        <time>2019-03-03T12:52:52Z</time>
      </trkpt>
      <trkpt lat="43.54856" lon="2.96574">
        <ele>317</ele>
        <time>2019-03-03T12:52:53Z</time>
      </trkpt>
      <trkpt lat="43.54852" lon="2.96573">
        <ele>317</ele>
        <time>2019-03-03T12:52:54Z</time>
      </trkpt>
      <trkpt lat="43.54849" lon="2.96571">
        <ele>317</ele>
        <time>2019-03-03T12:52:55Z</time>
      </trkpt>
      <trkpt lat="43.54846" lon="2.96569">
        <ele>317</ele>
        <time>2019-03-03T12:52:56Z</time>
      </trkpt>
      <trkpt lat="43.54843" lon="2.96567">
        <ele>318</ele>
        <time>2019-03-03T12:52:57Z</time>
      </trkpt>
      <trkpt lat="43.5484" lon="2.96565">
        <ele>318</ele>
        <time>2019-03-03T12:52:58Z</time>
      </trkpt>
      <trkpt lat="43.54838" lon="2.96563">
        <ele>318</ele>
        <time>2019-03-03T12:52:59Z</time>
      </trkpt>
      <trkpt lat="43.54835" lon="2.96562">
        <ele>318</ele>
        <time>2019-03-03T12:53:00Z</time>
      </trkpt>
      <trkpt lat="43.54832" lon="2.9656">
        <ele>318</ele>
        <time>2019-03-03T12:53:01Z</time>
      </trkpt>
      <trkpt lat="43.5483" lon="2.96558">
        <ele>318</ele>
        <time>2019-03-03T12:53:02Z</time>
      </trkpt>
      <trkpt lat="43.54827" lon="2.96556">
        <ele>318</ele>
        <time>2019-03-03T12:53:03Z</time>
      </trkpt>
      <trkpt lat="43.54824" lon="2.96554">
        <ele>318</ele>
        <time>2019-03-03T12:53:04Z</time>
      </trkpt>
      <trkpt lat="43.54821" lon="2.96552">
        <ele>318</ele>
        <time>2019-03-03T12:53:05Z</time>
      </trkpt>
      <trkpt lat="43.54818" lon="2.9655">
        <ele>318</ele>
        <time>2019-03-03T12:53:06Z</time>
      </trkpt>
      <trkpt lat="43.54816" lon="2.96549">
        <ele>318</ele>
        <time>2019-03-03T12:53:07Z</time>
      </trkpt>
      <trkpt lat="43.54813" lon="2.96547">
        <ele>318</ele>
        <time>2019-03-03T12:53:08Z</time>
      </trkpt>
      <trkpt lat="43.5481" lon="2.96544">
        <ele>318</ele>
        <time>2019-03-03T12:53:09Z</time>
      </trkpt>
      <trkpt lat="43.54807" lon="2.96541">
        <ele>318</ele>
        <time>2019-03-03T12:53:10Z</time>
      </trkpt>
      <trkpt lat="43.54805" lon="2.96537">
        <ele>318</ele>
        <time>2019-03-03T12:53:11Z</time>
      </trkpt>
      <trkpt lat="43.54805" lon="2.96532">
        <ele>318</ele>
        <time>2019-03-03T12:53:12Z</time>
      </trkpt>
      <trkpt lat="43.54805" lon="2.96528">
        <ele>318</ele>
        <time>2019-03-03T12:53:13Z</time>
      </trkpt>
      <trkpt lat="43.54806" lon="2.96523">
        <ele>318</ele>
        <time>2019-03-03T12:53:14Z</time>
      </trkpt>
      <trkpt lat="43.54807" lon="2.96519">
        <ele>318</ele>
        <time>2019-03-03T12:53:15Z</time>
      </trkpt>
      <trkpt lat="43.54808" lon="2.96516">
        <ele>318</ele>
        <time>2019-03-03T12:53:16Z</time>
      </trkpt>
      <trkpt lat="43.5481" lon="2.96512">
        <ele>319</ele>
        <time>2019-03-03T12:53:17Z</time>
      </trkpt>
      <trkpt lat="43.54811" lon="2.96508">
        <ele>319</ele>
        <time>2019-03-03T12:53:18Z</time>
      </trkpt>
      <trkpt lat="43.54812" lon="2.96505">
        <ele>319</ele>
        <time>2019-03-03T12:53:19Z</time>
      </trkpt>
      <trkpt lat="43.54813" lon="2.96501">
        <ele>319</ele>
        <time>2019-03-03T12:53:20Z</time>
      </trkpt>
      <trkpt lat="43.54815" lon="2.96497">
        <ele>319</ele>
        <time>2019-03-03T12:53:21Z</time>
      </trkpt>
      <trkpt lat="43.54816" lon="2.96493">
        <ele>319</ele>
        <time>2019-03-03T12:53:22Z</time>
      </trkpt>
      <trkpt lat="43.54818" lon="2.96489">
        <ele>319</ele>
        <time>2019-03-03T12:53:23Z</time>
      </trkpt>
      <trkpt lat="43.54819" lon="2.96485">
        <ele>319</ele>
        <time>2019-03-03T12:53:24Z</time>
      </trkpt>
      <trkpt lat="43.5482" lon="2.96481">
        <ele>319</ele>
        <time>2019-03-03T12:53:25Z</time>
      </trkpt>
      <trkpt lat="43.54821" lon="2.96478">
        <ele>319</ele>
        <time>2019-03-03T12:53:26Z</time>
      </trkpt>
      <trkpt lat="43.54822" lon="2.96474">
        <ele>320</ele>
        <time>2019-03-03T12:53:27Z</time>
      </trkpt>
      <trkpt lat="43.54822" lon="2.9647">
        <ele>320</ele>
        <time>2019-03-03T12:53:28Z</time>
      </trkpt>
      <trkpt lat="43.54823" lon="2.96466">
        <ele>320</ele>
        <time>2019-03-03T12:53:29Z</time>
      </trkpt>
      <trkpt lat="43.54824" lon="2.96462">
        <ele>320</ele>
        <time>2019-03-03T12:53:30Z</time>
      </trkpt>
      <trkpt lat="43.54825" lon="2.96458">
        <ele>320</ele>
        <time>2019-03-03T12:53:31Z</time>
      </trkpt>
      <trkpt lat="43.54826" lon="2.96453">
        <ele>320</ele>
        <time>2019-03-03T12:53:32Z</time>
      </trkpt>
      <trkpt lat="43.54826" lon="2.96449">
        <ele>320</ele>
        <time>2019-03-03T12:53:33Z</time>
      </trkpt>
      <trkpt lat="43.54827" lon="2.96445">
        <ele>320</ele>
        <time>2019-03-03T12:53:34Z</time>
      </trkpt>
      <trkpt lat="43.54827" lon="2.96441">
        <ele>320</ele>
        <time>2019-03-03T12:53:35Z</time>
      </trkpt>
      <trkpt lat="43.54827" lon="2.96437">
        <ele>321</ele>
        <time>2019-03-03T12:53:36Z</time>
      </trkpt>
      <trkpt lat="43.54828" lon="2.96432">
        <ele>321</ele>
        <time>2019-03-03T12:53:37Z</time>
      </trkpt>
      <trkpt lat="43.54828" lon="2.96428">
        <ele>321</ele>
        <time>2019-03-03T12:53:38Z</time>
      </trkpt>
      <trkpt lat="43.54828" lon="2.96424">
        <ele>321</ele>
        <time>2019-03-03T12:53:39Z</time>
      </trkpt>
      <trkpt lat="43.54828" lon="2.9642">
        <ele>321</ele>
        <time>2019-03-03T12:53:40Z</time>
      </trkpt>
      <trkpt lat="43.54828" lon="2.96417">
        <ele>321</ele>
        <time>2019-03-03T12:53:41Z</time>
      </trkpt>
      <trkpt lat="43.54827" lon="2.96413">
        <ele>322</ele>
        <time>2019-03-03T12:53:42Z</time>
      </trkpt>
      <trkpt lat="43.54827" lon="2.96409">
        <ele>322</ele>
        <time>2019-03-03T12:53:43Z</time>
      </trkpt>
      <trkpt lat="43.54826" lon="2.96406">
        <ele>323</ele>
        <time>2019-03-03T12:53:44Z</time>
      </trkpt>
      <trkpt lat="43.54826" lon="2.96403">
        <ele>323</ele>
        <time>2019-03-03T12:53:45Z</time>
      </trkpt>
      <trkpt lat="43.54826" lon="2.964">
        <ele>323</ele>
        <time>2019-03-03T12:53:46Z</time>
      </trkpt>
      <trkpt lat="43.54825" lon="2.96397">
        <ele>323</ele>
        <time>2019-03-03T12:53:47Z</time>
      </trkpt>
      <trkpt lat="43.54825" lon="2.96393">
        <ele>324</ele>
        <time>2019-03-03T12:53:48Z</time>
      </trkpt>
      <trkpt lat="43.54825" lon="2.9639">
        <ele>324</ele>
        <time>2019-03-03T12:53:49Z</time>
      </trkpt>
      <trkpt lat="43.54824" lon="2.96386">
        <ele>324</ele>
        <time>2019-03-03T12:53:50Z</time>
      </trkpt>
      <trkpt lat="43.54823" lon="2.96383">
        <ele>325</ele>
        <time>2019-03-03T12:53:51Z</time>
      </trkpt>
      <trkpt lat="43.54823" lon="2.9638">
        <ele>325</ele>
        <time>2019-03-03T12:53:52Z</time>
      </trkpt>
      <trkpt lat="43.54822" lon="2.96377">
        <ele>325</ele>
        <time>2019-03-03T12:53:53Z</time>
      </trkpt>
      <trkpt lat="43.54821" lon="2.96375">
        <ele>326</ele>
        <time>2019-03-03T12:53:54Z</time>
      </trkpt>
      <trkpt lat="43.5482" lon="2.96372">
        <ele>326</ele>
        <time>2019-03-03T12:53:55Z</time>
      </trkpt>
      <trkpt lat="43.5482" lon="2.96369">
        <ele>326</ele>
        <time>2019-03-03T12:53:56Z</time>
      </trkpt>
      <trkpt lat="43.54819" lon="2.96365">
        <ele>326</ele>
        <time>2019-03-03T12:53:57Z</time>
      </trkpt>
      <trkpt lat="43.54818" lon="2.96362">
        <ele>327</ele>
        <time>2019-03-03T12:53:58Z</time>
      </trkpt>
      <trkpt lat="43.54817" lon="2.96359">
        <ele>327</ele>
        <time>2019-03-03T12:53:59Z</time>
      </trkpt>
      <trkpt lat="43.54817" lon="2.96356">
        <ele>327</ele>
        <time>2019-03-03T12:54:00Z</time>
      </trkpt>
      <trkpt lat="43.54816" lon="2.96354">
        <ele>327</ele>
        <time>2019-03-03T12:54:01Z</time>
      </trkpt>
      <trkpt lat="43.54815" lon="2.96351">
        <ele>328</ele>
        <time>2019-03-03T12:54:02Z</time>
      </trkpt>
      <trkpt lat="43.54814" lon="2.96349">
        <ele>328</ele>
        <time>2019-03-03T12:54:03Z</time>
      </trkpt>
      <trkpt lat="43.54814" lon="2.96346">
        <ele>328</ele>
        <time>2019-03-03T12:54:04Z</time>
      </trkpt>
      <trkpt lat="43.54813" lon="2.96344">
        <ele>328</ele>
        <time>2019-03-03T12:54:05Z</time>
      </trkpt>
      <trkpt lat="43.54812" lon="2.96342">
        <ele>329</ele>
        <time>2019-03-03T12:54:06Z</time>
      </trkpt>
      <trkpt lat="43.54812" lon="2.96339">
        <ele>329</ele>
        <time>2019-03-03T12:54:07Z</time>
      </trkpt>
      <trkpt lat="43.54811" lon="2.96337">
        <ele>329</ele>
        <time>2019-03-03T12:54:08Z</time>
      </trkpt>
      <trkpt lat="43.5481" lon="2.96335">
        <ele>330</ele>
        <time>2019-03-03T12:54:09Z</time>
      </trkpt>
      <trkpt lat="43.54809" lon="2.96332">
        <ele>330</ele>
        <time>2019-03-03T12:54:10Z</time>
      </trkpt>
      <trkpt lat="43.54808" lon="2.9633">
        <ele>330</ele>
        <time>2019-03-03T12:54:11Z</time>
      </trkpt>
      <trkpt lat="43.54806" lon="2.96328">
        <ele>330</ele>
        <time>2019-03-03T12:54:12Z</time>
      </trkpt>
      <trkpt lat="43.54805" lon="2.96326">
        <ele>330</ele>
        <time>2019-03-03T12:54:13Z</time>
      </trkpt>
      <trkpt lat="43.54804" lon="2.96324">
        <ele>330</ele>
        <time>2019-03-03T12:54:14Z</time>
      </trkpt>
      <trkpt lat="43.54803" lon="2.96322">
        <ele>330</ele>
        <time>2019-03-03T12:54:15Z</time>
      </trkpt>
      <trkpt lat="43.54801" lon="2.9632">
        <ele>331</ele>
        <time>2019-03-03T12:54:16Z</time>
      </trkpt>
      <trkpt lat="43.548" lon="2.96318">
        <ele>331</ele>
        <time>2019-03-03T12:54:17Z</time>
      </trkpt>
      <trkpt lat="43.54798" lon="2.96316">
        <ele>331</ele>
        <time>2019-03-03T12:54:18Z</time>
      </trkpt>
      <trkpt lat="43.54796" lon="2.96314">
        <ele>331</ele>
        <time>2019-03-03T12:54:19Z</time>
      </trkpt>
      <trkpt lat="43.54795" lon="2.96312">
        <ele>331</ele>
        <time>2019-03-03T12:54:20Z</time>
      </trkpt>
      <trkpt lat="43.54793" lon="2.96309">
        <ele>332</ele>
        <time>2019-03-03T12:54:21Z</time>
      </trkpt>
      <trkpt lat="43.54792" lon="2.96307">
        <ele>332</ele>
        <time>2019-03-03T12:54:22Z</time>
      </trkpt>
      <trkpt lat="43.54791" lon="2.96305">
        <ele>333</ele>
        <time>2019-03-03T12:54:23Z</time>
      </trkpt>
      <trkpt lat="43.54791" lon="2.96303">
        <ele>333</ele>
        <time>2019-03-03T12:54:24Z</time>
      </trkpt>
      <trkpt lat="43.54792" lon="2.963">
        <ele>333</ele>
        <time>2019-03-03T12:54:25Z</time>
      </trkpt>
      <trkpt lat="43.54793" lon="2.96297">
        <ele>334</ele>
        <time>2019-03-03T12:54:26Z</time>
      </trkpt>
      <trkpt lat="43.54794" lon="2.96294">
        <ele>334</ele>
        <time>2019-03-03T12:54:27Z</time>
      </trkpt>
      <trkpt lat="43.54795" lon="2.96292">
        <ele>334</ele>
        <time>2019-03-03T12:54:28Z</time>
      </trkpt>
      <trkpt lat="43.54796" lon="2.9629">
        <ele>334</ele>
        <time>2019-03-03T12:54:29Z</time>
      </trkpt>
      <trkpt lat="43.54797" lon="2.96288">
        <ele>335</ele>
        <time>2019-03-03T12:54:30Z</time>
      </trkpt>
      <trkpt lat="43.54798" lon="2.96286">
        <ele>335</ele>
        <time>2019-03-03T12:54:31Z</time>
      </trkpt>
      <trkpt lat="43.548" lon="2.96284">
        <ele>335</ele>
        <time>2019-03-03T12:54:32Z</time>
      </trkpt>
      <trkpt lat="43.54801" lon="2.96281">
        <ele>336</ele>
        <time>2019-03-03T12:54:33Z</time>
      </trkpt>
      <trkpt lat="43.54802" lon="2.96279">
        <ele>336</ele>
        <time>2019-03-03T12:54:34Z</time>
      </trkpt>
      <trkpt lat="43.54802" lon="2.96276">
        <ele>336</ele>
        <time>2019-03-03T12:54:35Z</time>
      </trkpt>
      <trkpt lat="43.54803" lon="2.96273">
        <ele>336</ele>
        <time>2019-03-03T12:54:36Z</time>
      </trkpt>
      <trkpt lat="43.54804" lon="2.96271">
        <ele>337</ele>
        <time>2019-03-03T12:54:37Z</time>
      </trkpt>
      <trkpt lat="43.54805" lon="2.96268">
        <ele>337</ele>
        <time>2019-03-03T12:54:38Z</time>
      </trkpt>
      <trkpt lat="43.54805" lon="2.96266">
        <ele>337</ele>
        <time>2019-03-03T12:54:39Z</time>
      </trkpt>
      <trkpt lat="43.54806" lon="2.96263">
        <ele>337</ele>
        <time>2019-03-03T12:54:40Z</time>
      </trkpt>
      <trkpt lat="43.54808" lon="2.96261">
        <ele>337</ele>
        <time>2019-03-03T12:54:41Z</time>
      </trkpt>
      <trkpt lat="43.54809" lon="2.96259">
        <ele>338</ele>
        <time>2019-03-03T12:54:42Z</time>
      </trkpt>
      <trkpt lat="43.54811" lon="2.96258">
        <ele>338</ele>
        <time>2019-03-03T12:54:43Z</time>
      </trkpt>
      <trkpt lat="43.54812" lon="2.96256">
        <ele>338</ele>
        <time>2019-03-03T12:54:44Z</time>
      </trkpt>
      <trkpt lat="43.54814" lon="2.96254">
        <ele>338</ele>
        <time>2019-03-03T12:54:45Z</time>
      </trkpt>
      <trkpt lat="43.54815" lon="2.96253">
        <ele>339</ele>
        <time>2019-03-03T12:54:46Z</time>
      </trkpt>
      <trkpt lat="43.54817" lon="2.96251">
        <ele>339</ele>
        <time>2019-03-03T12:54:47Z</time>
      </trkpt>
      <trkpt lat="43.54818" lon="2.96249">
        <ele>339</ele>
        <time>2019-03-03T12:54:48Z</time>
      </trkpt>
      <trkpt lat="43.5482" lon="2.96247">
        <ele>339</ele>
        <time>2019-03-03T12:54:49Z</time>
      </trkpt>
      <trkpt lat="43.54821" lon="2.96245">
        <ele>339</ele>
        <time>2019-03-03T12:54:50Z</time>
      </trkpt>
      <trkpt lat="43.54822" lon="2.96243">
        <ele>339</ele>
        <time>2019-03-03T12:54:51Z</time>
      </trkpt>
      <trkpt lat="43.54824" lon="2.96241">
        <ele>339</ele>
        <time>2019-03-03T12:54:52Z</time>
      </trkpt>
      <trkpt lat="43.54826" lon="2.96239">
        <ele>340</ele>
        <time>2019-03-03T12:54:53Z</time>
      </trkpt>
      <trkpt lat="43.54827" lon="2.96237">
        <ele>340</ele>
        <time>2019-03-03T12:54:54Z</time>
      </trkpt>
      <trkpt lat="43.54829" lon="2.96235">
        <ele>340</ele>
        <time>2019-03-03T12:54:55Z</time>
      </trkpt>
      <trkpt lat="43.54831" lon="2.96233">
        <ele>340</ele>
        <time>2019-03-03T12:54:56Z</time>
      </trkpt>
      <trkpt lat="43.54832" lon="2.96231">
        <ele>341</ele>
        <time>2019-03-03T12:54:57Z</time>
      </trkpt>
      <trkpt lat="43.54834" lon="2.9623">
        <ele>341</ele>
        <time>2019-03-03T12:54:58Z</time>
      </trkpt>
      <trkpt lat="43.54836" lon="2.96228">
        <ele>341</ele>
        <time>2019-03-03T12:54:59Z</time>
      </trkpt>
      <trkpt lat="43.54837" lon="2.96226">
        <ele>341</ele>
        <time>2019-03-03T12:55:00Z</time>
      </trkpt>
      <trkpt lat="43.54839" lon="2.96225">
        <ele>341</ele>
        <time>2019-03-03T12:55:01Z</time>
      </trkpt>
      <trkpt lat="43.54841" lon="2.96223">
        <ele>341</ele>
        <time>2019-03-03T12:55:02Z</time>
      </trkpt>
      <trkpt lat="43.54842" lon="2.96222">
        <ele>341</ele>
        <time>2019-03-03T12:55:03Z</time>
      </trkpt>
      <trkpt lat="43.54844" lon="2.9622">
        <ele>342</ele>
        <time>2019-03-03T12:55:04Z</time>
      </trkpt>
      <trkpt lat="43.54846" lon="2.96218">
        <ele>342</ele>
        <time>2019-03-03T12:55:05Z</time>
      </trkpt>
      <trkpt lat="43.54848" lon="2.96217">
        <ele>342</ele>
        <time>2019-03-03T12:55:06Z</time>
      </trkpt>
      <trkpt lat="43.54849" lon="2.96214">
        <ele>342</ele>
        <time>2019-03-03T12:55:07Z</time>
      </trkpt>
      <trkpt lat="43.5485" lon="2.96212">
        <ele>343</ele>
        <time>2019-03-03T12:55:08Z</time>
      </trkpt>
      <trkpt lat="43.54851" lon="2.96209">
        <ele>343</ele>
        <time>2019-03-03T12:55:09Z</time>
      </trkpt>
      <trkpt lat="43.54851" lon="2.96207">
        <ele>343</ele>
        <time>2019-03-03T12:55:10Z</time>
      </trkpt>
      <trkpt lat="43.54849" lon="2.96205">
        <ele>343</ele>
        <time>2019-03-03T12:55:11Z</time>
      </trkpt>
      <trkpt lat="43.54848" lon="2.96205">
        <ele>343</ele>
        <time>2019-03-03T12:55:12Z</time>
      </trkpt>
      <trkpt lat="43.54846" lon="2.96205">
        <ele>343</ele>
        <time>2019-03-03T12:55:13Z</time>
      </trkpt>
      <trkpt lat="43.54844" lon="2.96206">
        <ele>344</ele>
        <time>2019-03-03T12:55:14Z</time>
      </trkpt>
      <trkpt lat="43.54842" lon="2.96206">
        <ele>344</ele>
        <time>2019-03-03T12:55:15Z</time>
      </trkpt>
      <trkpt lat="43.5484" lon="2.96207">
        <ele>344</ele>
        <time>2019-03-03T12:55:16Z</time>
      </trkpt>
      <trkpt lat="43.54838" lon="2.96208">
        <ele>344</ele>
        <time>2019-03-03T12:55:17Z</time>
      </trkpt>
      <trkpt lat="43.54836" lon="2.9621">
        <ele>345</ele>
        <time>2019-03-03T12:55:18Z</time>
      </trkpt>
      <trkpt lat="43.54834" lon="2.96211">
        <ele>345</ele>
        <time>2019-03-03T12:55:19Z</time>
      </trkpt>
      <trkpt lat="43.54832" lon="2.96213">
        <ele>345</ele>
        <time>2019-03-03T12:55:20Z</time>
      </trkpt>
      <trkpt lat="43.5483" lon="2.96214">
        <ele>346</ele>
        <time>2019-03-03T12:55:21Z</time>
      </trkpt>
      <trkpt lat="43.54828" lon="2.96216">
        <ele>346</ele>
        <time>2019-03-03T12:55:22Z</time>
      </trkpt>
      <trkpt lat="43.54826" lon="2.96217">
        <ele>346</ele>
        <time>2019-03-03T12:55:23Z</time>
      </trkpt>
      <trkpt lat="43.54825" lon="2.96219">
        <ele>346</ele>
        <time>2019-03-03T12:55:24Z</time>
      </trkpt>
      <trkpt lat="43.54823" lon="2.96221">
        <ele>347</ele>
        <time>2019-03-03T12:55:25Z</time>
      </trkpt>
      <trkpt lat="43.54821" lon="2.96222">
        <ele>347</ele>
        <time>2019-03-03T12:55:26Z</time>
      </trkpt>
      <trkpt lat="43.54818" lon="2.96223">
        <ele>347</ele>
        <time>2019-03-03T12:55:27Z</time>
      </trkpt>
      <trkpt lat="43.54816" lon="2.96224">
        <ele>347</ele>
        <time>2019-03-03T12:55:28Z</time>
      </trkpt>
      <trkpt lat="43.54814" lon="2.96226">
        <ele>347</ele>
        <time>2019-03-03T12:55:29Z</time>
      </trkpt>
      <trkpt lat="43.54812" lon="2.96227">
        <ele>348</ele>
        <time>2019-03-03T12:55:30Z</time>
      </trkpt>
      <trkpt lat="43.5481" lon="2.96228">
        <ele>348</ele>
        <time>2019-03-03T12:55:31Z</time>
      </trkpt>
      <trkpt lat="43.54808" lon="2.96229">
        <ele>348</ele>
        <time>2019-03-03T12:55:32Z</time>
      </trkpt>
      <trkpt lat="43.54806" lon="2.96231">
        <ele>348</ele>
        <time>2019-03-03T12:55:33Z</time>
      </trkpt>
      <trkpt lat="43.54804" lon="2.96232">
        <ele>348</ele>
        <time>2019-03-03T12:55:34Z</time>
      </trkpt>
      <trkpt lat="43.54802" lon="2.96233">
        <ele>348</ele>
        <time>2019-03-03T12:55:35Z</time>
      </trkpt>
      <trkpt lat="43.548" lon="2.96234">
        <ele>349</ele>
        <time>2019-03-03T12:55:36Z</time>
      </trkpt>
      <trkpt lat="43.54798" lon="2.96235">
        <ele>349</ele>
        <time>2019-03-03T12:55:37Z</time>
      </trkpt>
      <trkpt lat="43.54796" lon="2.96236">
        <ele>349</ele>
        <time>2019-03-03T12:55:38Z</time>
      </trkpt>
      <trkpt lat="43.54794" lon="2.96237">
        <ele>349</ele>
        <time>2019-03-03T12:55:39Z</time>
      </trkpt>
      <trkpt lat="43.54792" lon="2.96238">
        <ele>350</ele>
        <time>2019-03-03T12:55:40Z</time>
      </trkpt>
      <trkpt lat="43.5479" lon="2.96239">
        <ele>350</ele>
        <time>2019-03-03T12:55:41Z</time>
      </trkpt>
      <trkpt lat="43.54788" lon="2.9624">
        <ele>350</ele>
        <time>2019-03-03T12:55:42Z</time>
      </trkpt>
      <trkpt lat="43.54786" lon="2.96241">
        <ele>350</ele>
        <time>2019-03-03T12:55:43Z</time>
      </trkpt>
      <trkpt lat="43.54784" lon="2.96243">
        <ele>350</ele>
        <time>2019-03-03T12:55:44Z</time>
      </trkpt>
      <trkpt lat="43.54783" lon="2.96244">
        <ele>351</ele>
        <time>2019-03-03T12:55:45Z</time>
      </trkpt>
      <trkpt lat="43.54781" lon="2.96246">
        <ele>351</ele>
        <time>2019-03-03T12:55:46Z</time>
      </trkpt>
      <trkpt lat="43.54779" lon="2.96248">
        <ele>351</ele>
        <time>2019-03-03T12:55:47Z</time>
      </trkpt>
      <trkpt lat="43.54777" lon="2.96249">
        <ele>351</ele>
        <time>2019-03-03T12:55:48Z</time>
      </trkpt>
      <trkpt lat="43.54776" lon="2.96251">
        <ele>351</ele>
        <time>2019-03-03T12:55:49Z</time>
      </trkpt>
      <trkpt lat="43.54774" lon="2.96253">
        <ele>352</ele>
        <time>2019-03-03T12:55:50Z</time>
      </trkpt>
      <trkpt lat="43.54772" lon="2.96254">
        <ele>352</ele>
        <time>2019-03-03T12:55:51Z</time>
      </trkpt>
      <trkpt lat="43.54771" lon="2.96256">
        <ele>352</ele>
        <time>2019-03-03T12:55:52Z</time>
      </trkpt>
      <trkpt lat="43.54769" lon="2.96258">
        <ele>352</ele>
        <time>2019-03-03T12:55:53Z</time>
      </trkpt>
      <trkpt lat="43.54767" lon="2.96259">
        <ele>352</ele>
        <time>2019-03-03T12:55:54Z</time>
      </trkpt>
      <trkpt lat="43.54765" lon="2.96261">
        <ele>352</ele>
        <time>2019-03-03T12:55:55Z</time>
      </trkpt>
      <trkpt lat="43.54764" lon="2.96262">
        <ele>353</ele>
        <time>2019-03-03T12:55:56Z</time>
      </trkpt>
      <trkpt lat="43.54762" lon="2.96264">
        <ele>353</ele>
        <time>2019-03-03T12:55:57Z</time>
      </trkpt>
      <trkpt lat="43.5476" lon="2.96266">
        <ele>353</ele>
        <time>2019-03-03T12:55:58Z</time>
      </trkpt>
      <trkpt lat="43.54759" lon="2.96267">
        <ele>353</ele>
        <time>2019-03-03T12:55:59Z</time>
      </trkpt>
      <trkpt lat="43.54757" lon="2.96269">
        <ele>354</ele>
        <time>2019-03-03T12:56:00Z</time>
      </trkpt>
      <trkpt lat="43.54755" lon="2.96271">
        <ele>354</ele>
        <time>2019-03-03T12:56:01Z</time>
      </trkpt>
      <trkpt lat="43.54753" lon="2.96273">
        <ele>354</ele>
        <time>2019-03-03T12:56:02Z</time>
      </trkpt>
      <trkpt lat="43.54752" lon="2.96274">
        <ele>354</ele>
        <time>2019-03-03T12:56:03Z</time>
      </trkpt>
      <trkpt lat="43.5475" lon="2.96276">
        <ele>355</ele>
        <time>2019-03-03T12:56:04Z</time>
      </trkpt>
      <trkpt lat="43.54748" lon="2.96277">
        <ele>355</ele>
        <time>2019-03-03T12:56:05Z</time>
      </trkpt>
      <trkpt lat="43.54746" lon="2.96279">
        <ele>355</ele>
        <time>2019-03-03T12:56:06Z</time>
      </trkpt>
      <trkpt lat="43.54744" lon="2.96281">
        <ele>355</ele>
        <time>2019-03-03T12:56:07Z</time>
      </trkpt>
      <trkpt lat="43.54742" lon="2.96282">
        <ele>356</ele>
        <time>2019-03-03T12:56:08Z</time>
      </trkpt>
      <trkpt lat="43.5474" lon="2.96284">
        <ele>356</ele>
        <time>2019-03-03T12:56:09Z</time>
      </trkpt>
      <trkpt lat="43.54738" lon="2.96286">
        <ele>356</ele>
        <time>2019-03-03T12:56:10Z</time>
      </trkpt>
      <trkpt lat="43.54737" lon="2.96288">
        <ele>356</ele>
        <time>2019-03-03T12:56:11Z</time>
      </trkpt>
      <trkpt lat="43.54735" lon="2.9629">
        <ele>357</ele>
        <time>2019-03-03T12:56:12Z</time>
      </trkpt>
      <trkpt lat="43.54734" lon="2.96292">
        <ele>357</ele>
        <time>2019-03-03T12:56:13Z</time>
      </trkpt>
      <trkpt lat="43.54733" lon="2.96295">
        <ele>357</ele>
        <time>2019-03-03T12:56:14Z</time>
      </trkpt>
      <trkpt lat="43.54733" lon="2.96297">
        <ele>357</ele>
        <time>2019-03-03T12:56:15Z</time>
      </trkpt>
      <trkpt lat="43.54732" lon="2.963">
        <ele>358</ele>
        <time>2019-03-03T12:56:16Z</time>
      </trkpt>
      <trkpt lat="43.54731" lon="2.96303">
        <ele>358</ele>
        <time>2019-03-03T12:56:17Z</time>
      </trkpt>
      <trkpt lat="43.54731" lon="2.96306">
        <ele>358</ele>
        <time>2019-03-03T12:56:18Z</time>
      </trkpt>
      <trkpt lat="43.54731" lon="2.96308">
        <ele>358</ele>
        <time>2019-03-03T12:56:19Z</time>
      </trkpt>
      <trkpt lat="43.54731" lon="2.96311">
        <ele>359</ele>
        <time>2019-03-03T12:56:20Z</time>
      </trkpt>
      <trkpt lat="43.54731" lon="2.96314">
        <ele>359</ele>
        <time>2019-03-03T12:56:21Z</time>
      </trkpt>
      <trkpt lat="43.54731" lon="2.96317">
        <ele>359</ele>
        <time>2019-03-03T12:56:22Z</time>
      </trkpt>
      <trkpt lat="43.54731" lon="2.9632">
        <ele>359</ele>
        <time>2019-03-03T12:56:23Z</time>
      </trkpt>
      <trkpt lat="43.54732" lon="2.96323">
        <ele>360</ele>
        <time>2019-03-03T12:56:24Z</time>
      </trkpt>
      <trkpt lat="43.54732" lon="2.96325">
        <ele>360</ele>
        <time>2019-03-03T12:56:25Z</time>
      </trkpt>
      <trkpt lat="43.54732" lon="2.96329">
        <ele>360</ele>
        <time>2019-03-03T12:56:26Z</time>
      </trkpt>
      <trkpt lat="43.54733" lon="2.96332">
        <ele>360</ele>
        <time>2019-03-03T12:56:27Z</time>
      </trkpt>
      <trkpt lat="43.54733" lon="2.96335">
        <ele>361</ele>
        <time>2019-03-03T12:56:28Z</time>
      </trkpt>
      <trkpt lat="43.54733" lon="2.96338">
        <ele>361</ele>
        <time>2019-03-03T12:56:29Z</time>
      </trkpt>
      <trkpt lat="43.54734" lon="2.96341">
        <ele>361</ele>
        <time>2019-03-03T12:56:30Z</time>
      </trkpt>
      <trkpt lat="43.54734" lon="2.96344">
        <ele>361</ele>
        <time>2019-03-03T12:56:31Z</time>
      </trkpt>
      <trkpt lat="43.54735" lon="2.96347">
        <ele>361</ele>
        <time>2019-03-03T12:56:32Z</time>
      </trkpt>
      <trkpt lat="43.54735" lon="2.9635">
        <ele>362</ele>
        <time>2019-03-03T12:56:33Z</time>
      </trkpt>
      <trkpt lat="43.54736" lon="2.96353">
        <ele>362</ele>
        <time>2019-03-03T12:56:34Z</time>
      </trkpt>
      <trkpt lat="43.54736" lon="2.96356">
        <ele>362</ele>
        <time>2019-03-03T12:56:35Z</time>
      </trkpt>
      <trkpt lat="43.54737" lon="2.96359">
        <ele>362</ele>
        <time>2019-03-03T12:56:36Z</time>
      </trkpt>
      <trkpt lat="43.54737" lon="2.96362">
        <ele>362</ele>
        <time>2019-03-03T12:56:37Z</time>
      </trkpt>
      <trkpt lat="43.54737" lon="2.96365">
        <ele>362</ele>
        <time>2019-03-03T12:56:38Z</time>
      </trkpt>
      <trkpt lat="43.54738" lon="2.96368">
        <ele>362</ele>
        <time>2019-03-03T12:56:39Z</time>
      </trkpt>
      <trkpt lat="43.54738" lon="2.96371">
        <ele>362</ele>
        <time>2019-03-03T12:56:40Z</time>
      </trkpt>
      <trkpt lat="43.54737" lon="2.96374">
        <ele>362</ele>
        <time>2019-03-03T12:56:41Z</time>
      </trkpt>
      <trkpt lat="43.54737" lon="2.96378">
        <ele>363</ele>
        <time>2019-03-03T12:56:42Z</time>
      </trkpt>
      <trkpt lat="43.54736" lon="2.96381">
        <ele>363</ele>
        <time>2019-03-03T12:56:43Z</time>
      </trkpt>
      <trkpt lat="43.54734" lon="2.96383">
        <ele>363</ele>
        <time>2019-03-03T12:56:44Z</time>
      </trkpt>
      <trkpt lat="43.54733" lon="2.96384">
        <ele>363</ele>
        <time>2019-03-03T12:56:45Z</time>
      </trkpt>
      <trkpt lat="43.54731" lon="2.96385">
        <ele>363</ele>
        <time>2019-03-03T12:56:46Z</time>
      </trkpt>
      <trkpt lat="43.54729" lon="2.96383">
        <ele>364</ele>
        <time>2019-03-03T12:56:47Z</time>
      </trkpt>
      <trkpt lat="43.54728" lon="2.96381">
        <ele>364</ele>
        <time>2019-03-03T12:56:48Z</time>
      </trkpt>
      <trkpt lat="43.54727" lon="2.96378">
        <ele>364</ele>
        <time>2019-03-03T12:56:49Z</time>
      </trkpt>
      <trkpt lat="43.54727" lon="2.96375">
        <ele>364</ele>
        <time>2019-03-03T12:56:50Z</time>
      </trkpt>
      <trkpt lat="43.54727" lon="2.96371">
        <ele>364</ele>
        <time>2019-03-03T12:56:51Z</time>
      </trkpt>
      <trkpt lat="43.54726" lon="2.96368">
        <ele>364</ele>
        <time>2019-03-03T12:56:52Z</time>
      </trkpt>
      <trkpt lat="43.54726" lon="2.96364">
        <ele>364</ele>
        <time>2019-03-03T12:56:53Z</time>
      </trkpt>
      <trkpt lat="43.54726" lon="2.96361">
        <ele>364</ele>
        <time>2019-03-03T12:56:54Z</time>
      </trkpt>
      <trkpt lat="43.54725" lon="2.96358">
        <ele>365</ele>
        <time>2019-03-03T12:56:55Z</time>
      </trkpt>
      <trkpt lat="43.54725" lon="2.96355">
        <ele>365</ele>
        <time>2019-03-03T12:56:56Z</time>
      </trkpt>
      <trkpt lat="43.54724" lon="2.96352">
        <ele>365</ele>
        <time>2019-03-03T12:56:57Z</time>
      </trkpt>
      <trkpt lat="43.54723" lon="2.96348">
        <ele>366</ele>
        <time>2019-03-03T12:56:58Z</time>
      </trkpt>
      <trkpt lat="43.54723" lon="2.96345">
        <ele>366</ele>
        <time>2019-03-03T12:56:59Z</time>
      </trkpt>
      <trkpt lat="43.54722" lon="2.96343">
        <ele>366</ele>
        <time>2019-03-03T12:57:00Z</time>
      </trkpt>
      <trkpt lat="43.54721" lon="2.9634">
        <ele>366</ele>
        <time>2019-03-03T12:57:01Z</time>
      </trkpt>
      <trkpt lat="43.5472" lon="2.96337">
        <ele>366</ele>
        <time>2019-03-03T12:57:02Z</time>
      </trkpt>
      <trkpt lat="43.5472" lon="2.96335">
        <ele>367</ele>
        <time>2019-03-03T12:57:03Z</time>
      </trkpt>
      <trkpt lat="43.54719" lon="2.96332">
        <ele>367</ele>
        <time>2019-03-03T12:57:04Z</time>
      </trkpt>
      <trkpt lat="43.54718" lon="2.9633">
        <ele>367</ele>
        <time>2019-03-03T12:57:05Z</time>
      </trkpt>
      <trkpt lat="43.54718" lon="2.96327">
        <ele>367</ele>
        <time>2019-03-03T12:57:06Z</time>
      </trkpt>
      <trkpt lat="43.54717" lon="2.96324">
        <ele>367</ele>
        <time>2019-03-03T12:57:07Z</time>
      </trkpt>
      <trkpt lat="43.54716" lon="2.96322">
        <ele>368</ele>
        <time>2019-03-03T12:57:08Z</time>
      </trkpt>
      <trkpt lat="43.54715" lon="2.96319">
        <ele>368</ele>
        <time>2019-03-03T12:57:09Z</time>
      </trkpt>
      <trkpt lat="43.54715" lon="2.96316">
        <ele>368</ele>
        <time>2019-03-03T12:57:10Z</time>
      </trkpt>
      <trkpt lat="43.54714" lon="2.96313">
        <ele>368</ele>
        <time>2019-03-03T12:57:11Z</time>
      </trkpt>
      <trkpt lat="43.54713" lon="2.96309">
        <ele>369</ele>
        <time>2019-03-03T12:57:12Z</time>
      </trkpt>
      <trkpt lat="43.54713" lon="2.96306">
        <ele>369</ele>
        <time>2019-03-03T12:57:13Z</time>
      </trkpt>
      <trkpt lat="43.54713" lon="2.96302">
        <ele>369</ele>
        <time>2019-03-03T12:57:14Z</time>
      </trkpt>
      <trkpt lat="43.54712" lon="2.96299">
        <ele>369</ele>
        <time>2019-03-03T12:57:15Z</time>
      </trkpt>
      <trkpt lat="43.54713" lon="2.96295">
        <ele>369</ele>
        <time>2019-03-03T12:57:16Z</time>
      </trkpt>
      <trkpt lat="43.54713" lon="2.96292">
        <ele>370</ele>
        <time>2019-03-03T12:57:17Z</time>
      </trkpt>
      <trkpt lat="43.54714" lon="2.96289">
        <ele>370</ele>
        <time>2019-03-03T12:57:18Z</time>
      </trkpt>
      <trkpt lat="43.54714" lon="2.96286">
        <ele>370</ele>
        <time>2019-03-03T12:57:19Z</time>
      </trkpt>
      <trkpt lat="43.54715" lon="2.96283">
        <ele>370</ele>
        <time>2019-03-03T12:57:20Z</time>
      </trkpt>
      <trkpt lat="43.54717" lon="2.9628">
        <ele>370</ele>
        <time>2019-03-03T12:57:21Z</time>
      </trkpt>
      <trkpt lat="43.54717" lon="2.96277">
        <ele>370</ele>
        <time>2019-03-03T12:57:22Z</time>
      </trkpt>
      <trkpt lat="43.54719" lon="2.96274">
        <ele>370</ele>
        <time>2019-03-03T12:57:23Z</time>
      </trkpt>
      <trkpt lat="43.5472" lon="2.9627">
        <ele>370</ele>
        <time>2019-03-03T12:57:24Z</time>
      </trkpt>
      <trkpt lat="43.54721" lon="2.96267">
        <ele>371</ele>
        <time>2019-03-03T12:57:25Z</time>
      </trkpt>
      <trkpt lat="43.54723" lon="2.96264">
        <ele>371</ele>
        <time>2019-03-03T12:57:26Z</time>
      </trkpt>
      <trkpt lat="43.54724" lon="2.96261">
        <ele>371</ele>
        <time>2019-03-03T12:57:27Z</time>
      </trkpt>
      <trkpt lat="43.54725" lon="2.96258">
        <ele>371</ele>
        <time>2019-03-03T12:57:28Z</time>
      </trkpt>
      <trkpt lat="43.54726" lon="2.96255">
        <ele>371</ele>
        <time>2019-03-03T12:57:29Z</time>
      </trkpt>
      <trkpt lat="43.54728" lon="2.96253">
        <ele>371</ele>
        <time>2019-03-03T12:57:30Z</time>
      </trkpt>
      <trkpt lat="43.54729" lon="2.9625">
        <ele>372</ele>
        <time>2019-03-03T12:57:31Z</time>
      </trkpt>
      <trkpt lat="43.5473" lon="2.96247">
        <ele>372</ele>
        <time>2019-03-03T12:57:32Z</time>
      </trkpt>
      <trkpt lat="43.54732" lon="2.96244">
        <ele>372</ele>
        <time>2019-03-03T12:57:33Z</time>
      </trkpt>
      <trkpt lat="43.54733" lon="2.96241">
        <ele>372</ele>
        <time>2019-03-03T12:57:34Z</time>
      </trkpt>
      <trkpt lat="43.54735" lon="2.96238">
        <ele>372</ele>
        <time>2019-03-03T12:57:35Z</time>
      </trkpt>
      <trkpt lat="43.54736" lon="2.96235">
        <ele>372</ele>
        <time>2019-03-03T12:57:36Z</time>
      </trkpt>
      <trkpt lat="43.54737" lon="2.96232">
        <ele>372</ele>
        <time>2019-03-03T12:57:37Z</time>
      </trkpt>
      <trkpt lat="43.54739" lon="2.96229">
        <ele>372</ele>
        <time>2019-03-03T12:57:38Z</time>
      </trkpt>
      <trkpt lat="43.5474" lon="2.96226">
        <ele>372</ele>
        <time>2019-03-03T12:57:39Z</time>
      </trkpt>
      <trkpt lat="43.54742" lon="2.96223">
        <ele>372</ele>
        <time>2019-03-03T12:57:40Z</time>
      </trkpt>
      <trkpt lat="43.54743" lon="2.9622">
        <ele>373</ele>
        <time>2019-03-03T12:57:41Z</time>
      </trkpt>
      <trkpt lat="43.54745" lon="2.96217">
        <ele>373</ele>
        <time>2019-03-03T12:57:42Z</time>
      </trkpt>
      <trkpt lat="43.54746" lon="2.96214">
        <ele>373</ele>
        <time>2019-03-03T12:57:43Z</time>
      </trkpt>
      <trkpt lat="43.54747" lon="2.96211">
        <ele>373</ele>
        <time>2019-03-03T12:57:44Z</time>
      </trkpt>
      <trkpt lat="43.54749" lon="2.96208">
        <ele>373</ele>
        <time>2019-03-03T12:57:45Z</time>
      </trkpt>
      <trkpt lat="43.5475" lon="2.96205">
        <ele>373</ele>
        <time>2019-03-03T12:57:46Z</time>
      </trkpt>
      <trkpt lat="43.54751" lon="2.96202">
        <ele>373</ele>
        <time>2019-03-03T12:57:47Z</time>
      </trkpt>
      <trkpt lat="43.54753" lon="2.96199">
        <ele>374</ele>
        <time>2019-03-03T12:57:48Z</time>
      </trkpt>
      <trkpt lat="43.54755" lon="2.96196">
        <ele>374</ele>
        <time>2019-03-03T12:57:49Z</time>
      </trkpt>
      <trkpt lat="43.54756" lon="2.96193">
        <ele>374</ele>
        <time>2019-03-03T12:57:50Z</time>
      </trkpt>
      <trkpt lat="43.54758" lon="2.96191">
        <ele>374</ele>
        <time>2019-03-03T12:57:51Z</time>
      </trkpt>
      <trkpt lat="43.54759" lon="2.96188">
        <ele>374</ele>
        <time>2019-03-03T12:57:52Z</time>
      </trkpt>
      <trkpt lat="43.5476" lon="2.96185">
        <ele>374</ele>
        <time>2019-03-03T12:57:53Z</time>
      </trkpt>
      <trkpt lat="43.54761" lon="2.96183">
        <ele>374</ele>
        <time>2019-03-03T12:57:54Z</time>
      </trkpt>
      <trkpt lat="43.54762" lon="2.96181">
        <ele>375</ele>
        <time>2019-03-03T12:57:55Z</time>
      </trkpt>
      <trkpt lat="43.54763" lon="2.96179">
        <ele>375</ele>
        <time>2019-03-03T12:57:56Z</time>
      </trkpt>
      <trkpt lat="43.54765" lon="2.96178">
        <ele>375</ele>
        <time>2019-03-03T12:57:57Z</time>
      </trkpt>
      <trkpt lat="43.54766" lon="2.96175">
        <ele>375</ele>
        <time>2019-03-03T12:57:58Z</time>
      </trkpt>
      <trkpt lat="43.54767" lon="2.96173">
        <ele>375</ele>
        <time>2019-03-03T12:57:59Z</time>
      </trkpt>
      <trkpt lat="43.54769" lon="2.96171">
        <ele>375</ele>
        <time>2019-03-03T12:58:00Z</time>
      </trkpt>
      <trkpt lat="43.5477" lon="2.96169">
        <ele>376</ele>
        <time>2019-03-03T12:58:01Z</time>
      </trkpt>
      <trkpt lat="43.54772" lon="2.96166">
        <ele>376</ele>
        <time>2019-03-03T12:58:02Z</time>
      </trkpt>
      <trkpt lat="43.54773" lon="2.96164">
        <ele>376</ele>
        <time>2019-03-03T12:58:03Z</time>
      </trkpt>
      <trkpt lat="43.54775" lon="2.96162">
        <ele>376</ele>
        <time>2019-03-03T12:58:04Z</time>
      </trkpt>
      <trkpt lat="43.54777" lon="2.96159">
        <ele>376</ele>
        <time>2019-03-03T12:58:05Z</time>
      </trkpt>
      <trkpt lat="43.54778" lon="2.96157">
        <ele>376</ele>
        <time>2019-03-03T12:58:06Z</time>
      </trkpt>
      <trkpt lat="43.5478" lon="2.96155">
        <ele>376</ele>
        <time>2019-03-03T12:58:07Z</time>
      </trkpt>
      <trkpt lat="43.54782" lon="2.96152">
        <ele>377</ele>
        <time>2019-03-03T12:58:08Z</time>
      </trkpt>
      <trkpt lat="43.54783" lon="2.9615">
        <ele>377</ele>
        <time>2019-03-03T12:58:09Z</time>
      </trkpt>
      <trkpt lat="43.54785" lon="2.96148">
        <ele>377</ele>
        <time>2019-03-03T12:58:10Z</time>
      </trkpt>
      <trkpt lat="43.54786" lon="2.96146">
        <ele>377</ele>
        <time>2019-03-03T12:58:11Z</time>
      </trkpt>
      <trkpt lat="43.54788" lon="2.96144">
        <ele>377</ele>
        <time>2019-03-03T12:58:12Z</time>
      </trkpt>
      <trkpt lat="43.5479" lon="2.96142">
        <ele>377</ele>
        <time>2019-03-03T12:58:13Z</time>
      </trkpt>
      <trkpt lat="43.54791" lon="2.9614">
        <ele>378</ele>
        <time>2019-03-03T12:58:14Z</time>
      </trkpt>
      <trkpt lat="43.54793" lon="2.96137">
        <ele>378</ele>
        <time>2019-03-03T12:58:15Z</time>
      </trkpt>
      <trkpt lat="43.54795" lon="2.96135">
        <ele>378</ele>
        <time>2019-03-03T12:58:16Z</time>
      </trkpt>
      <trkpt lat="43.54796" lon="2.96133">
        <ele>378</ele>
        <time>2019-03-03T12:58:17Z</time>
      </trkpt>
      <trkpt lat="43.54798" lon="2.96131">
        <ele>378</ele>
        <time>2019-03-03T12:58:18Z</time>
      </trkpt>
      <trkpt lat="43.548" lon="2.96129">
        <ele>379</ele>
        <time>2019-03-03T12:58:19Z</time>
      </trkpt>
      <trkpt lat="43.54802" lon="2.96127">
        <ele>379</ele>
        <time>2019-03-03T12:58:20Z</time>
      </trkpt>
      <trkpt lat="43.54804" lon="2.96124">
        <ele>379</ele>
        <time>2019-03-03T12:58:21Z</time>
      </trkpt>
      <trkpt lat="43.54805" lon="2.96122">
        <ele>379</ele>
        <time>2019-03-03T12:58:22Z</time>
      </trkpt>
      <trkpt lat="43.54807" lon="2.9612">
        <ele>379</ele>
        <time>2019-03-03T12:58:23Z</time>
      </trkpt>
      <trkpt lat="43.54809" lon="2.96118">
        <ele>380</ele>
        <time>2019-03-03T12:58:24Z</time>
      </trkpt>
      <trkpt lat="43.54812" lon="2.96116">
        <ele>380</ele>
        <time>2019-03-03T12:58:25Z</time>
      </trkpt>
      <trkpt lat="43.54814" lon="2.96115">
        <ele>380</ele>
        <time>2019-03-03T12:58:26Z</time>
      </trkpt>
      <trkpt lat="43.54816" lon="2.96113">
        <ele>380</ele>
        <time>2019-03-03T12:58:27Z</time>
      </trkpt>
      <trkpt lat="43.54818" lon="2.96111">
        <ele>381</ele>
        <time>2019-03-03T12:58:28Z</time>
      </trkpt>
      <trkpt lat="43.5482" lon="2.96109">
        <ele>381</ele>
        <time>2019-03-03T12:58:29Z</time>
      </trkpt>
      <trkpt lat="43.54821" lon="2.96106">
        <ele>381</ele>
        <time>2019-03-03T12:58:30Z</time>
      </trkpt>
      <trkpt lat="43.54823" lon="2.96104">
        <ele>381</ele>
        <time>2019-03-03T12:58:31Z</time>
      </trkpt>
      <trkpt lat="43.54825" lon="2.96102">
        <ele>381</ele>
        <time>2019-03-03T12:58:32Z</time>
      </trkpt>
      <trkpt lat="43.54827" lon="2.96101">
        <ele>382</ele>
        <time>2019-03-03T12:58:33Z</time>
      </trkpt>
      <trkpt lat="43.54829" lon="2.96099">
        <ele>382</ele>
        <time>2019-03-03T12:58:34Z</time>
      </trkpt>
      <trkpt lat="43.54831" lon="2.96097">
        <ele>382</ele>
        <time>2019-03-03T12:58:35Z</time>
      </trkpt>
      <trkpt lat="43.54833" lon="2.96095">
        <ele>382</ele>
        <time>2019-03-03T12:58:36Z</time>
      </trkpt>
      <trkpt lat="43.54835" lon="2.96094">
        <ele>382</ele>
        <time>2019-03-03T12:58:37Z</time>
      </trkpt>
      <trkpt lat="43.54837" lon="2.96092">
        <ele>383</ele>
        <time>2019-03-03T12:58:38Z</time>
      </trkpt>
      <trkpt lat="43.54839" lon="2.9609">
        <ele>383</ele>
        <time>2019-03-03T12:58:39Z</time>
      </trkpt>
      <trkpt lat="43.54841" lon="2.96088">
        <ele>383</ele>
        <time>2019-03-03T12:58:40Z</time>
      </trkpt>
      <trkpt lat="43.54843" lon="2.96086">
        <ele>383</ele>
        <time>2019-03-03T12:58:41Z</time>
      </trkpt>
      <trkpt lat="43.54845" lon="2.96084">
        <ele>383</ele>
        <time>2019-03-03T12:58:42Z</time>
      </trkpt>
      <trkpt lat="43.54846" lon="2.96082">
        <ele>383</ele>
        <time>2019-03-03T12:58:43Z</time>
      </trkpt>
      <trkpt lat="43.54848" lon="2.9608">
        <ele>384</ele>
        <time>2019-03-03T12:58:44Z</time>
      </trkpt>
      <trkpt lat="43.5485" lon="2.96078">
        <ele>384</ele>
        <time>2019-03-03T12:58:45Z</time>
      </trkpt>
      <trkpt lat="43.54852" lon="2.96076">
        <ele>384</ele>
        <time>2019-03-03T12:58:46Z</time>
      </trkpt>
      <trkpt lat="43.54854" lon="2.96073">
        <ele>384</ele>
        <time>2019-03-03T12:58:47Z</time>
      </trkpt>
      <trkpt lat="43.54856" lon="2.96071">
        <ele>384</ele>
        <time>2019-03-03T12:58:48Z</time>
      </trkpt>
      <trkpt lat="43.54858" lon="2.96069">
        <ele>385</ele>
        <time>2019-03-03T12:58:49Z</time>
      </trkpt>
      <trkpt lat="43.5486" lon="2.96067">
        <ele>385</ele>
        <time>2019-03-03T12:58:50Z</time>
      </trkpt>
      <trkpt lat="43.54861" lon="2.96065">
        <ele>385</ele>
        <time>2019-03-03T12:58:51Z</time>
      </trkpt>
      <trkpt lat="43.54863" lon="2.96063">
        <ele>385</ele>
        <time>2019-03-03T12:58:52Z</time>
      </trkpt>
      <trkpt lat="43.54865" lon="2.9606">
        <ele>385</ele>
        <time>2019-03-03T12:58:53Z</time>
      </trkpt>
      <trkpt lat="43.54867" lon="2.96058">
        <ele>386</ele>
        <time>2019-03-03T12:58:54Z</time>
      </trkpt>
      <trkpt lat="43.54869" lon="2.96056">
        <ele>386</ele>
        <time>2019-03-03T12:58:55Z</time>
      </trkpt>
      <trkpt lat="43.5487" lon="2.96054">
        <ele>386</ele>
        <time>2019-03-03T12:58:56Z</time>
      </trkpt>
      <trkpt lat="43.54872" lon="2.96052">
        <ele>386</ele>
        <time>2019-03-03T12:58:57Z</time>
      </trkpt>
      <trkpt lat="43.54873" lon="2.96049">
        <ele>386</ele>
        <time>2019-03-03T12:58:58Z</time>
      </trkpt>
      <trkpt lat="43.54875" lon="2.96047">
        <ele>386</ele>
        <time>2019-03-03T12:58:59Z</time>
      </trkpt>
      <trkpt lat="43.54876" lon="2.96045">
        <ele>387</ele>
        <time>2019-03-03T12:59:00Z</time>
      </trkpt>
      <trkpt lat="43.54878" lon="2.96042">
        <ele>387</ele>
        <time>2019-03-03T12:59:01Z</time>
      </trkpt>
      <trkpt lat="43.54879" lon="2.9604">
        <ele>387</ele>
        <time>2019-03-03T12:59:02Z</time>
      </trkpt>
      <trkpt lat="43.54879" lon="2.96037">
        <ele>387</ele>
        <time>2019-03-03T12:59:03Z</time>
      </trkpt>
      <trkpt lat="43.5488" lon="2.96034">
        <ele>387</ele>
        <time>2019-03-03T12:59:04Z</time>
      </trkpt>
      <trkpt lat="43.54879" lon="2.96031">
        <ele>388</ele>
        <time>2019-03-03T12:59:05Z</time>
      </trkpt>
      <trkpt lat="43.54878" lon="2.96029">
        <ele>388</ele>
        <time>2019-03-03T12:59:06Z</time>
      </trkpt>
      <trkpt lat="43.54877" lon="2.96027">
        <ele>388</ele>
        <time>2019-03-03T12:59:07Z</time>
      </trkpt>
      <trkpt lat="43.54875" lon="2.96026">
        <ele>388</ele>
        <time>2019-03-03T12:59:08Z</time>
      </trkpt>
      <trkpt lat="43.54873" lon="2.96025">
        <ele>388</ele>
        <time>2019-03-03T12:59:09Z</time>
      </trkpt>
      <trkpt lat="43.54871" lon="2.96024">
        <ele>388</ele>
        <time>2019-03-03T12:59:10Z</time>
      </trkpt>
      <trkpt lat="43.54869" lon="2.96023">
        <ele>389</ele>
        <time>2019-03-03T12:59:11Z</time>
      </trkpt>
      <trkpt lat="43.54867" lon="2.96023">
        <ele>389</ele>
        <time>2019-03-03T12:59:12Z</time>
      </trkpt>
      <trkpt lat="43.54864" lon="2.96022">
        <ele>389</ele>
        <time>2019-03-03T12:59:13Z</time>
      </trkpt>
      <trkpt lat="43.54862" lon="2.96021">
        <ele>389</ele>
        <time>2019-03-03T12:59:14Z</time>
      </trkpt>
      <trkpt lat="43.5486" lon="2.9602">
        <ele>389</ele>
        <time>2019-03-03T12:59:15Z</time>
      </trkpt>
      <trkpt lat="43.54858" lon="2.96019">
        <ele>389</ele>
        <time>2019-03-03T12:59:16Z</time>
      </trkpt>
      <trkpt lat="43.54856" lon="2.96019">
        <ele>389</ele>
        <time>2019-03-03T12:59:17Z</time>
      </trkpt>
      <trkpt lat="43.54854" lon="2.96019">
        <ele>390</ele>
        <time>2019-03-03T12:59:18Z</time>
      </trkpt>
      <trkpt lat="43.54852" lon="2.96019">
        <ele>390</ele>
        <time>2019-03-03T12:59:19Z</time>
      </trkpt>
      <trkpt lat="43.54849" lon="2.96018">
        <ele>390</ele>
        <time>2019-03-03T12:59:20Z</time>
      </trkpt>
      <trkpt lat="43.54847" lon="2.96018">
        <ele>390</ele>
        <time>2019-03-03T12:59:21Z</time>
      </trkpt>
      <trkpt lat="43.54845" lon="2.96017">
        <ele>390</ele>
        <time>2019-03-03T12:59:22Z</time>
      </trkpt>
      <trkpt lat="43.54842" lon="2.96016">
        <ele>390</ele>
        <time>2019-03-03T12:59:23Z</time>
      </trkpt>
      <trkpt lat="43.5484" lon="2.96015">
        <ele>390</ele>
        <time>2019-03-03T12:59:24Z</time>
      </trkpt>
      <trkpt lat="43.54838" lon="2.96014">
        <ele>390</ele>
        <time>2019-03-03T12:59:25Z</time>
      </trkpt>
      <trkpt lat="43.54836" lon="2.96013">
        <ele>391</ele>
        <time>2019-03-03T12:59:26Z</time>
      </trkpt>
      <trkpt lat="43.54834" lon="2.96011">
        <ele>391</ele>
        <time>2019-03-03T12:59:27Z</time>
      </trkpt>
      <trkpt lat="43.54832" lon="2.9601">
        <ele>391</ele>
        <time>2019-03-03T12:59:28Z</time>
      </trkpt>
      <trkpt lat="43.54829" lon="2.96009">
        <ele>392</ele>
        <time>2019-03-03T12:59:29Z</time>
      </trkpt>
      <trkpt lat="43.54827" lon="2.96007">
        <ele>392</ele>
        <time>2019-03-03T12:59:30Z</time>
      </trkpt>
      <trkpt lat="43.54825" lon="2.96007">
        <ele>392</ele>
        <time>2019-03-03T12:59:31Z</time>
      </trkpt>
      <trkpt lat="43.54822" lon="2.96007">
        <ele>392</ele>
        <time>2019-03-03T12:59:32Z</time>
      </trkpt>
      <trkpt lat="43.5482" lon="2.96007">
        <ele>393</ele>
        <time>2019-03-03T12:59:33Z</time>
      </trkpt>
      <trkpt lat="43.54817" lon="2.96007">
        <ele>393</ele>
        <time>2019-03-03T12:59:34Z</time>
      </trkpt>
      <trkpt lat="43.54815" lon="2.96007">
        <ele>393</ele>
        <time>2019-03-03T12:59:35Z</time>
      </trkpt>
      <trkpt lat="43.54812" lon="2.96007">
        <ele>393</ele>
        <time>2019-03-03T12:59:36Z</time>
      </trkpt>
      <trkpt lat="43.5481" lon="2.96007">
        <ele>393</ele>
        <time>2019-03-03T12:59:37Z</time>
      </trkpt>
      <trkpt lat="43.54808" lon="2.96007">
        <ele>393</ele>
        <time>2019-03-03T12:59:38Z</time>
      </trkpt>
      <trkpt lat="43.54805" lon="2.96007">
        <ele>394</ele>
        <time>2019-03-03T12:59:39Z</time>
      </trkpt>
      <trkpt lat="43.54803" lon="2.96006">
        <ele>394</ele>
        <time>2019-03-03T12:59:40Z</time>
      </trkpt>
      <trkpt lat="43.548" lon="2.96006">
        <ele>394</ele>
        <time>2019-03-03T12:59:41Z</time>
      </trkpt>
      <trkpt lat="43.54798" lon="2.96005">
        <ele>394</ele>
        <time>2019-03-03T12:59:42Z</time>
      </trkpt>
      <trkpt lat="43.54795" lon="2.96003">
        <ele>394</ele>
        <time>2019-03-03T12:59:43Z</time>
      </trkpt>
      <trkpt lat="43.54792" lon="2.96002">
        <ele>394</ele>
        <time>2019-03-03T12:59:44Z</time>
      </trkpt>
      <trkpt lat="43.5479" lon="2.96001">
        <ele>394</ele>
        <time>2019-03-03T12:59:45Z</time>
      </trkpt>
      <trkpt lat="43.54787" lon="2.95999">
        <ele>394</ele>
        <time>2019-03-03T12:59:46Z</time>
      </trkpt>
      <trkpt lat="43.54785" lon="2.95998">
        <ele>394</ele>
        <time>2019-03-03T12:59:47Z</time>
      </trkpt>
      <trkpt lat="43.54782" lon="2.95997">
        <ele>395</ele>
        <time>2019-03-03T12:59:48Z</time>
      </trkpt>
      <trkpt lat="43.5478" lon="2.95995">
        <ele>394</ele>
        <time>2019-03-03T12:59:49Z</time>
      </trkpt>
      <trkpt lat="43.54777" lon="2.95994">
        <ele>394</ele>
        <time>2019-03-03T12:59:50Z</time>
      </trkpt>
      <trkpt lat="43.54774" lon="2.95993">
        <ele>395</ele>
        <time>2019-03-03T12:59:51Z</time>
      </trkpt>
      <trkpt lat="43.54771" lon="2.95993">
        <ele>395</ele>
        <time>2019-03-03T12:59:52Z</time>
      </trkpt>
      <trkpt lat="43.54769" lon="2.95993">
        <ele>395</ele>
        <time>2019-03-03T12:59:53Z</time>
      </trkpt>
      <trkpt lat="43.54766" lon="2.95993">
        <ele>395</ele>
        <time>2019-03-03T12:59:54Z</time>
      </trkpt>
      <trkpt lat="43.54764" lon="2.95995">
        <ele>395</ele>
        <time>2019-03-03T12:59:55Z</time>
      </trkpt>
      <trkpt lat="43.54761" lon="2.95996">
        <ele>395</ele>
        <time>2019-03-03T12:59:56Z</time>
      </trkpt>
      <trkpt lat="43.54758" lon="2.95997">
        <ele>395</ele>
        <time>2019-03-03T12:59:57Z</time>
      </trkpt>
      <trkpt lat="43.54755" lon="2.95999">
        <ele>395</ele>
        <time>2019-03-03T12:59:58Z</time>
      </trkpt>
      <trkpt lat="43.54752" lon="2.96">
        <ele>395</ele>
        <time>2019-03-03T12:59:59Z</time>
      </trkpt>
      <trkpt lat="43.54749" lon="2.96001">
        <ele>395</ele>
        <time>2019-03-03T13:00:00Z</time>
      </trkpt>
      <trkpt lat="43.54746" lon="2.96003">
        <ele>395</ele>
        <time>2019-03-03T13:00:01Z</time>
      </trkpt>
      <trkpt lat="43.54743" lon="2.96004">
        <ele>395</ele>
        <time>2019-03-03T13:00:02Z</time>
      </trkpt>
      <trkpt lat="43.54741" lon="2.96006">
        <ele>395</ele>
        <time>2019-03-03T13:00:03Z</time>
      </trkpt>
      <trkpt lat="43.54738" lon="2.96007">
        <ele>395</ele>
        <time>2019-03-03T13:00:04Z</time>
      </trkpt>
      <trkpt lat="43.54735" lon="2.96008">
        <ele>395</ele>
        <time>2019-03-03T13:00:05Z</time>
      </trkpt>
      <trkpt lat="43.54732" lon="2.9601">
        <ele>395</ele>
        <time>2019-03-03T13:00:06Z</time>
      </trkpt>
      <trkpt lat="43.54729" lon="2.96011">
        <ele>395</ele>
        <time>2019-03-03T13:00:07Z</time>
      </trkpt>
      <trkpt lat="43.54726" lon="2.96013">
        <ele>395</ele>
        <time>2019-03-03T13:00:08Z</time>
      </trkpt>
      <trkpt lat="43.54723" lon="2.96014">
        <ele>395</ele>
        <time>2019-03-03T13:00:09Z</time>
      </trkpt>
      <trkpt lat="43.5472" lon="2.96015">
        <ele>395</ele>
        <time>2019-03-03T13:00:10Z</time>
      </trkpt>
      <trkpt lat="43.54717" lon="2.96016">
        <ele>395</ele>
        <time>2019-03-03T13:00:11Z</time>
      </trkpt>
      <trkpt lat="43.54714" lon="2.96018">
        <ele>395</ele>
        <time>2019-03-03T13:00:12Z</time>
      </trkpt>
      <trkpt lat="43.54711" lon="2.96019">
        <ele>396</ele>
        <time>2019-03-03T13:00:13Z</time>
      </trkpt>
      <trkpt lat="43.54708" lon="2.9602">
        <ele>396</ele>
        <time>2019-03-03T13:00:14Z</time>
      </trkpt>
      <trkpt lat="43.54705" lon="2.96021">
        <ele>396</ele>
        <time>2019-03-03T13:00:15Z</time>
      </trkpt>
      <trkpt lat="43.54703" lon="2.96022">
        <ele>396</ele>
        <time>2019-03-03T13:00:16Z</time>
      </trkpt>
      <trkpt lat="43.547" lon="2.96023">
        <ele>396</ele>
        <time>2019-03-03T13:00:17Z</time>
      </trkpt>
      <trkpt lat="43.54697" lon="2.96024">
        <ele>396</ele>
        <time>2019-03-03T13:00:18Z</time>
      </trkpt>
      <trkpt lat="43.54694" lon="2.96026">
        <ele>396</ele>
        <time>2019-03-03T13:00:19Z</time>
      </trkpt>
      <trkpt lat="43.54691" lon="2.96027">
        <ele>396</ele>
        <time>2019-03-03T13:00:20Z</time>
      </trkpt>
      <trkpt lat="43.54688" lon="2.96029">
        <ele>396</ele>
        <time>2019-03-03T13:00:21Z</time>
      </trkpt>
      <trkpt lat="43.54686" lon="2.9603">
        <ele>396</ele>
        <time>2019-03-03T13:00:22Z</time>
      </trkpt>
      <trkpt lat="43.54683" lon="2.96032">
        <ele>397</ele>
        <time>2019-03-03T13:00:23Z</time>
      </trkpt>
      <trkpt lat="43.54681" lon="2.96034">
        <ele>397</ele>
        <time>2019-03-03T13:00:24Z</time>
      </trkpt>
      <trkpt lat="43.54678" lon="2.96035">
        <ele>397</ele>
        <time>2019-03-03T13:00:25Z</time>
      </trkpt>
      <trkpt lat="43.54676" lon="2.96037">
        <ele>397</ele>
        <time>2019-03-03T13:00:26Z</time>
      </trkpt>
      <trkpt lat="43.54674" lon="2.96039">
        <ele>397</ele>
        <time>2019-03-03T13:00:27Z</time>
      </trkpt>
      <trkpt lat="43.54671" lon="2.96041">
        <ele>397</ele>
        <time>2019-03-03T13:00:28Z</time>
      </trkpt>
      <trkpt lat="43.54669" lon="2.96042">
        <ele>397</ele>
        <time>2019-03-03T13:00:29Z</time>
      </trkpt>
      <trkpt lat="43.54666" lon="2.96044">
        <ele>397</ele>
        <time>2019-03-03T13:00:30Z</time>
      </trkpt>
      <trkpt lat="43.54663" lon="2.96045">
        <ele>398</ele>
        <time>2019-03-03T13:00:31Z</time>
      </trkpt>
      <trkpt lat="43.54661" lon="2.96046">
        <ele>398</ele>
        <time>2019-03-03T13:00:32Z</time>
      </trkpt>
      <trkpt lat="43.54658" lon="2.96045">
        <ele>398</ele>
        <time>2019-03-03T13:00:33Z</time>
      </trkpt>
      <trkpt lat="43.54655" lon="2.96045">
        <ele>399</ele>
        <time>2019-03-03T13:00:34Z</time>
      </trkpt>
      <trkpt lat="43.54652" lon="2.96045">
        <ele>399</ele>
        <time>2019-03-03T13:00:35Z</time>
      </trkpt>
      <trkpt lat="43.5465" lon="2.96044">
        <ele>399</ele>
        <time>2019-03-03T13:00:36Z</time>
      </trkpt>
      <trkpt lat="43.54647" lon="2.96043">
        <ele>399</ele>
        <time>2019-03-03T13:00:37Z</time>
      </trkpt>
      <trkpt lat="43.54645" lon="2.96041">
        <ele>400</ele>
        <time>2019-03-03T13:00:38Z</time>
      </trkpt>
      <trkpt lat="43.54642" lon="2.9604">
        <ele>400</ele>
        <time>2019-03-03T13:00:39Z</time>
      </trkpt>
      <trkpt lat="43.5464" lon="2.96038">
        <ele>400</ele>
        <time>2019-03-03T13:00:40Z</time>
      </trkpt>
      <trkpt lat="43.54637" lon="2.96036">
        <ele>400</ele>
        <time>2019-03-03T13:00:41Z</time>
      </trkpt>
      <trkpt lat="43.54635" lon="2.96034">
        <ele>400</ele>
        <time>2019-03-03T13:00:42Z</time>
      </trkpt>
      <trkpt lat="43.54632" lon="2.96033">
        <ele>400</ele>
        <time>2019-03-03T13:00:43Z</time>
      </trkpt>
      <trkpt lat="43.54629" lon="2.96031">
        <ele>400</ele>
        <time>2019-03-03T13:00:44Z</time>
      </trkpt>
      <trkpt lat="43.54627" lon="2.9603">
        <ele>401</ele>
        <time>2019-03-03T13:00:45Z</time>
      </trkpt>
      <trkpt lat="43.54624" lon="2.96028">
        <ele>401</ele>
        <time>2019-03-03T13:00:46Z</time>
      </trkpt>
      <trkpt lat="43.54622" lon="2.96026">
        <ele>401</ele>
        <time>2019-03-03T13:00:47Z</time>
      </trkpt>
      <trkpt lat="43.54619" lon="2.96024">
        <ele>401</ele>
        <time>2019-03-03T13:00:48Z</time>
      </trkpt>
      <trkpt lat="43.54617" lon="2.96022">
        <ele>401</ele>
        <time>2019-03-03T13:00:49Z</time>
      </trkpt>
      <trkpt lat="43.54614" lon="2.9602">
        <ele>401</ele>
        <time>2019-03-03T13:00:50Z</time>
      </trkpt>
      <trkpt lat="43.54612" lon="2.96018">
        <ele>401</ele>
        <time>2019-03-03T13:00:51Z</time>
      </trkpt>
      <trkpt lat="43.5461" lon="2.96016">
        <ele>401</ele>
        <time>2019-03-03T13:00:52Z</time>
      </trkpt>
      <trkpt lat="43.54608" lon="2.96014">
        <ele>401</ele>
        <time>2019-03-03T13:00:53Z</time>
      </trkpt>
      <trkpt lat="43.54606" lon="2.96012">
        <ele>401</ele>
        <time>2019-03-03T13:00:54Z</time>
      </trkpt>
      <trkpt lat="43.54603" lon="2.9601">
        <ele>402</ele>
        <time>2019-03-03T13:00:55Z</time>
      </trkpt>
      <trkpt lat="43.54601" lon="2.96009">
        <ele>402</ele>
        <time>2019-03-03T13:00:56Z</time>
      </trkpt>
      <trkpt lat="43.54598" lon="2.96007">
        <ele>402</ele>
        <time>2019-03-03T13:00:57Z</time>
      </trkpt>
      <trkpt lat="43.54596" lon="2.96006">
        <ele>402</ele>
        <time>2019-03-03T13:00:58Z</time>
      </trkpt>
      <trkpt lat="43.54593" lon="2.96004">
        <ele>402</ele>
        <time>2019-03-03T13:00:59Z</time>
      </trkpt>
      <trkpt lat="43.54591" lon="2.96004">
        <ele>402</ele>
        <time>2019-03-03T13:01:00Z</time>
      </trkpt>
      <trkpt lat="43.54588" lon="2.96003">
        <ele>402</ele>
        <time>2019-03-03T13:01:01Z</time>
      </trkpt>
      <trkpt lat="43.54585" lon="2.96002">
        <ele>402</ele>
        <time>2019-03-03T13:01:02Z</time>
      </trkpt>
      <trkpt lat="43.54583" lon="2.96002">
        <ele>402</ele>
        <time>2019-03-03T13:01:03Z</time>
      </trkpt>
      <trkpt lat="43.5458" lon="2.96002">
        <ele>403</ele>
        <time>2019-03-03T13:01:04Z</time>
      </trkpt>
      <trkpt lat="43.54577" lon="2.96002">
        <ele>403</ele>
        <time>2019-03-03T13:01:05Z</time>
      </trkpt>
      <trkpt lat="43.54574" lon="2.96002">
        <ele>403</ele>
        <time>2019-03-03T13:01:06Z</time>
      </trkpt>
      <trkpt lat="43.54571" lon="2.96002">
        <ele>403</ele>
        <time>2019-03-03T13:01:07Z</time>
      </trkpt>
      <trkpt lat="43.54569" lon="2.96003">
        <ele>403</ele>
        <time>2019-03-03T13:01:08Z</time>
      </trkpt>
      <trkpt lat="43.54566" lon="2.96004">
        <ele>403</ele>
        <time>2019-03-03T13:01:09Z</time>
      </trkpt>
      <trkpt lat="43.54563" lon="2.96005">
        <ele>403</ele>
        <time>2019-03-03T13:01:10Z</time>
      </trkpt>
      <trkpt lat="43.54561" lon="2.96006">
        <ele>403</ele>
        <time>2019-03-03T13:01:11Z</time>
      </trkpt>
      <trkpt lat="43.54558" lon="2.96007">
        <ele>403</ele>
        <time>2019-03-03T13:01:12Z</time>
      </trkpt>
      <trkpt lat="43.54555" lon="2.96008">
        <ele>404</ele>
        <time>2019-03-03T13:01:13Z</time>
      </trkpt>
      <trkpt lat="43.54553" lon="2.9601">
        <ele>404</ele>
        <time>2019-03-03T13:01:14Z</time>
      </trkpt>
      <trkpt lat="43.5455" lon="2.96011">
        <ele>404</ele>
        <time>2019-03-03T13:01:15Z</time>
      </trkpt>
      <trkpt lat="43.54548" lon="2.96012">
        <ele>404</ele>
        <time>2019-03-03T13:01:16Z</time>
      </trkpt>
      <trkpt lat="43.54545" lon="2.96013">
        <ele>404</ele>
        <time>2019-03-03T13:01:17Z</time>
      </trkpt>
      <trkpt lat="43.54542" lon="2.96013">
        <ele>405</ele>
        <time>2019-03-03T13:01:18Z</time>
      </trkpt>
      <trkpt lat="43.54539" lon="2.96014">
        <ele>405</ele>
        <time>2019-03-03T13:01:19Z</time>
      </trkpt>
      <trkpt lat="43.54536" lon="2.96014">
        <ele>405</ele>
        <time>2019-03-03T13:01:20Z</time>
      </trkpt>
      <trkpt lat="43.54533" lon="2.96013">
        <ele>406</ele>
        <time>2019-03-03T13:01:21Z</time>
      </trkpt>
      <trkpt lat="43.5453" lon="2.96011">
        <ele>406</ele>
        <time>2019-03-03T13:01:22Z</time>
      </trkpt>
      <trkpt lat="43.54528" lon="2.96009">
        <ele>406</ele>
        <time>2019-03-03T13:01:23Z</time>
      </trkpt>
      <trkpt lat="43.54525" lon="2.96007">
        <ele>406</ele>
        <time>2019-03-03T13:01:24Z</time>
      </trkpt>
      <trkpt lat="43.54523" lon="2.96005">
        <ele>406</ele>
        <time>2019-03-03T13:01:25Z</time>
      </trkpt>
      <trkpt lat="43.54521" lon="2.96003">
        <ele>406</ele>
        <time>2019-03-03T13:01:26Z</time>
      </trkpt>
      <trkpt lat="43.5452" lon="2.96001">
        <ele>406</ele>
        <time>2019-03-03T13:01:27Z</time>
      </trkpt>
      <trkpt lat="43.54518" lon="2.95998">
        <ele>406</ele>
        <time>2019-03-03T13:01:28Z</time>
      </trkpt>
      <trkpt lat="43.54516" lon="2.95996">
        <ele>407</ele>
        <time>2019-03-03T13:01:29Z</time>
      </trkpt>
      <trkpt lat="43.54515" lon="2.95993">
        <ele>407</ele>
        <time>2019-03-03T13:01:30Z</time>
      </trkpt>
      <trkpt lat="43.54513" lon="2.9599">
        <ele>407</ele>
        <time>2019-03-03T13:01:31Z</time>
      </trkpt>
      <trkpt lat="43.54512" lon="2.95987">
        <ele>407</ele>
        <time>2019-03-03T13:01:32Z</time>
      </trkpt>
      <trkpt lat="43.5451" lon="2.95984">
        <ele>407</ele>
        <time>2019-03-03T13:01:33Z</time>
      </trkpt>
      <trkpt lat="43.54509" lon="2.95981">
        <ele>407</ele>
        <time>2019-03-03T13:01:34Z</time>
      </trkpt>
      <trkpt lat="43.54507" lon="2.95977">
        <ele>408</ele>
        <time>2019-03-03T13:01:35Z</time>
      </trkpt>
      <trkpt lat="43.54505" lon="2.95974">
        <ele>408</ele>
        <time>2019-03-03T13:01:36Z</time>
      </trkpt>
      <trkpt lat="43.54504" lon="2.95971">
        <ele>408</ele>
        <time>2019-03-03T13:01:37Z</time>
      </trkpt>
      <trkpt lat="43.54502" lon="2.95968">
        <ele>408</ele>
        <time>2019-03-03T13:01:38Z</time>
      </trkpt>
      <trkpt lat="43.545" lon="2.95965">
        <ele>408</ele>
        <time>2019-03-03T13:01:39Z</time>
      </trkpt>
      <trkpt lat="43.54499" lon="2.95962">
        <ele>408</ele>
        <time>2019-03-03T13:01:40Z</time>
      </trkpt>
      <trkpt lat="43.54497" lon="2.9596">
        <ele>408</ele>
        <time>2019-03-03T13:01:41Z</time>
      </trkpt>
      <trkpt lat="43.54495" lon="2.95957">
        <ele>409</ele>
        <time>2019-03-03T13:01:42Z</time>
      </trkpt>
      <trkpt lat="43.54493" lon="2.95954">
        <ele>409</ele>
        <time>2019-03-03T13:01:43Z</time>
      </trkpt>
      <trkpt lat="43.54491" lon="2.95952">
        <ele>409</ele>
        <time>2019-03-03T13:01:44Z</time>
      </trkpt>
      <trkpt lat="43.54489" lon="2.95949">
        <ele>409</ele>
        <time>2019-03-03T13:01:45Z</time>
      </trkpt>
      <trkpt lat="43.54487" lon="2.95946">
        <ele>409</ele>
        <time>2019-03-03T13:01:46Z</time>
      </trkpt>
      <trkpt lat="43.54485" lon="2.95944">
        <ele>410</ele>
        <time>2019-03-03T13:01:47Z</time>
      </trkpt>
      <trkpt lat="43.54483" lon="2.95941">
        <ele>410</ele>
        <time>2019-03-03T13:01:48Z</time>
      </trkpt>
      <trkpt lat="43.54481" lon="2.95939">
        <ele>410</ele>
        <time>2019-03-03T13:01:49Z</time>
      </trkpt>
      <trkpt lat="43.54479" lon="2.95937">
        <ele>410</ele>
        <time>2019-03-03T13:01:50Z</time>
      </trkpt>
      <trkpt lat="43.54477" lon="2.95935">
        <ele>411</ele>
        <time>2019-03-03T13:01:51Z</time>
      </trkpt>
      <trkpt lat="43.54475" lon="2.95932">
        <ele>411</ele>
        <time>2019-03-03T13:01:52Z</time>
      </trkpt>
      <trkpt lat="43.54473" lon="2.9593">
        <ele>411</ele>
        <time>2019-03-03T13:01:53Z</time>
      </trkpt>
      <trkpt lat="43.54471" lon="2.95928">
        <ele>412</ele>
        <time>2019-03-03T13:01:54Z</time>
      </trkpt>
      <trkpt lat="43.54469" lon="2.95926">
        <ele>412</ele>
        <time>2019-03-03T13:01:55Z</time>
      </trkpt>
      <trkpt lat="43.54467" lon="2.95924">
        <ele>412</ele>
        <time>2019-03-03T13:01:56Z</time>
      </trkpt>
      <trkpt lat="43.54465" lon="2.95922">
        <ele>412</ele>
        <time>2019-03-03T13:01:57Z</time>
      </trkpt>
      <trkpt lat="43.54463" lon="2.9592">
        <ele>413</ele>
        <time>2019-03-03T13:01:58Z</time>
      </trkpt>
      <trkpt lat="43.5446" lon="2.95918">
        <ele>413</ele>
        <time>2019-03-03T13:01:59Z</time>
      </trkpt>
      <trkpt lat="43.54458" lon="2.95916">
        <ele>413</ele>
        <time>2019-03-03T13:02:00Z</time>
      </trkpt>
      <trkpt lat="43.54456" lon="2.95915">
        <ele>413</ele>
        <time>2019-03-03T13:02:01Z</time>
      </trkpt>
      <trkpt lat="43.54454" lon="2.95913">
        <ele>413</ele>
        <time>2019-03-03T13:02:02Z</time>
      </trkpt>
      <trkpt lat="43.54452" lon="2.95912">
        <ele>413</ele>
        <time>2019-03-03T13:02:03Z</time>
      </trkpt>
      <trkpt lat="43.5445" lon="2.95911">
        <ele>414</ele>
        <time>2019-03-03T13:02:04Z</time>
      </trkpt>
      <trkpt lat="43.54447" lon="2.95909">
        <ele>414</ele>
        <time>2019-03-03T13:02:05Z</time>
      </trkpt>
      <trkpt lat="43.54445" lon="2.95908">
        <ele>414</ele>
        <time>2019-03-03T13:02:06Z</time>
      </trkpt>
      <trkpt lat="43.54442" lon="2.95907">
        <ele>414</ele>
        <time>2019-03-03T13:02:07Z</time>
      </trkpt>
      <trkpt lat="43.5444" lon="2.95906">
        <ele>415</ele>
        <time>2019-03-03T13:02:08Z</time>
      </trkpt>
      <trkpt lat="43.54438" lon="2.95905">
        <ele>415</ele>
        <time>2019-03-03T13:02:09Z</time>
      </trkpt>
      <trkpt lat="43.54436" lon="2.95903">
        <ele>415</ele>
        <time>2019-03-03T13:02:10Z</time>
      </trkpt>
      <trkpt lat="43.54434" lon="2.95902">
        <ele>415</ele>
        <time>2019-03-03T13:02:11Z</time>
      </trkpt>
      <trkpt lat="43.54431" lon="2.95901">
        <ele>415</ele>
        <time>2019-03-03T13:02:12Z</time>
      </trkpt>
      <trkpt lat="43.54429" lon="2.959">
        <ele>416</ele>
        <time>2019-03-03T13:02:13Z</time>
      </trkpt>
      <trkpt lat="43.54427" lon="2.95898">
        <ele>416</ele>
        <time>2019-03-03T13:02:14Z</time>
      </trkpt>
      <trkpt lat="43.54425" lon="2.95897">
        <ele>416</ele>
        <time>2019-03-03T13:02:15Z</time>
      </trkpt>
      <trkpt lat="43.54423" lon="2.95896">
        <ele>416</ele>
        <time>2019-03-03T13:02:16Z</time>
      </trkpt>
      <trkpt lat="43.5442" lon="2.95894">
        <ele>417</ele>
        <time>2019-03-03T13:02:17Z</time>
      </trkpt>
      <trkpt lat="43.54418" lon="2.95894">
        <ele>417</ele>
        <time>2019-03-03T13:02:18Z</time>
      </trkpt>
      <trkpt lat="43.54416" lon="2.95893">
        <ele>417</ele>
        <time>2019-03-03T13:02:19Z</time>
      </trkpt>
      <trkpt lat="43.54414" lon="2.95892">
        <ele>417</ele>
        <time>2019-03-03T13:02:20Z</time>
      </trkpt>
      <trkpt lat="43.54411" lon="2.9589">
        <ele>418</ele>
        <time>2019-03-03T13:02:21Z</time>
      </trkpt>
      <trkpt lat="43.54409" lon="2.9589">
        <ele>418</ele>
        <time>2019-03-03T13:02:22Z</time>
      </trkpt>
      <trkpt lat="43.54406" lon="2.95889">
        <ele>418</ele>
        <time>2019-03-03T13:02:23Z</time>
      </trkpt>
      <trkpt lat="43.54404" lon="2.95888">
        <ele>418</ele>
        <time>2019-03-03T13:02:24Z</time>
      </trkpt>
      <trkpt lat="43.54401" lon="2.95888">
        <ele>419</ele>
        <time>2019-03-03T13:02:25Z</time>
      </trkpt>
      <trkpt lat="43.54399" lon="2.95887">
        <ele>419</ele>
        <time>2019-03-03T13:02:26Z</time>
      </trkpt>
      <trkpt lat="43.54397" lon="2.95886">
        <ele>419</ele>
        <time>2019-03-03T13:02:27Z</time>
      </trkpt>
      <trkpt lat="43.54394" lon="2.95885">
        <ele>419</ele>
        <time>2019-03-03T13:02:28Z</time>
      </trkpt>
      <trkpt lat="43.54392" lon="2.95885">
        <ele>420</ele>
        <time>2019-03-03T13:02:29Z</time>
      </trkpt>
      <trkpt lat="43.54389" lon="2.95884">
        <ele>420</ele>
        <time>2019-03-03T13:02:30Z</time>
      </trkpt>
      <trkpt lat="43.54387" lon="2.95884">
        <ele>420</ele>
        <time>2019-03-03T13:02:31Z</time>
      </trkpt>
      <trkpt lat="43.54385" lon="2.95883">
        <ele>420</ele>
        <time>2019-03-03T13:02:32Z</time>
      </trkpt>
      <trkpt lat="43.54383" lon="2.95882">
        <ele>421</ele>
        <time>2019-03-03T13:02:33Z</time>
      </trkpt>
      <trkpt lat="43.5438" lon="2.95882">
        <ele>421</ele>
        <time>2019-03-03T13:02:34Z</time>
      </trkpt>
      <trkpt lat="43.54378" lon="2.95881">
        <ele>421</ele>
        <time>2019-03-03T13:02:35Z</time>
      </trkpt>
      <trkpt lat="43.54375" lon="2.9588">
        <ele>421</ele>
        <time>2019-03-03T13:02:36Z</time>
      </trkpt>
      <trkpt lat="43.54373" lon="2.9588">
        <ele>421</ele>
        <time>2019-03-03T13:02:37Z</time>
      </trkpt>
      <trkpt lat="43.5437" lon="2.95878">
        <ele>422</ele>
        <time>2019-03-03T13:02:38Z</time>
      </trkpt>
      <trkpt lat="43.54368" lon="2.95877">
        <ele>422</ele>
        <time>2019-03-03T13:02:39Z</time>
      </trkpt>
      <trkpt lat="43.54365" lon="2.95876">
        <ele>422</ele>
        <time>2019-03-03T13:02:40Z</time>
      </trkpt>
      <trkpt lat="43.54363" lon="2.95876">
        <ele>422</ele>
        <time>2019-03-03T13:02:41Z</time>
      </trkpt>
      <trkpt lat="43.5436" lon="2.95874">
        <ele>422</ele>
        <time>2019-03-03T13:02:42Z</time>
      </trkpt>
      <trkpt lat="43.54358" lon="2.95873">
        <ele>423</ele>
        <time>2019-03-03T13:02:43Z</time>
      </trkpt>
      <trkpt lat="43.54356" lon="2.95873">
        <ele>423</ele>
        <time>2019-03-03T13:02:44Z</time>
      </trkpt>
      <trkpt lat="43.54353" lon="2.95872">
        <ele>423</ele>
        <time>2019-03-03T13:02:45Z</time>
      </trkpt>
      <trkpt lat="43.54351" lon="2.95871">
        <ele>423</ele>
        <time>2019-03-03T13:02:46Z</time>
      </trkpt>
      <trkpt lat="43.54349" lon="2.95871">
        <ele>424</ele>
        <time>2019-03-03T13:02:47Z</time>
      </trkpt>
      <trkpt lat="43.54346" lon="2.9587">
        <ele>424</ele>
        <time>2019-03-03T13:02:48Z</time>
      </trkpt>
      <trkpt lat="43.54344" lon="2.9587">
        <ele>424</ele>
        <time>2019-03-03T13:02:49Z</time>
      </trkpt>
      <trkpt lat="43.54342" lon="2.9587">
        <ele>424</ele>
        <time>2019-03-03T13:02:50Z</time>
      </trkpt>
      <trkpt lat="43.5434" lon="2.9587">
        <ele>425</ele>
        <time>2019-03-03T13:02:51Z</time>
      </trkpt>
      <trkpt lat="43.54337" lon="2.9587">
        <ele>425</ele>
        <time>2019-03-03T13:02:52Z</time>
      </trkpt>
      <trkpt lat="43.54335" lon="2.95869">
        <ele>425</ele>
        <time>2019-03-03T13:02:53Z</time>
      </trkpt>
      <trkpt lat="43.54333" lon="2.95869">
        <ele>426</ele>
        <time>2019-03-03T13:02:54Z</time>
      </trkpt>
      <trkpt lat="43.5433" lon="2.95869">
        <ele>426</ele>
        <time>2019-03-03T13:02:55Z</time>
      </trkpt>
      <trkpt lat="43.54327" lon="2.95869">
        <ele>426</ele>
        <time>2019-03-03T13:02:56Z</time>
      </trkpt>
      <trkpt lat="43.54325" lon="2.95868">
        <ele>426</ele>
        <time>2019-03-03T13:02:57Z</time>
      </trkpt>
      <trkpt lat="43.54323" lon="2.95868">
        <ele>427</ele>
        <time>2019-03-03T13:02:58Z</time>
      </trkpt>
      <trkpt lat="43.5432" lon="2.95868">
        <ele>427</ele>
        <time>2019-03-03T13:02:59Z</time>
      </trkpt>
      <trkpt lat="43.54318" lon="2.95868">
        <ele>427</ele>
        <time>2019-03-03T13:03:00Z</time>
      </trkpt>
      <trkpt lat="43.54316" lon="2.95868">
        <ele>427</ele>
        <time>2019-03-03T13:03:01Z</time>
      </trkpt>
      <trkpt lat="43.54313" lon="2.95868">
        <ele>427</ele>
        <time>2019-03-03T13:03:02Z</time>
      </trkpt>
      <trkpt lat="43.54311" lon="2.95868">
        <ele>428</ele>
        <time>2019-03-03T13:03:03Z</time>
      </trkpt>
      <trkpt lat="43.54308" lon="2.95868">
        <ele>428</ele>
        <time>2019-03-03T13:03:04Z</time>
      </trkpt>
      <trkpt lat="43.54306" lon="2.95869">
        <ele>428</ele>
        <time>2019-03-03T13:03:05Z</time>
      </trkpt>
      <trkpt lat="43.54304" lon="2.95869">
        <ele>429</ele>
        <time>2019-03-03T13:03:06Z</time>
      </trkpt>
      <trkpt lat="43.54301" lon="2.95869">
        <ele>429</ele>
        <time>2019-03-03T13:03:07Z</time>
      </trkpt>
      <trkpt lat="43.54299" lon="2.95869">
        <ele>429</ele>
        <time>2019-03-03T13:03:08Z</time>
      </trkpt>
      <trkpt lat="43.54296" lon="2.95869">
        <ele>429</ele>
        <time>2019-03-03T13:03:09Z</time>
      </trkpt>
      <trkpt lat="43.54294" lon="2.95868">
        <ele>430</ele>
        <time>2019-03-03T13:03:10Z</time>
      </trkpt>
      <trkpt lat="43.54292" lon="2.95868">
        <ele>430</ele>
        <time>2019-03-03T13:03:11Z</time>
      </trkpt>
      <trkpt lat="43.5429" lon="2.95866">
        <ele>430</ele>
        <time>2019-03-03T13:03:12Z</time>
      </trkpt>
      <trkpt lat="43.54287" lon="2.95865">
        <ele>430</ele>
        <time>2019-03-03T13:03:13Z</time>
      </trkpt>
      <trkpt lat="43.54285" lon="2.95864">
        <ele>431</ele>
        <time>2019-03-03T13:03:14Z</time>
      </trkpt>
      <trkpt lat="43.54284" lon="2.95862">
        <ele>431</ele>
        <time>2019-03-03T13:03:15Z</time>
      </trkpt>
      <trkpt lat="43.54282" lon="2.9586">
        <ele>431</ele>
        <time>2019-03-03T13:03:16Z</time>
      </trkpt>
      <trkpt lat="43.5428" lon="2.95857">
        <ele>431</ele>
        <time>2019-03-03T13:03:17Z</time>
      </trkpt>
      <trkpt lat="43.54279" lon="2.95855">
        <ele>431</ele>
        <time>2019-03-03T13:03:18Z</time>
      </trkpt>
      <trkpt lat="43.54277" lon="2.95852">
        <ele>432</ele>
        <time>2019-03-03T13:03:19Z</time>
      </trkpt>
      <trkpt lat="43.54275" lon="2.95849">
        <ele>432</ele>
        <time>2019-03-03T13:03:20Z</time>
      </trkpt>
      <trkpt lat="43.54274" lon="2.95846">
        <ele>432</ele>
        <time>2019-03-03T13:03:21Z</time>
      </trkpt>
      <trkpt lat="43.54272" lon="2.95843">
        <ele>432</ele>
        <time>2019-03-03T13:03:22Z</time>
      </trkpt>
      <trkpt lat="43.54271" lon="2.9584">
        <ele>432</ele>
        <time>2019-03-03T13:03:23Z</time>
      </trkpt>
      <trkpt lat="43.5427" lon="2.95836">
        <ele>432</ele>
        <time>2019-03-03T13:03:24Z</time>
      </trkpt>
      <trkpt lat="43.54269" lon="2.95833">
        <ele>432</ele>
        <time>2019-03-03T13:03:25Z</time>
      </trkpt>
      <trkpt lat="43.54268" lon="2.95829">
        <ele>432</ele>
        <time>2019-03-03T13:03:26Z</time>
      </trkpt>
      <trkpt lat="43.54267" lon="2.95826">
        <ele>432</ele>
        <time>2019-03-03T13:03:27Z</time>
      </trkpt>
      <trkpt lat="43.54266" lon="2.95822">
        <ele>432</ele>
        <time>2019-03-03T13:03:28Z</time>
      </trkpt>
      <trkpt lat="43.54265" lon="2.95819">
        <ele>432</ele>
        <time>2019-03-03T13:03:29Z</time>
      </trkpt>
      <trkpt lat="43.54265" lon="2.95815">
        <ele>432</ele>
        <time>2019-03-03T13:03:30Z</time>
      </trkpt>
      <trkpt lat="43.54264" lon="2.95811">
        <ele>432</ele>
        <time>2019-03-03T13:03:31Z</time>
      </trkpt>
      <trkpt lat="43.54264" lon="2.95808">
        <ele>432</ele>
        <time>2019-03-03T13:03:32Z</time>
      </trkpt>
      <trkpt lat="43.54263" lon="2.95804">
        <ele>432</ele>
        <time>2019-03-03T13:03:33Z</time>
      </trkpt>
      <trkpt lat="43.54263" lon="2.958">
        <ele>433</ele>
        <time>2019-03-03T13:03:34Z</time>
      </trkpt>
      <trkpt lat="43.54262" lon="2.95795">
        <ele>433</ele>
        <time>2019-03-03T13:03:35Z</time>
      </trkpt>
      <trkpt lat="43.54262" lon="2.95791">
        <ele>433</ele>
        <time>2019-03-03T13:03:36Z</time>
      </trkpt>
      <trkpt lat="43.54261" lon="2.95788">
        <ele>433</ele>
        <time>2019-03-03T13:03:37Z</time>
      </trkpt>
      <trkpt lat="43.54261" lon="2.95784">
        <ele>433</ele>
        <time>2019-03-03T13:03:38Z</time>
      </trkpt>
      <trkpt lat="43.54261" lon="2.9578">
        <ele>433</ele>
        <time>2019-03-03T13:03:39Z</time>
      </trkpt>
      <trkpt lat="43.5426" lon="2.95776">
        <ele>433</ele>
        <time>2019-03-03T13:03:40Z</time>
      </trkpt>
      <trkpt lat="43.5426" lon="2.95773">
        <ele>433</ele>
        <time>2019-03-03T13:03:41Z</time>
      </trkpt>
      <trkpt lat="43.5426" lon="2.95769">
        <ele>433</ele>
        <time>2019-03-03T13:03:42Z</time>
      </trkpt>
      <trkpt lat="43.5426" lon="2.95765">
        <ele>433</ele>
        <time>2019-03-03T13:03:43Z</time>
      </trkpt>
      <trkpt lat="43.5426" lon="2.95762">
        <ele>433</ele>
        <time>2019-03-03T13:03:44Z</time>
      </trkpt>
      <trkpt lat="43.54259" lon="2.95759">
        <ele>433</ele>
        <time>2019-03-03T13:03:45Z</time>
      </trkpt>
      <trkpt lat="43.54259" lon="2.95756">
        <ele>433</ele>
        <time>2019-03-03T13:03:46Z</time>
      </trkpt>
      <trkpt lat="43.54259" lon="2.95753">
        <ele>433</ele>
        <time>2019-03-03T13:03:47Z</time>
      </trkpt>
      <trkpt lat="43.54259" lon="2.95751">
        <ele>433</ele>
        <time>2019-03-03T13:03:48Z</time>
      </trkpt>
      <trkpt lat="43.54259" lon="2.95748">
        <ele>433</ele>
        <time>2019-03-03T13:03:49Z</time>
      </trkpt>
      <trkpt lat="43.54259" lon="2.95744">
        <ele>433</ele>
        <time>2019-03-03T13:03:50Z</time>
      </trkpt>
      <trkpt lat="43.54259" lon="2.9574">
        <ele>433</ele>
        <time>2019-03-03T13:03:51Z</time>
      </trkpt>
      <trkpt lat="43.54259" lon="2.95736">
        <ele>433</ele>
        <time>2019-03-03T13:03:52Z</time>
      </trkpt>
      <trkpt lat="43.5426" lon="2.95733">
        <ele>434</ele>
        <time>2019-03-03T13:03:53Z</time>
      </trkpt>
      <trkpt lat="43.54261" lon="2.9573">
        <ele>434</ele>
        <time>2019-03-03T13:03:54Z</time>
      </trkpt>
      <trkpt lat="43.54261" lon="2.95727">
        <ele>434</ele>
        <time>2019-03-03T13:03:55Z</time>
      </trkpt>
      <trkpt lat="43.54262" lon="2.95724">
        <ele>434</ele>
        <time>2019-03-03T13:03:56Z</time>
      </trkpt>
      <trkpt lat="43.54263" lon="2.95722">
        <ele>434</ele>
        <time>2019-03-03T13:03:57Z</time>
      </trkpt>
      <trkpt lat="43.54263" lon="2.95719">
        <ele>434</ele>
        <time>2019-03-03T13:03:58Z</time>
      </trkpt>
      <trkpt lat="43.54263" lon="2.95717">
        <ele>434</ele>
        <time>2019-03-03T13:03:59Z</time>
      </trkpt>
      <trkpt lat="43.54263" lon="2.95714">
        <ele>434</ele>
        <time>2019-03-03T13:04:00Z</time>
      </trkpt>
      <trkpt lat="43.54264" lon="2.95711">
        <ele>434</ele>
        <time>2019-03-03T13:04:01Z</time>
      </trkpt>
      <trkpt lat="43.54264" lon="2.95708">
        <ele>434</ele>
        <time>2019-03-03T13:04:02Z</time>
      </trkpt>
      <trkpt lat="43.54265" lon="2.95705">
        <ele>434</ele>
        <time>2019-03-03T13:04:03Z</time>
      </trkpt>
      <trkpt lat="43.54265" lon="2.95701">
        <ele>434</ele>
        <time>2019-03-03T13:04:04Z</time>
      </trkpt>
      <trkpt lat="43.54266" lon="2.95698">
        <ele>434</ele>
        <time>2019-03-03T13:04:05Z</time>
      </trkpt>
      <trkpt lat="43.54266" lon="2.95694">
        <ele>434</ele>
        <time>2019-03-03T13:04:06Z</time>
      </trkpt>
      <trkpt lat="43.54267" lon="2.9569">
        <ele>434</ele>
        <time>2019-03-03T13:04:07Z</time>
      </trkpt>
      <trkpt lat="43.54267" lon="2.95686">
        <ele>434</ele>
        <time>2019-03-03T13:04:08Z</time>
      </trkpt>
      <trkpt lat="43.54268" lon="2.95682">
        <ele>434</ele>
        <time>2019-03-03T13:04:09Z</time>
      </trkpt>
      <trkpt lat="43.54269" lon="2.95678">
        <ele>434</ele>
        <time>2019-03-03T13:04:10Z</time>
      </trkpt>
      <trkpt lat="43.54269" lon="2.95674">
        <ele>434</ele>
        <time>2019-03-03T13:04:11Z</time>
      </trkpt>
      <trkpt lat="43.5427" lon="2.95671">
        <ele>434</ele>
        <time>2019-03-03T13:04:12Z</time>
      </trkpt>
      <trkpt lat="43.54271" lon="2.95667">
        <ele>434</ele>
        <time>2019-03-03T13:04:13Z</time>
      </trkpt>
      <trkpt lat="43.54272" lon="2.95663">
        <ele>434</ele>
        <time>2019-03-03T13:04:14Z</time>
      </trkpt>
      <trkpt lat="43.54272" lon="2.95659">
        <ele>434</ele>
        <time>2019-03-03T13:04:15Z</time>
      </trkpt>
      <trkpt lat="43.54273" lon="2.95655">
        <ele>434</ele>
        <time>2019-03-03T13:04:16Z</time>
      </trkpt>
      <trkpt lat="43.54274" lon="2.95651">
        <ele>434</ele>
        <time>2019-03-03T13:04:17Z</time>
      </trkpt>
      <trkpt lat="43.54275" lon="2.95647">
        <ele>434</ele>
        <time>2019-03-03T13:04:18Z</time>
      </trkpt>
      <trkpt lat="43.54276" lon="2.95643">
        <ele>434</ele>
        <time>2019-03-03T13:04:19Z</time>
      </trkpt>
      <trkpt lat="43.54277" lon="2.95639">
        <ele>434</ele>
        <time>2019-03-03T13:04:20Z</time>
      </trkpt>
      <trkpt lat="43.54278" lon="2.95635">
        <ele>434</ele>
        <time>2019-03-03T13:04:21Z</time>
      </trkpt>
      <trkpt lat="43.54279" lon="2.95631">
        <ele>434</ele>
        <time>2019-03-03T13:04:22Z</time>
      </trkpt>
      <trkpt lat="43.5428" lon="2.95627">
        <ele>434</ele>
        <time>2019-03-03T13:04:23Z</time>
      </trkpt>
      <trkpt lat="43.54281" lon="2.95623">
        <ele>434</ele>
        <time>2019-03-03T13:04:24Z</time>
      </trkpt>
      <trkpt lat="43.54281" lon="2.95618">
        <ele>434</ele>
        <time>2019-03-03T13:04:25Z</time>
      </trkpt>
      <trkpt lat="43.54281" lon="2.95614">
        <ele>434</ele>
        <time>2019-03-03T13:04:26Z</time>
      </trkpt>
      <trkpt lat="43.54282" lon="2.9561">
        <ele>434</ele>
        <time>2019-03-03T13:04:27Z</time>
      </trkpt>
      <trkpt lat="43.54283" lon="2.95606">
        <ele>434</ele>
        <time>2019-03-03T13:04:28Z</time>
      </trkpt>
      <trkpt lat="43.54283" lon="2.95602">
        <ele>434</ele>
        <time>2019-03-03T13:04:29Z</time>
      </trkpt>
      <trkpt lat="43.54283" lon="2.95598">
        <ele>434</ele>
        <time>2019-03-03T13:04:30Z</time>
      </trkpt>
      <trkpt lat="43.54284" lon="2.95594">
        <ele>434</ele>
        <time>2019-03-03T13:04:31Z</time>
      </trkpt>
      <trkpt lat="43.54284" lon="2.95591">
        <ele>434</ele>
        <time>2019-03-03T13:04:32Z</time>
      </trkpt>
      <trkpt lat="43.54285" lon="2.95588">
        <ele>435</ele>
        <time>2019-03-03T13:04:33Z</time>
      </trkpt>
      <trkpt lat="43.54285" lon="2.95584">
        <ele>435</ele>
        <time>2019-03-03T13:04:34Z</time>
      </trkpt>
      <trkpt lat="43.54286" lon="2.95581">
        <ele>435</ele>
        <time>2019-03-03T13:04:35Z</time>
      </trkpt>
      <trkpt lat="43.54286" lon="2.95578">
        <ele>435</ele>
        <time>2019-03-03T13:04:36Z</time>
      </trkpt>
      <trkpt lat="43.54287" lon="2.95574">
        <ele>435</ele>
        <time>2019-03-03T13:04:37Z</time>
      </trkpt>
      <trkpt lat="43.54287" lon="2.9557">
        <ele>435</ele>
        <time>2019-03-03T13:04:38Z</time>
      </trkpt>
      <trkpt lat="43.54287" lon="2.95565">
        <ele>435</ele>
        <time>2019-03-03T13:04:39Z</time>
      </trkpt>
      <trkpt lat="43.54288" lon="2.95561">
        <ele>435</ele>
        <time>2019-03-03T13:04:40Z</time>
      </trkpt>
      <trkpt lat="43.54288" lon="2.95557">
        <ele>435</ele>
        <time>2019-03-03T13:04:41Z</time>
      </trkpt>
      <trkpt lat="43.54289" lon="2.95553">
        <ele>435</ele>
        <time>2019-03-03T13:04:42Z</time>
      </trkpt>
      <trkpt lat="43.54289" lon="2.95549">
        <ele>435</ele>
        <time>2019-03-03T13:04:43Z</time>
      </trkpt>
      <trkpt lat="43.54289" lon="2.95546">
        <ele>435</ele>
        <time>2019-03-03T13:04:44Z</time>
      </trkpt>
      <trkpt lat="43.54288" lon="2.95543">
        <ele>435</ele>
        <time>2019-03-03T13:04:45Z</time>
      </trkpt>
      <trkpt lat="43.54287" lon="2.95541">
        <ele>435</ele>
        <time>2019-03-03T13:04:46Z</time>
      </trkpt>
      <trkpt lat="43.54285" lon="2.9554">
        <ele>435</ele>
        <time>2019-03-03T13:04:47Z</time>
      </trkpt>
      <trkpt lat="43.54283" lon="2.95541">
        <ele>435</ele>
        <time>2019-03-03T13:04:48Z</time>
      </trkpt>
      <trkpt lat="43.54281" lon="2.95542">
        <ele>435</ele>
        <time>2019-03-03T13:04:49Z</time>
      </trkpt>
      <trkpt lat="43.5428" lon="2.95545">
        <ele>435</ele>
        <time>2019-03-03T13:04:50Z</time>
      </trkpt>
      <trkpt lat="43.5428" lon="2.95547">
        <ele>435</ele>
        <time>2019-03-03T13:04:51Z</time>
      </trkpt>
      <trkpt lat="43.5428" lon="2.9555">
        <ele>435</ele>
        <time>2019-03-03T13:04:52Z</time>
      </trkpt>
      <trkpt lat="43.5428" lon="2.95553">
        <ele>435</ele>
        <time>2019-03-03T13:04:53Z</time>
      </trkpt>
      <trkpt lat="43.54279" lon="2.95555">
        <ele>435</ele>
        <time>2019-03-03T13:04:54Z</time>
      </trkpt>
      <trkpt lat="43.54279" lon="2.95558">
        <ele>435</ele>
        <time>2019-03-03T13:04:55Z</time>
      </trkpt>
      <trkpt lat="43.54278" lon="2.95561">
        <ele>436</ele>
        <time>2019-03-03T13:04:56Z</time>
      </trkpt>
      <trkpt lat="43.54277" lon="2.95563">
        <ele>436</ele>
        <time>2019-03-03T13:04:57Z</time>
      </trkpt>
      <trkpt lat="43.54276" lon="2.95566">
        <ele>436</ele>
        <time>2019-03-03T13:04:58Z</time>
      </trkpt>
      <trkpt lat="43.54275" lon="2.95569">
        <ele>437</ele>
        <time>2019-03-03T13:04:59Z</time>
      </trkpt>
      <trkpt lat="43.54274" lon="2.95571">
        <ele>437</ele>
        <time>2019-03-03T13:05:00Z</time>
      </trkpt>
      <trkpt lat="43.54273" lon="2.95573">
        <ele>437</ele>
        <time>2019-03-03T13:05:01Z</time>
      </trkpt>
      <trkpt lat="43.54272" lon="2.95576">
        <ele>438</ele>
        <time>2019-03-03T13:05:02Z</time>
      </trkpt>
      <trkpt lat="43.54271" lon="2.95578">
        <ele>438</ele>
        <time>2019-03-03T13:05:03Z</time>
      </trkpt>
      <trkpt lat="43.5427" lon="2.95581">
        <ele>439</ele>
        <time>2019-03-03T13:05:04Z</time>
      </trkpt>
      <trkpt lat="43.54269" lon="2.95583">
        <ele>440</ele>
        <time>2019-03-03T13:05:05Z</time>
      </trkpt>
      <trkpt lat="43.54268" lon="2.95585">
        <ele>440</ele>
        <time>2019-03-03T13:05:06Z</time>
      </trkpt>
      <trkpt lat="43.54266" lon="2.95587">
        <ele>440</ele>
        <time>2019-03-03T13:05:07Z</time>
      </trkpt>
      <trkpt lat="43.54265" lon="2.9559">
        <ele>441</ele>
        <time>2019-03-03T13:05:08Z</time>
      </trkpt>
      <trkpt lat="43.54264" lon="2.95592">
        <ele>441</ele>
        <time>2019-03-03T13:05:09Z</time>
      </trkpt>
      <trkpt lat="43.54263" lon="2.95594">
        <ele>441</ele>
        <time>2019-03-03T13:05:10Z</time>
      </trkpt>
      <trkpt lat="43.54262" lon="2.95596">
        <ele>442</ele>
        <time>2019-03-03T13:05:11Z</time>
      </trkpt>
      <trkpt lat="43.54261" lon="2.95599">
        <ele>442</ele>
        <time>2019-03-03T13:05:12Z</time>
      </trkpt>
      <trkpt lat="43.5426" lon="2.95601">
        <ele>442</ele>
        <time>2019-03-03T13:05:13Z</time>
      </trkpt>
      <trkpt lat="43.54259" lon="2.95604">
        <ele>442</ele>
        <time>2019-03-03T13:05:14Z</time>
      </trkpt>
      <trkpt lat="43.54258" lon="2.95606">
        <ele>443</ele>
        <time>2019-03-03T13:05:15Z</time>
      </trkpt>
      <trkpt lat="43.54257" lon="2.95608">
        <ele>443</ele>
        <time>2019-03-03T13:05:16Z</time>
      </trkpt>
      <trkpt lat="43.54256" lon="2.9561">
        <ele>444</ele>
        <time>2019-03-03T13:05:17Z</time>
      </trkpt>
      <trkpt lat="43.54255" lon="2.95613">
        <ele>444</ele>
        <time>2019-03-03T13:05:18Z</time>
      </trkpt>
      <trkpt lat="43.54254" lon="2.95615">
        <ele>444</ele>
        <time>2019-03-03T13:05:19Z</time>
      </trkpt>
      <trkpt lat="43.54253" lon="2.95617">
        <ele>445</ele>
        <time>2019-03-03T13:05:20Z</time>
      </trkpt>
      <trkpt lat="43.54252" lon="2.9562">
        <ele>445</ele>
        <time>2019-03-03T13:05:21Z</time>
      </trkpt>
      <trkpt lat="43.54251" lon="2.95622">
        <ele>446</ele>
        <time>2019-03-03T13:05:22Z</time>
      </trkpt>
      <trkpt lat="43.54249" lon="2.95624">
        <ele>446</ele>
        <time>2019-03-03T13:05:23Z</time>
      </trkpt>
      <trkpt lat="43.54248" lon="2.95626">
        <ele>446</ele>
        <time>2019-03-03T13:05:24Z</time>
      </trkpt>
      <trkpt lat="43.54247" lon="2.95628">
        <ele>447</ele>
        <time>2019-03-03T13:05:25Z</time>
      </trkpt>
      <trkpt lat="43.54246" lon="2.95631">
        <ele>447</ele>
        <time>2019-03-03T13:05:26Z</time>
      </trkpt>
      <trkpt lat="43.54245" lon="2.95634">
        <ele>447</ele>
        <time>2019-03-03T13:05:27Z</time>
      </trkpt>
      <trkpt lat="43.54244" lon="2.95636">
        <ele>448</ele>
        <time>2019-03-03T13:05:28Z</time>
      </trkpt>
      <trkpt lat="43.54243" lon="2.95638">
        <ele>448</ele>
        <time>2019-03-03T13:05:29Z</time>
      </trkpt>
      <trkpt lat="43.54241" lon="2.95641">
        <ele>448</ele>
        <time>2019-03-03T13:05:30Z</time>
      </trkpt>
      <trkpt lat="43.5424" lon="2.95643">
        <ele>449</ele>
        <time>2019-03-03T13:05:31Z</time>
      </trkpt>
      <trkpt lat="43.54239" lon="2.95645">
        <ele>449</ele>
        <time>2019-03-03T13:05:32Z</time>
      </trkpt>
      <trkpt lat="43.54238" lon="2.95648">
        <ele>450</ele>
        <time>2019-03-03T13:05:33Z</time>
      </trkpt>
      <trkpt lat="43.54237" lon="2.9565">
        <ele>450</ele>
        <time>2019-03-03T13:05:34Z</time>
      </trkpt>
      <trkpt lat="43.54235" lon="2.95652">
        <ele>450</ele>
        <time>2019-03-03T13:05:35Z</time>
      </trkpt>
      <trkpt lat="43.54234" lon="2.95654">
        <ele>450</ele>
        <time>2019-03-03T13:05:36Z</time>
      </trkpt>
      <trkpt lat="43.54233" lon="2.95656">
        <ele>450</ele>
        <time>2019-03-03T13:05:37Z</time>
      </trkpt>
      <trkpt lat="43.54231" lon="2.95659">
        <ele>451</ele>
        <time>2019-03-03T13:05:38Z</time>
      </trkpt>
      <trkpt lat="43.5423" lon="2.95661">
        <ele>451</ele>
        <time>2019-03-03T13:05:39Z</time>
      </trkpt>
      <trkpt lat="43.54229" lon="2.95663">
        <ele>451</ele>
        <time>2019-03-03T13:05:40Z</time>
      </trkpt>
      <trkpt lat="43.54227" lon="2.95665">
        <ele>452</ele>
        <time>2019-03-03T13:05:41Z</time>
      </trkpt>
      <trkpt lat="43.54226" lon="2.95667">
        <ele>452</ele>
        <time>2019-03-03T13:05:42Z</time>
      </trkpt>
      <trkpt lat="43.54225" lon="2.95669">
        <ele>452</ele>
        <time>2019-03-03T13:05:43Z</time>
      </trkpt>
      <trkpt lat="43.54224" lon="2.95671">
        <ele>453</ele>
        <time>2019-03-03T13:05:44Z</time>
      </trkpt>
      <trkpt lat="43.54222" lon="2.95674">
        <ele>453</ele>
        <time>2019-03-03T13:05:45Z</time>
      </trkpt>
      <trkpt lat="43.54221" lon="2.95676">
        <ele>454</ele>
        <time>2019-03-03T13:05:46Z</time>
      </trkpt>
      <trkpt lat="43.5422" lon="2.95678">
        <ele>454</ele>
        <time>2019-03-03T13:05:47Z</time>
      </trkpt>
      <trkpt lat="43.54218" lon="2.9568">
        <ele>454</ele>
        <time>2019-03-03T13:05:48Z</time>
      </trkpt>
      <trkpt lat="43.54217" lon="2.95683">
        <ele>455</ele>
        <time>2019-03-03T13:05:49Z</time>
      </trkpt>
      <trkpt lat="43.54216" lon="2.95686">
        <ele>455</ele>
        <time>2019-03-03T13:05:50Z</time>
      </trkpt>
      <trkpt lat="43.54214" lon="2.95689">
        <ele>455</ele>
        <time>2019-03-03T13:05:51Z</time>
      </trkpt>
      <trkpt lat="43.54213" lon="2.95692">
        <ele>455</ele>
        <time>2019-03-03T13:05:52Z</time>
      </trkpt>
      <trkpt lat="43.54212" lon="2.95695">
        <ele>455</ele>
        <time>2019-03-03T13:05:53Z</time>
      </trkpt>
      <trkpt lat="43.54211" lon="2.95698">
        <ele>456</ele>
        <time>2019-03-03T13:05:54Z</time>
      </trkpt>
      <trkpt lat="43.5421" lon="2.95701">
        <ele>456</ele>
        <time>2019-03-03T13:05:55Z</time>
      </trkpt>
      <trkpt lat="43.54208" lon="2.95703">
        <ele>456</ele>
        <time>2019-03-03T13:05:56Z</time>
      </trkpt>
      <trkpt lat="43.54207" lon="2.95706">
        <ele>456</ele>
        <time>2019-03-03T13:05:57Z</time>
      </trkpt>
      <trkpt lat="43.54206" lon="2.95709">
        <ele>456</ele>
        <time>2019-03-03T13:05:58Z</time>
      </trkpt>
      <trkpt lat="43.54205" lon="2.95712">
        <ele>457</ele>
        <time>2019-03-03T13:05:59Z</time>
      </trkpt>
      <trkpt lat="43.54204" lon="2.95714">
        <ele>457</ele>
        <time>2019-03-03T13:06:00Z</time>
      </trkpt>
      <trkpt lat="43.54203" lon="2.95717">
        <ele>458</ele>
        <time>2019-03-03T13:06:01Z</time>
      </trkpt>
      <trkpt lat="43.54203" lon="2.9572">
        <ele>458</ele>
        <time>2019-03-03T13:06:02Z</time>
      </trkpt>
      <trkpt lat="43.54202" lon="2.95723">
        <ele>458</ele>
        <time>2019-03-03T13:06:03Z</time>
      </trkpt>
      <trkpt lat="43.54201" lon="2.95725">
        <ele>458</ele>
        <time>2019-03-03T13:06:04Z</time>
      </trkpt>
      <trkpt lat="43.542" lon="2.95728">
        <ele>459</ele>
        <time>2019-03-03T13:06:05Z</time>
      </trkpt>
      <trkpt lat="43.54198" lon="2.95731">
        <ele>459</ele>
        <time>2019-03-03T13:06:06Z</time>
      </trkpt>
      <trkpt lat="43.54197" lon="2.95733">
        <ele>459</ele>
        <time>2019-03-03T13:06:07Z</time>
      </trkpt>
      <trkpt lat="43.54195" lon="2.95734">
        <ele>459</ele>
        <time>2019-03-03T13:06:08Z</time>
      </trkpt>
      <trkpt lat="43.54193" lon="2.95734">
        <ele>460</ele>
        <time>2019-03-03T13:06:09Z</time>
      </trkpt>
      <trkpt lat="43.54191" lon="2.95732">
        <ele>460</ele>
        <time>2019-03-03T13:06:10Z</time>
      </trkpt>
      <trkpt lat="43.5419" lon="2.9573">
        <ele>460</ele>
        <time>2019-03-03T13:06:11Z</time>
      </trkpt>
      <trkpt lat="43.5419" lon="2.95727">
        <ele>460</ele>
        <time>2019-03-03T13:06:12Z</time>
      </trkpt>
      <trkpt lat="43.5419" lon="2.95723">
        <ele>460</ele>
        <time>2019-03-03T13:06:13Z</time>
      </trkpt>
      <trkpt lat="43.54191" lon="2.9572">
        <ele>460</ele>
        <time>2019-03-03T13:06:14Z</time>
      </trkpt>
      <trkpt lat="43.54191" lon="2.95717">
        <ele>461</ele>
        <time>2019-03-03T13:06:15Z</time>
      </trkpt>
      <trkpt lat="43.54192" lon="2.95715">
        <ele>461</ele>
        <time>2019-03-03T13:06:16Z</time>
      </trkpt>
      <trkpt lat="43.54193" lon="2.95712">
        <ele>461</ele>
        <time>2019-03-03T13:06:17Z</time>
      </trkpt>
      <trkpt lat="43.54193" lon="2.95709">
        <ele>462</ele>
        <time>2019-03-03T13:06:18Z</time>
      </trkpt>
      <trkpt lat="43.54194" lon="2.95707">
        <ele>462</ele>
        <time>2019-03-03T13:06:19Z</time>
      </trkpt>
      <trkpt lat="43.54194" lon="2.95704">
        <ele>462</ele>
        <time>2019-03-03T13:06:20Z</time>
      </trkpt>
      <trkpt lat="43.54195" lon="2.95701">
        <ele>462</ele>
        <time>2019-03-03T13:06:21Z</time>
      </trkpt>
      <trkpt lat="43.54195" lon="2.95699">
        <ele>463</ele>
        <time>2019-03-03T13:06:22Z</time>
      </trkpt>
      <trkpt lat="43.54195" lon="2.95696">
        <ele>463</ele>
        <time>2019-03-03T13:06:23Z</time>
      </trkpt>
      <trkpt lat="43.54195" lon="2.95694">
        <ele>463</ele>
        <time>2019-03-03T13:06:24Z</time>
      </trkpt>
      <trkpt lat="43.54195" lon="2.95691">
        <ele>463</ele>
        <time>2019-03-03T13:06:25Z</time>
      </trkpt>
      <trkpt lat="43.54196" lon="2.95689">
        <ele>464</ele>
        <time>2019-03-03T13:06:26Z</time>
      </trkpt>
      <trkpt lat="43.54196" lon="2.95686">
        <ele>464</ele>
        <time>2019-03-03T13:06:27Z</time>
      </trkpt>
      <trkpt lat="43.54196" lon="2.95684">
        <ele>465</ele>
        <time>2019-03-03T13:06:28Z</time>
      </trkpt>
      <trkpt lat="43.54197" lon="2.95681">
        <ele>465</ele>
        <time>2019-03-03T13:06:29Z</time>
      </trkpt>
      <trkpt lat="43.54197" lon="2.95679">
        <ele>466</ele>
        <time>2019-03-03T13:06:30Z</time>
      </trkpt>
      <trkpt lat="43.54197" lon="2.95676">
        <ele>466</ele>
        <time>2019-03-03T13:06:31Z</time>
      </trkpt>
      <trkpt lat="43.54198" lon="2.95674">
        <ele>466</ele>
        <time>2019-03-03T13:06:32Z</time>
      </trkpt>
      <trkpt lat="43.54198" lon="2.95671">
        <ele>466</ele>
        <time>2019-03-03T13:06:33Z</time>
      </trkpt>
      <trkpt lat="43.54198" lon="2.95668">
        <ele>467</ele>
        <time>2019-03-03T13:06:34Z</time>
      </trkpt>
      <trkpt lat="43.54198" lon="2.95666">
        <ele>467</ele>
        <time>2019-03-03T13:06:35Z</time>
      </trkpt>
      <trkpt lat="43.54198" lon="2.95663">
        <ele>467</ele>
        <time>2019-03-03T13:06:36Z</time>
      </trkpt>
      <trkpt lat="43.54199" lon="2.9566">
        <ele>467</ele>
        <time>2019-03-03T13:06:37Z</time>
      </trkpt>
      <trkpt lat="43.54199" lon="2.95657">
        <ele>468</ele>
        <time>2019-03-03T13:06:38Z</time>
      </trkpt>
      <trkpt lat="43.54199" lon="2.95655">
        <ele>468</ele>
        <time>2019-03-03T13:06:39Z</time>
      </trkpt>
      <trkpt lat="43.54199" lon="2.95652">
        <ele>468</ele>
        <time>2019-03-03T13:06:40Z</time>
      </trkpt>
      <trkpt lat="43.54199" lon="2.95649">
        <ele>469</ele>
        <time>2019-03-03T13:06:41Z</time>
      </trkpt>
      <trkpt lat="43.54199" lon="2.95647">
        <ele>469</ele>
        <time>2019-03-03T13:06:42Z</time>
      </trkpt>
      <trkpt lat="43.54199" lon="2.95645">
        <ele>469</ele>
        <time>2019-03-03T13:06:43Z</time>
      </trkpt>
      <trkpt lat="43.54199" lon="2.95642">
        <ele>470</ele>
        <time>2019-03-03T13:06:44Z</time>
      </trkpt>
      <trkpt lat="43.54199" lon="2.9564">
        <ele>470</ele>
        <time>2019-03-03T13:06:45Z</time>
      </trkpt>
      <trkpt lat="43.54199" lon="2.95637">
        <ele>471</ele>
        <time>2019-03-03T13:06:46Z</time>
      </trkpt>
      <trkpt lat="43.54199" lon="2.95634">
        <ele>471</ele>
        <time>2019-03-03T13:06:47Z</time>
      </trkpt>
      <trkpt lat="43.54199" lon="2.95632">
        <ele>471</ele>
        <time>2019-03-03T13:06:48Z</time>
      </trkpt>
      <trkpt lat="43.54199" lon="2.95629">
        <ele>471</ele>
        <time>2019-03-03T13:06:49Z</time>
      </trkpt>
      <trkpt lat="43.54199" lon="2.95627">
        <ele>472</ele>
        <time>2019-03-03T13:06:50Z</time>
      </trkpt>
      <trkpt lat="43.54199" lon="2.95624">
        <ele>472</ele>
        <time>2019-03-03T13:06:51Z</time>
      </trkpt>
      <trkpt lat="43.54198" lon="2.95621">
        <ele>472</ele>
        <time>2019-03-03T13:06:52Z</time>
      </trkpt>
      <trkpt lat="43.54198" lon="2.95618">
        <ele>472</ele>
        <time>2019-03-03T13:06:53Z</time>
      </trkpt>
      <trkpt lat="43.54198" lon="2.95616">
        <ele>473</ele>
        <time>2019-03-03T13:06:54Z</time>
      </trkpt>
      <trkpt lat="43.54198" lon="2.95613">
        <ele>473</ele>
        <time>2019-03-03T13:06:55Z</time>
      </trkpt>
      <trkpt lat="43.54198" lon="2.95611">
        <ele>473</ele>
        <time>2019-03-03T13:06:56Z</time>
      </trkpt>
      <trkpt lat="43.54198" lon="2.95608">
        <ele>474</ele>
        <time>2019-03-03T13:06:57Z</time>
      </trkpt>
      <trkpt lat="43.54198" lon="2.95606">
        <ele>474</ele>
        <time>2019-03-03T13:06:58Z</time>
      </trkpt>
      <trkpt lat="43.54198" lon="2.95603">
        <ele>474</ele>
        <time>2019-03-03T13:06:59Z</time>
      </trkpt>
      <trkpt lat="43.54198" lon="2.956">
        <ele>474</ele>
        <time>2019-03-03T13:07:00Z</time>
      </trkpt>
      <trkpt lat="43.54198" lon="2.95597">
        <ele>475</ele>
        <time>2019-03-03T13:07:01Z</time>
      </trkpt>
      <trkpt lat="43.54198" lon="2.95595">
        <ele>475</ele>
        <time>2019-03-03T13:07:02Z</time>
      </trkpt>
      <trkpt lat="43.54198" lon="2.95592">
        <ele>475</ele>
        <time>2019-03-03T13:07:03Z</time>
      </trkpt>
      <trkpt lat="43.54198" lon="2.9559">
        <ele>476</ele>
        <time>2019-03-03T13:07:04Z</time>
      </trkpt>
      <trkpt lat="43.54198" lon="2.95587">
        <ele>476</ele>
        <time>2019-03-03T13:07:05Z</time>
      </trkpt>
      <trkpt lat="43.54198" lon="2.95585">
        <ele>476</ele>
        <time>2019-03-03T13:07:06Z</time>
      </trkpt>
      <trkpt lat="43.54198" lon="2.95582">
        <ele>476</ele>
        <time>2019-03-03T13:07:07Z</time>
      </trkpt>
      <trkpt lat="43.54198" lon="2.9558">
        <ele>477</ele>
        <time>2019-03-03T13:07:08Z</time>
      </trkpt>
      <trkpt lat="43.54198" lon="2.95577">
        <ele>477</ele>
        <time>2019-03-03T13:07:09Z</time>
      </trkpt>
      <trkpt lat="43.54198" lon="2.95575">
        <ele>477</ele>
        <time>2019-03-03T13:07:10Z</time>
      </trkpt>
      <trkpt lat="43.54197" lon="2.95572">
        <ele>477</ele>
        <time>2019-03-03T13:07:11Z</time>
      </trkpt>
      <trkpt lat="43.54197" lon="2.9557">
        <ele>478</ele>
        <time>2019-03-03T13:07:12Z</time>
      </trkpt>
      <trkpt lat="43.54196" lon="2.95567">
        <ele>479</ele>
        <time>2019-03-03T13:07:13Z</time>
      </trkpt>
      <trkpt lat="43.54196" lon="2.95564">
        <ele>479</ele>
        <time>2019-03-03T13:07:14Z</time>
      </trkpt>
      <trkpt lat="43.54195" lon="2.95562">
        <ele>479</ele>
        <time>2019-03-03T13:07:15Z</time>
      </trkpt>
      <trkpt lat="43.54194" lon="2.95559">
        <ele>480</ele>
        <time>2019-03-03T13:07:16Z</time>
      </trkpt>
      <trkpt lat="43.54194" lon="2.95556">
        <ele>480</ele>
        <time>2019-03-03T13:07:17Z</time>
      </trkpt>
      <trkpt lat="43.54193" lon="2.95554">
        <ele>480</ele>
        <time>2019-03-03T13:07:18Z</time>
      </trkpt>
      <trkpt lat="43.54192" lon="2.95551">
        <ele>480</ele>
        <time>2019-03-03T13:07:19Z</time>
      </trkpt>
      <trkpt lat="43.54191" lon="2.95549">
        <ele>481</ele>
        <time>2019-03-03T13:07:20Z</time>
      </trkpt>
      <trkpt lat="43.54191" lon="2.95547">
        <ele>481</ele>
        <time>2019-03-03T13:07:21Z</time>
      </trkpt>
      <trkpt lat="43.54191" lon="2.95545">
        <ele>481</ele>
        <time>2019-03-03T13:07:22Z</time>
      </trkpt>
      <trkpt lat="43.5419" lon="2.95543">
        <ele>482</ele>
        <time>2019-03-03T13:07:23Z</time>
      </trkpt>
      <trkpt lat="43.54189" lon="2.9554">
        <ele>482</ele>
        <time>2019-03-03T13:07:24Z</time>
      </trkpt>
      <trkpt lat="43.54189" lon="2.95538">
        <ele>482</ele>
        <time>2019-03-03T13:07:25Z</time>
      </trkpt>
      <trkpt lat="43.54188" lon="2.95536">
        <ele>483</ele>
        <time>2019-03-03T13:07:26Z</time>
      </trkpt>
      <trkpt lat="43.54188" lon="2.95533">
        <ele>483</ele>
        <time>2019-03-03T13:07:27Z</time>
      </trkpt>
      <trkpt lat="43.54188" lon="2.95531">
        <ele>484</ele>
        <time>2019-03-03T13:07:28Z</time>
      </trkpt>
      <trkpt lat="43.54187" lon="2.95529">
        <ele>484</ele>
        <time>2019-03-03T13:07:29Z</time>
      </trkpt>
      <trkpt lat="43.54186" lon="2.95527">
        <ele>484</ele>
        <time>2019-03-03T13:07:30Z</time>
      </trkpt>
      <trkpt lat="43.54185" lon="2.95525">
        <ele>484</ele>
        <time>2019-03-03T13:07:31Z</time>
      </trkpt>
      <trkpt lat="43.54184" lon="2.95522">
        <ele>485</ele>
        <time>2019-03-03T13:07:32Z</time>
      </trkpt>
      <trkpt lat="43.54184" lon="2.9552">
        <ele>485</ele>
        <time>2019-03-03T13:07:33Z</time>
      </trkpt>
      <trkpt lat="43.54183" lon="2.95518">
        <ele>485</ele>
        <time>2019-03-03T13:07:34Z</time>
      </trkpt>
      <trkpt lat="43.54182" lon="2.95515">
        <ele>486</ele>
        <time>2019-03-03T13:07:35Z</time>
      </trkpt>
      <trkpt lat="43.54181" lon="2.95513">
        <ele>486</ele>
        <time>2019-03-03T13:07:36Z</time>
      </trkpt>
      <trkpt lat="43.5418" lon="2.9551">
        <ele>486</ele>
        <time>2019-03-03T13:07:37Z</time>
      </trkpt>
      <trkpt lat="43.54179" lon="2.95507">
        <ele>487</ele>
        <time>2019-03-03T13:07:38Z</time>
      </trkpt>
      <trkpt lat="43.54178" lon="2.95505">
        <ele>487</ele>
        <time>2019-03-03T13:07:39Z</time>
      </trkpt>
      <trkpt lat="43.54177" lon="2.95503">
        <ele>487</ele>
        <time>2019-03-03T13:07:40Z</time>
      </trkpt>
      <trkpt lat="43.54176" lon="2.955">
        <ele>487</ele>
        <time>2019-03-03T13:07:41Z</time>
      </trkpt>
      <trkpt lat="43.54175" lon="2.95498">
        <ele>488</ele>
        <time>2019-03-03T13:07:42Z</time>
      </trkpt>
      <trkpt lat="43.54174" lon="2.95496">
        <ele>488</ele>
        <time>2019-03-03T13:07:43Z</time>
      </trkpt>
      <trkpt lat="43.54173" lon="2.95493">
        <ele>488</ele>
        <time>2019-03-03T13:07:44Z</time>
      </trkpt>
      <trkpt lat="43.54173" lon="2.95491">
        <ele>489</ele>
        <time>2019-03-03T13:07:45Z</time>
      </trkpt>
      <trkpt lat="43.54172" lon="2.95489">
        <ele>489</ele>
        <time>2019-03-03T13:07:46Z</time>
      </trkpt>
      <trkpt lat="43.54171" lon="2.95486">
        <ele>489</ele>
        <time>2019-03-03T13:07:47Z</time>
      </trkpt>
      <trkpt lat="43.5417" lon="2.95484">
        <ele>489</ele>
        <time>2019-03-03T13:07:48Z</time>
      </trkpt>
      <trkpt lat="43.54169" lon="2.95482">
        <ele>490</ele>
        <time>2019-03-03T13:07:49Z</time>
      </trkpt>
      <trkpt lat="43.54168" lon="2.9548">
        <ele>490</ele>
        <time>2019-03-03T13:07:50Z</time>
      </trkpt>
      <trkpt lat="43.54168" lon="2.95478">
        <ele>490</ele>
        <time>2019-03-03T13:07:51Z</time>
      </trkpt>
      <trkpt lat="43.54167" lon="2.95475">
        <ele>491</ele>
        <time>2019-03-03T13:07:52Z</time>
      </trkpt>
      <trkpt lat="43.54166" lon="2.95473">
        <ele>491</ele>
        <time>2019-03-03T13:07:53Z</time>
      </trkpt>
      <trkpt lat="43.54165" lon="2.9547">
        <ele>491</ele>
        <time>2019-03-03T13:07:54Z</time>
      </trkpt>
      <trkpt lat="43.54165" lon="2.95468">
        <ele>492</ele>
        <time>2019-03-03T13:07:55Z</time>
      </trkpt>
      <trkpt lat="43.54164" lon="2.95466">
        <ele>492</ele>
        <time>2019-03-03T13:07:56Z</time>
      </trkpt>
      <trkpt lat="43.54163" lon="2.95463">
        <ele>492</ele>
        <time>2019-03-03T13:07:57Z</time>
      </trkpt>
      <trkpt lat="43.54162" lon="2.95461">
        <ele>492</ele>
        <time>2019-03-03T13:07:58Z</time>
      </trkpt>
      <trkpt lat="43.54162" lon="2.95458">
        <ele>493</ele>
        <time>2019-03-03T13:07:59Z</time>
      </trkpt>
      <trkpt lat="43.54161" lon="2.95456">
        <ele>493</ele>
        <time>2019-03-03T13:08:00Z</time>
      </trkpt>
      <trkpt lat="43.5416" lon="2.95454">
        <ele>493</ele>
        <time>2019-03-03T13:08:01Z</time>
      </trkpt>
      <trkpt lat="43.5416" lon="2.95452">
        <ele>494</ele>
        <time>2019-03-03T13:08:02Z</time>
      </trkpt>
      <trkpt lat="43.54159" lon="2.9545">
        <ele>494</ele>
        <time>2019-03-03T13:08:03Z</time>
      </trkpt>
      <trkpt lat="43.54158" lon="2.95448">
        <ele>494</ele>
        <time>2019-03-03T13:08:04Z</time>
      </trkpt>
      <trkpt lat="43.54157" lon="2.95445">
        <ele>494</ele>
        <time>2019-03-03T13:08:05Z</time>
      </trkpt>
      <trkpt lat="43.54157" lon="2.95443">
        <ele>494</ele>
        <time>2019-03-03T13:08:06Z</time>
      </trkpt>
      <trkpt lat="43.54156" lon="2.95441">
        <ele>495</ele>
        <time>2019-03-03T13:08:07Z</time>
      </trkpt>
      <trkpt lat="43.54155" lon="2.95439">
        <ele>495</ele>
        <time>2019-03-03T13:08:08Z</time>
      </trkpt>
      <trkpt lat="43.54154" lon="2.95436">
        <ele>495</ele>
        <time>2019-03-03T13:08:09Z</time>
      </trkpt>
      <trkpt lat="43.54153" lon="2.95434">
        <ele>495</ele>
        <time>2019-03-03T13:08:10Z</time>
      </trkpt>
      <trkpt lat="43.54152" lon="2.95432">
        <ele>496</ele>
        <time>2019-03-03T13:08:11Z</time>
      </trkpt>
      <trkpt lat="43.54152" lon="2.9543">
        <ele>497</ele>
        <time>2019-03-03T13:08:12Z</time>
      </trkpt>
      <trkpt lat="43.54151" lon="2.95428">
        <ele>497</ele>
        <time>2019-03-03T13:08:13Z</time>
      </trkpt>
      <trkpt lat="43.5415" lon="2.95426">
        <ele>497</ele>
        <time>2019-03-03T13:08:14Z</time>
      </trkpt>
      <trkpt lat="43.5415" lon="2.95424">
        <ele>497</ele>
        <time>2019-03-03T13:08:15Z</time>
      </trkpt>
      <trkpt lat="43.54149" lon="2.95421">
        <ele>498</ele>
        <time>2019-03-03T13:08:16Z</time>
      </trkpt>
      <trkpt lat="43.54148" lon="2.95418">
        <ele>498</ele>
        <time>2019-03-03T13:08:17Z</time>
      </trkpt>
      <trkpt lat="43.54147" lon="2.95415">
        <ele>498</ele>
        <time>2019-03-03T13:08:18Z</time>
      </trkpt>
      <trkpt lat="43.54146" lon="2.95412">
        <ele>498</ele>
        <time>2019-03-03T13:08:19Z</time>
      </trkpt>
      <trkpt lat="43.54145" lon="2.95409">
        <ele>499</ele>
        <time>2019-03-03T13:08:20Z</time>
      </trkpt>
      <trkpt lat="43.54144" lon="2.95407">
        <ele>499</ele>
        <time>2019-03-03T13:08:21Z</time>
      </trkpt>
      <trkpt lat="43.54143" lon="2.95404">
        <ele>499</ele>
        <time>2019-03-03T13:08:22Z</time>
      </trkpt>
      <trkpt lat="43.54143" lon="2.95402">
        <ele>499</ele>
        <time>2019-03-03T13:08:23Z</time>
      </trkpt>
      <trkpt lat="43.54142" lon="2.95399">
        <ele>499</ele>
        <time>2019-03-03T13:08:24Z</time>
      </trkpt>
      <trkpt lat="43.54141" lon="2.95396">
        <ele>500</ele>
        <time>2019-03-03T13:08:25Z</time>
      </trkpt>
      <trkpt lat="43.5414" lon="2.95394">
        <ele>500</ele>
        <time>2019-03-03T13:08:26Z</time>
      </trkpt>
      <trkpt lat="43.54139" lon="2.95391">
        <ele>500</ele>
        <time>2019-03-03T13:08:27Z</time>
      </trkpt>
      <trkpt lat="43.54139" lon="2.95388">
        <ele>500</ele>
        <time>2019-03-03T13:08:28Z</time>
      </trkpt>
      <trkpt lat="43.54138" lon="2.95385">
        <ele>500</ele>
        <time>2019-03-03T13:08:29Z</time>
      </trkpt>
      <trkpt lat="43.54138" lon="2.95382">
        <ele>500</ele>
        <time>2019-03-03T13:08:30Z</time>
      </trkpt>
      <trkpt lat="43.54137" lon="2.95379">
        <ele>501</ele>
        <time>2019-03-03T13:08:31Z</time>
      </trkpt>
      <trkpt lat="43.54136" lon="2.95376">
        <ele>501</ele>
        <time>2019-03-03T13:08:32Z</time>
      </trkpt>
      <trkpt lat="43.54136" lon="2.95373">
        <ele>501</ele>
        <time>2019-03-03T13:08:33Z</time>
      </trkpt>
      <trkpt lat="43.54135" lon="2.9537">
        <ele>501</ele>
        <time>2019-03-03T13:08:34Z</time>
      </trkpt>
      <trkpt lat="43.54133" lon="2.95368">
        <ele>501</ele>
        <time>2019-03-03T13:08:35Z</time>
      </trkpt>
      <trkpt lat="43.54132" lon="2.95366">
        <ele>501</ele>
        <time>2019-03-03T13:08:36Z</time>
      </trkpt>
      <trkpt lat="43.5413" lon="2.95364">
        <ele>502</ele>
        <time>2019-03-03T13:08:37Z</time>
      </trkpt>
      <trkpt lat="43.54128" lon="2.95364">
        <ele>502</ele>
        <time>2019-03-03T13:08:38Z</time>
      </trkpt>
      <trkpt lat="43.54127" lon="2.95365">
        <ele>502</ele>
        <time>2019-03-03T13:08:39Z</time>
      </trkpt>
      <trkpt lat="43.54127" lon="2.95367">
        <ele>502</ele>
        <time>2019-03-03T13:08:40Z</time>
      </trkpt>
      <trkpt lat="43.54127" lon="2.9537">
        <ele>502</ele>
        <time>2019-03-03T13:08:41Z</time>
      </trkpt>
      <trkpt lat="43.54127" lon="2.95373">
        <ele>502</ele>
        <time>2019-03-03T13:08:42Z</time>
      </trkpt>
      <trkpt lat="43.54127" lon="2.95376">
        <ele>502</ele>
        <time>2019-03-03T13:08:43Z</time>
      </trkpt>
      <trkpt lat="43.54127" lon="2.95378">
        <ele>503</ele>
        <time>2019-03-03T13:08:44Z</time>
      </trkpt>
      <trkpt lat="43.54127" lon="2.95381">
        <ele>503</ele>
        <time>2019-03-03T13:08:45Z</time>
      </trkpt>
      <trkpt lat="43.54128" lon="2.95385">
        <ele>503</ele>
        <time>2019-03-03T13:08:46Z</time>
      </trkpt>
      <trkpt lat="43.54128" lon="2.95388">
        <ele>503</ele>
        <time>2019-03-03T13:08:47Z</time>
      </trkpt>
      <trkpt lat="43.54129" lon="2.95391">
        <ele>504</ele>
        <time>2019-03-03T13:08:48Z</time>
      </trkpt>
      <trkpt lat="43.54129" lon="2.95394">
        <ele>504</ele>
        <time>2019-03-03T13:08:49Z</time>
      </trkpt>
      <trkpt lat="43.54129" lon="2.95397">
        <ele>504</ele>
        <time>2019-03-03T13:08:50Z</time>
      </trkpt>
      <trkpt lat="43.5413" lon="2.95401">
        <ele>504</ele>
        <time>2019-03-03T13:08:51Z</time>
      </trkpt>
      <trkpt lat="43.5413" lon="2.95404">
        <ele>505</ele>
        <time>2019-03-03T13:08:52Z</time>
      </trkpt>
      <trkpt lat="43.54131" lon="2.95407">
        <ele>505</ele>
        <time>2019-03-03T13:08:53Z</time>
      </trkpt>
      <trkpt lat="43.54131" lon="2.95411">
        <ele>505</ele>
        <time>2019-03-03T13:08:54Z</time>
      </trkpt>
      <trkpt lat="43.54132" lon="2.95414">
        <ele>505</ele>
        <time>2019-03-03T13:08:55Z</time>
      </trkpt>
      <trkpt lat="43.54132" lon="2.95417">
        <ele>505</ele>
        <time>2019-03-03T13:08:56Z</time>
      </trkpt>
      <trkpt lat="43.54133" lon="2.9542">
        <ele>505</ele>
        <time>2019-03-03T13:08:57Z</time>
      </trkpt>
      <trkpt lat="43.54133" lon="2.95424">
        <ele>505</ele>
        <time>2019-03-03T13:08:58Z</time>
      </trkpt>
      <trkpt lat="43.54133" lon="2.95427">
        <ele>506</ele>
        <time>2019-03-03T13:08:59Z</time>
      </trkpt>
      <trkpt lat="43.54133" lon="2.9543">
        <ele>506</ele>
        <time>2019-03-03T13:09:00Z</time>
      </trkpt>
      <trkpt lat="43.54133" lon="2.95434">
        <ele>506</ele>
        <time>2019-03-03T13:09:01Z</time>
      </trkpt>
      <trkpt lat="43.54133" lon="2.95437">
        <ele>506</ele>
        <time>2019-03-03T13:09:02Z</time>
      </trkpt>
      <trkpt lat="43.54133" lon="2.9544">
        <ele>506</ele>
        <time>2019-03-03T13:09:03Z</time>
      </trkpt>
      <trkpt lat="43.54133" lon="2.95444">
        <ele>507</ele>
        <time>2019-03-03T13:09:04Z</time>
      </trkpt>
      <trkpt lat="43.54133" lon="2.95447">
        <ele>507</ele>
        <time>2019-03-03T13:09:05Z</time>
      </trkpt>
      <trkpt lat="43.54133" lon="2.95451">
        <ele>507</ele>
        <time>2019-03-03T13:09:06Z</time>
      </trkpt>
      <trkpt lat="43.54133" lon="2.95454">
        <ele>507</ele>
        <time>2019-03-03T13:09:07Z</time>
      </trkpt>
      <trkpt lat="43.54133" lon="2.95457">
        <ele>507</ele>
        <time>2019-03-03T13:09:08Z</time>
      </trkpt>
      <trkpt lat="43.54133" lon="2.95461">
        <ele>508</ele>
        <time>2019-03-03T13:09:09Z</time>
      </trkpt>
      <trkpt lat="43.54133" lon="2.95465">
        <ele>508</ele>
        <time>2019-03-03T13:09:10Z</time>
      </trkpt>
      <trkpt lat="43.54133" lon="2.95468">
        <ele>508</ele>
        <time>2019-03-03T13:09:11Z</time>
      </trkpt>
      <trkpt lat="43.54133" lon="2.95472">
        <ele>508</ele>
        <time>2019-03-03T13:09:12Z</time>
      </trkpt>
      <trkpt lat="43.54133" lon="2.95475">
        <ele>508</ele>
        <time>2019-03-03T13:09:13Z</time>
      </trkpt>
      <trkpt lat="43.54133" lon="2.95479">
        <ele>508</ele>
        <time>2019-03-03T13:09:14Z</time>
      </trkpt>
      <trkpt lat="43.54133" lon="2.95482">
        <ele>508</ele>
        <time>2019-03-03T13:09:15Z</time>
      </trkpt>
      <trkpt lat="43.54134" lon="2.95486">
        <ele>509</ele>
        <time>2019-03-03T13:09:16Z</time>
      </trkpt>
      <trkpt lat="43.54134" lon="2.9549">
        <ele>509</ele>
        <time>2019-03-03T13:09:17Z</time>
      </trkpt>
      <trkpt lat="43.54134" lon="2.95494">
        <ele>509</ele>
        <time>2019-03-03T13:09:18Z</time>
      </trkpt>
      <trkpt lat="43.54134" lon="2.95498">
        <ele>509</ele>
        <time>2019-03-03T13:09:19Z</time>
      </trkpt>
      <trkpt lat="43.54134" lon="2.95502">
        <ele>509</ele>
        <time>2019-03-03T13:09:20Z</time>
      </trkpt>
      <trkpt lat="43.54134" lon="2.95506">
        <ele>510</ele>
        <time>2019-03-03T13:09:21Z</time>
      </trkpt>
      <trkpt lat="43.54134" lon="2.9551">
        <ele>510</ele>
        <time>2019-03-03T13:09:22Z</time>
      </trkpt>
      <trkpt lat="43.54133" lon="2.95515">
        <ele>510</ele>
        <time>2019-03-03T13:09:23Z</time>
      </trkpt>
      <trkpt lat="43.54133" lon="2.95519">
        <ele>510</ele>
        <time>2019-03-03T13:09:24Z</time>
      </trkpt>
      <trkpt lat="43.54133" lon="2.95523">
        <ele>511</ele>
        <time>2019-03-03T13:09:25Z</time>
      </trkpt>
      <trkpt lat="43.54132" lon="2.95526">
        <ele>511</ele>
        <time>2019-03-03T13:09:26Z</time>
      </trkpt>
      <trkpt lat="43.54132" lon="2.9553">
        <ele>511</ele>
        <time>2019-03-03T13:09:27Z</time>
      </trkpt>
      <trkpt lat="43.54132" lon="2.95534">
        <ele>511</ele>
        <time>2019-03-03T13:09:28Z</time>
      </trkpt>
      <trkpt lat="43.54131" lon="2.95538">
        <ele>511</ele>
        <time>2019-03-03T13:09:29Z</time>
      </trkpt>
      <trkpt lat="43.5413" lon="2.95542">
        <ele>511</ele>
        <time>2019-03-03T13:09:30Z</time>
      </trkpt>
      <trkpt lat="43.5413" lon="2.95545">
        <ele>511</ele>
        <time>2019-03-03T13:09:31Z</time>
      </trkpt>
      <trkpt lat="43.54129" lon="2.95548">
        <ele>511</ele>
        <time>2019-03-03T13:09:32Z</time>
      </trkpt>
      <trkpt lat="43.54128" lon="2.95552">
        <ele>511</ele>
        <time>2019-03-03T13:09:33Z</time>
      </trkpt>
      <trkpt lat="43.54128" lon="2.95555">
        <ele>511</ele>
        <time>2019-03-03T13:09:34Z</time>
      </trkpt>
      <trkpt lat="43.54127" lon="2.95559">
        <ele>511</ele>
        <time>2019-03-03T13:09:35Z</time>
      </trkpt>
      <trkpt lat="43.54127" lon="2.95562">
        <ele>512</ele>
        <time>2019-03-03T13:09:36Z</time>
      </trkpt>
      <trkpt lat="43.54126" lon="2.95566">
        <ele>512</ele>
        <time>2019-03-03T13:09:37Z</time>
      </trkpt>
      <trkpt lat="43.54125" lon="2.9557">
        <ele>512</ele>
        <time>2019-03-03T13:09:38Z</time>
      </trkpt>
      <trkpt lat="43.54125" lon="2.95573">
        <ele>512</ele>
        <time>2019-03-03T13:09:39Z</time>
      </trkpt>
      <trkpt lat="43.54123" lon="2.95576">
        <ele>512</ele>
        <time>2019-03-03T13:09:40Z</time>
      </trkpt>
      <trkpt lat="43.54121" lon="2.95578">
        <ele>512</ele>
        <time>2019-03-03T13:09:41Z</time>
      </trkpt>
      <trkpt lat="43.54119" lon="2.95579">
        <ele>512</ele>
        <time>2019-03-03T13:09:42Z</time>
      </trkpt>
      <trkpt lat="43.54117" lon="2.95579">
        <ele>512</ele>
        <time>2019-03-03T13:09:43Z</time>
      </trkpt>
      <trkpt lat="43.54115" lon="2.95577">
        <ele>512</ele>
        <time>2019-03-03T13:09:44Z</time>
      </trkpt>
      <trkpt lat="43.54115" lon="2.95575">
        <ele>512</ele>
        <time>2019-03-03T13:09:45Z</time>
      </trkpt>
      <trkpt lat="43.54116" lon="2.95572">
        <ele>512</ele>
        <time>2019-03-03T13:09:46Z</time>
      </trkpt>
      <trkpt lat="43.54117" lon="2.95568">
        <ele>513</ele>
        <time>2019-03-03T13:09:47Z</time>
      </trkpt>
      <trkpt lat="43.54118" lon="2.95566">
        <ele>513</ele>
        <time>2019-03-03T13:09:48Z</time>
      </trkpt>
      <trkpt lat="43.54119" lon="2.95562">
        <ele>513</ele>
        <time>2019-03-03T13:09:49Z</time>
      </trkpt>
      <trkpt lat="43.5412" lon="2.95559">
        <ele>513</ele>
        <time>2019-03-03T13:09:50Z</time>
      </trkpt>
      <trkpt lat="43.5412" lon="2.95556">
        <ele>513</ele>
        <time>2019-03-03T13:09:51Z</time>
      </trkpt>
      <trkpt lat="43.54121" lon="2.95553">
        <ele>514</ele>
        <time>2019-03-03T13:09:52Z</time>
      </trkpt>
      <trkpt lat="43.54121" lon="2.9555">
        <ele>514</ele>
        <time>2019-03-03T13:09:53Z</time>
      </trkpt>
      <trkpt lat="43.54121" lon="2.95546">
        <ele>514</ele>
        <time>2019-03-03T13:09:54Z</time>
      </trkpt>
      <trkpt lat="43.5412" lon="2.95542">
        <ele>514</ele>
        <time>2019-03-03T13:09:55Z</time>
      </trkpt>
      <trkpt lat="43.5412" lon="2.95538">
        <ele>514</ele>
        <time>2019-03-03T13:09:56Z</time>
      </trkpt>
      <trkpt lat="43.5412" lon="2.95534">
        <ele>514</ele>
        <time>2019-03-03T13:09:57Z</time>
      </trkpt>
      <trkpt lat="43.5412" lon="2.9553">
        <ele>515</ele>
        <time>2019-03-03T13:09:58Z</time>
      </trkpt>
      <trkpt lat="43.5412" lon="2.95526">
        <ele>515</ele>
        <time>2019-03-03T13:09:59Z</time>
      </trkpt>
      <trkpt lat="43.5412" lon="2.95522">
        <ele>516</ele>
        <time>2019-03-03T13:10:00Z</time>
      </trkpt>
      <trkpt lat="43.54119" lon="2.95518">
        <ele>516</ele>
        <time>2019-03-03T13:10:01Z</time>
      </trkpt>
      <trkpt lat="43.54119" lon="2.95514">
        <ele>516</ele>
        <time>2019-03-03T13:10:02Z</time>
      </trkpt>
      <trkpt lat="43.54118" lon="2.95511">
        <ele>516</ele>
        <time>2019-03-03T13:10:03Z</time>
      </trkpt>
      <trkpt lat="43.54117" lon="2.95507">
        <ele>516</ele>
        <time>2019-03-03T13:10:04Z</time>
      </trkpt>
      <trkpt lat="43.54116" lon="2.95504">
        <ele>516</ele>
        <time>2019-03-03T13:10:05Z</time>
      </trkpt>
      <trkpt lat="43.54116" lon="2.95501">
        <ele>517</ele>
        <time>2019-03-03T13:10:06Z</time>
      </trkpt>
      <trkpt lat="43.54115" lon="2.95498">
        <ele>517</ele>
        <time>2019-03-03T13:10:07Z</time>
      </trkpt>
      <trkpt lat="43.54114" lon="2.95495">
        <ele>518</ele>
        <time>2019-03-03T13:10:08Z</time>
      </trkpt>
      <trkpt lat="43.54113" lon="2.95492">
        <ele>518</ele>
        <time>2019-03-03T13:10:09Z</time>
      </trkpt>
      <trkpt lat="43.54112" lon="2.95488">
        <ele>518</ele>
        <time>2019-03-03T13:10:10Z</time>
      </trkpt>
      <trkpt lat="43.54111" lon="2.95485">
        <ele>519</ele>
        <time>2019-03-03T13:10:11Z</time>
      </trkpt>
      <trkpt lat="43.54111" lon="2.95482">
        <ele>519</ele>
        <time>2019-03-03T13:10:12Z</time>
      </trkpt>
      <trkpt lat="43.5411" lon="2.95479">
        <ele>519</ele>
        <time>2019-03-03T13:10:13Z</time>
      </trkpt>
      <trkpt lat="43.54109" lon="2.95476">
        <ele>520</ele>
        <time>2019-03-03T13:10:14Z</time>
      </trkpt>
      <trkpt lat="43.54108" lon="2.95473">
        <ele>520</ele>
        <time>2019-03-03T13:10:15Z</time>
      </trkpt>
      <trkpt lat="43.54107" lon="2.9547">
        <ele>520</ele>
        <time>2019-03-03T13:10:16Z</time>
      </trkpt>
      <trkpt lat="43.54106" lon="2.95467">
        <ele>521</ele>
        <time>2019-03-03T13:10:17Z</time>
      </trkpt>
      <trkpt lat="43.54106" lon="2.95465">
        <ele>521</ele>
        <time>2019-03-03T13:10:18Z</time>
      </trkpt>
      <trkpt lat="43.54105" lon="2.95462">
        <ele>521</ele>
        <time>2019-03-03T13:10:19Z</time>
      </trkpt>
      <trkpt lat="43.54104" lon="2.95459">
        <ele>522</ele>
        <time>2019-03-03T13:10:20Z</time>
      </trkpt>
      <trkpt lat="43.54103" lon="2.95457">
        <ele>522</ele>
        <time>2019-03-03T13:10:21Z</time>
      </trkpt>
      <trkpt lat="43.54102" lon="2.95454">
        <ele>522</ele>
        <time>2019-03-03T13:10:22Z</time>
      </trkpt>
      <trkpt lat="43.54101" lon="2.95452">
        <ele>522</ele>
        <time>2019-03-03T13:10:23Z</time>
      </trkpt>
      <trkpt lat="43.541" lon="2.95449">
        <ele>523</ele>
        <time>2019-03-03T13:10:24Z</time>
      </trkpt>
      <trkpt lat="43.54099" lon="2.95446">
        <ele>523</ele>
        <time>2019-03-03T13:10:25Z</time>
      </trkpt>
      <trkpt lat="43.54098" lon="2.95443">
        <ele>523</ele>
        <time>2019-03-03T13:10:26Z</time>
      </trkpt>
      <trkpt lat="43.54097" lon="2.9544">
        <ele>524</ele>
        <time>2019-03-03T13:10:27Z</time>
      </trkpt>
      <trkpt lat="43.54096" lon="2.95437">
        <ele>524</ele>
        <time>2019-03-03T13:10:28Z</time>
      </trkpt>
      <trkpt lat="43.54095" lon="2.95434">
        <ele>524</ele>
        <time>2019-03-03T13:10:29Z</time>
      </trkpt>
      <trkpt lat="43.54094" lon="2.95432">
        <ele>525</ele>
        <time>2019-03-03T13:10:30Z</time>
      </trkpt>
      <trkpt lat="43.54093" lon="2.95428">
        <ele>525</ele>
        <time>2019-03-03T13:10:31Z</time>
      </trkpt>
      <trkpt lat="43.54093" lon="2.95425">
        <ele>526</ele>
        <time>2019-03-03T13:10:32Z</time>
      </trkpt>
      <trkpt lat="43.54092" lon="2.95422">
        <ele>526</ele>
        <time>2019-03-03T13:10:33Z</time>
      </trkpt>
      <trkpt lat="43.54092" lon="2.95419">
        <ele>526</ele>
        <time>2019-03-03T13:10:34Z</time>
      </trkpt>
      <trkpt lat="43.54091" lon="2.95416">
        <ele>527</ele>
        <time>2019-03-03T13:10:35Z</time>
      </trkpt>
      <trkpt lat="43.5409" lon="2.95413">
        <ele>527</ele>
        <time>2019-03-03T13:10:36Z</time>
      </trkpt>
      <trkpt lat="43.54089" lon="2.9541">
        <ele>528</ele>
        <time>2019-03-03T13:10:37Z</time>
      </trkpt>
      <trkpt lat="43.54089" lon="2.95408">
        <ele>528</ele>
        <time>2019-03-03T13:10:38Z</time>
      </trkpt>
      <trkpt lat="43.54088" lon="2.95405">
        <ele>528</ele>
        <time>2019-03-03T13:10:39Z</time>
      </trkpt>
      <trkpt lat="43.54087" lon="2.95402">
        <ele>529</ele>
        <time>2019-03-03T13:10:40Z</time>
      </trkpt>
      <trkpt lat="43.54087" lon="2.954">
        <ele>529</ele>
        <time>2019-03-03T13:10:41Z</time>
      </trkpt>
      <trkpt lat="43.54085" lon="2.95397">
        <ele>530</ele>
        <time>2019-03-03T13:10:42Z</time>
      </trkpt>
      <trkpt lat="43.54084" lon="2.95394">
        <ele>530</ele>
        <time>2019-03-03T13:10:43Z</time>
      </trkpt>
      <trkpt lat="43.54083" lon="2.95392">
        <ele>530</ele>
        <time>2019-03-03T13:10:44Z</time>
      </trkpt>
      <trkpt lat="43.54082" lon="2.95389">
        <ele>531</ele>
        <time>2019-03-03T13:10:45Z</time>
      </trkpt>
      <trkpt lat="43.54081" lon="2.95387">
        <ele>531</ele>
        <time>2019-03-03T13:10:46Z</time>
      </trkpt>
      <trkpt lat="43.5408" lon="2.95385">
        <ele>532</ele>
        <time>2019-03-03T13:10:47Z</time>
      </trkpt>
      <trkpt lat="43.54079" lon="2.95382">
        <ele>532</ele>
        <time>2019-03-03T13:10:48Z</time>
      </trkpt>
      <trkpt lat="43.54077" lon="2.95379">
        <ele>532</ele>
        <time>2019-03-03T13:10:49Z</time>
      </trkpt>
      <trkpt lat="43.54076" lon="2.95377">
        <ele>533</ele>
        <time>2019-03-03T13:10:50Z</time>
      </trkpt>
      <trkpt lat="43.54075" lon="2.95374">
        <ele>533</ele>
        <time>2019-03-03T13:10:51Z</time>
      </trkpt>
      <trkpt lat="43.54073" lon="2.95371">
        <ele>533</ele>
        <time>2019-03-03T13:10:52Z</time>
      </trkpt>
      <trkpt lat="43.54072" lon="2.95368">
        <ele>534</ele>
        <time>2019-03-03T13:10:53Z</time>
      </trkpt>
      <trkpt lat="43.5407" lon="2.95366">
        <ele>534</ele>
        <time>2019-03-03T13:10:54Z</time>
      </trkpt>
      <trkpt lat="43.54069" lon="2.95363">
        <ele>534</ele>
        <time>2019-03-03T13:10:55Z</time>
      </trkpt>
      <trkpt lat="43.54068" lon="2.9536">
        <ele>534</ele>
        <time>2019-03-03T13:10:56Z</time>
      </trkpt>
      <trkpt lat="43.54067" lon="2.95357">
        <ele>534</ele>
        <time>2019-03-03T13:10:57Z</time>
      </trkpt>
      <trkpt lat="43.54066" lon="2.95354">
        <ele>535</ele>
        <time>2019-03-03T13:10:58Z</time>
      </trkpt>
      <trkpt lat="43.54065" lon="2.95352">
        <ele>535</ele>
        <time>2019-03-03T13:10:59Z</time>
      </trkpt>
      <trkpt lat="43.54064" lon="2.95349">
        <ele>535</ele>
        <time>2019-03-03T13:11:00Z</time>
      </trkpt>
      <trkpt lat="43.54064" lon="2.95346">
        <ele>536</ele>
        <time>2019-03-03T13:11:01Z</time>
      </trkpt>
      <trkpt lat="43.54063" lon="2.95342">
        <ele>536</ele>
        <time>2019-03-03T13:11:02Z</time>
      </trkpt>
      <trkpt lat="43.54062" lon="2.9534">
        <ele>536</ele>
        <time>2019-03-03T13:11:03Z</time>
      </trkpt>
      <trkpt lat="43.54062" lon="2.95337">
        <ele>536</ele>
        <time>2019-03-03T13:11:04Z</time>
      </trkpt>
      <trkpt lat="43.54061" lon="2.95335">
        <ele>537</ele>
        <time>2019-03-03T13:11:05Z</time>
      </trkpt>
      <trkpt lat="43.54061" lon="2.95332">
        <ele>537</ele>
        <time>2019-03-03T13:11:06Z</time>
      </trkpt>
      <trkpt lat="43.5406" lon="2.95329">
        <ele>538</ele>
        <time>2019-03-03T13:11:07Z</time>
      </trkpt>
      <trkpt lat="43.54059" lon="2.95327">
        <ele>538</ele>
        <time>2019-03-03T13:11:08Z</time>
      </trkpt>
      <trkpt lat="43.54059" lon="2.95324">
        <ele>538</ele>
        <time>2019-03-03T13:11:09Z</time>
      </trkpt>
      <trkpt lat="43.54058" lon="2.95322">
        <ele>539</ele>
        <time>2019-03-03T13:11:10Z</time>
      </trkpt>
      <trkpt lat="43.54058" lon="2.95319">
        <ele>539</ele>
        <time>2019-03-03T13:11:11Z</time>
      </trkpt>
      <trkpt lat="43.54057" lon="2.95317">
        <ele>539</ele>
        <time>2019-03-03T13:11:12Z</time>
      </trkpt>
      <trkpt lat="43.54057" lon="2.95314">
        <ele>539</ele>
        <time>2019-03-03T13:11:13Z</time>
      </trkpt>
      <trkpt lat="43.54057" lon="2.95311">
        <ele>540</ele>
        <time>2019-03-03T13:11:14Z</time>
      </trkpt>
      <trkpt lat="43.54056" lon="2.95308">
        <ele>540</ele>
        <time>2019-03-03T13:11:15Z</time>
      </trkpt>
      <trkpt lat="43.54056" lon="2.95306">
        <ele>541</ele>
        <time>2019-03-03T13:11:16Z</time>
      </trkpt>
      <trkpt lat="43.54055" lon="2.95303">
        <ele>541</ele>
        <time>2019-03-03T13:11:17Z</time>
      </trkpt>
      <trkpt lat="43.54054" lon="2.953">
        <ele>541</ele>
        <time>2019-03-03T13:11:18Z</time>
      </trkpt>
      <trkpt lat="43.54054" lon="2.95298">
        <ele>542</ele>
        <time>2019-03-03T13:11:19Z</time>
      </trkpt>
      <trkpt lat="43.54054" lon="2.95295">
        <ele>542</ele>
        <time>2019-03-03T13:11:20Z</time>
      </trkpt>
      <trkpt lat="43.54053" lon="2.95292">
        <ele>542</ele>
        <time>2019-03-03T13:11:21Z</time>
      </trkpt>
      <trkpt lat="43.54052" lon="2.95289">
        <ele>543</ele>
        <time>2019-03-03T13:11:22Z</time>
      </trkpt>
      <trkpt lat="43.54052" lon="2.95286">
        <ele>543</ele>
        <time>2019-03-03T13:11:23Z</time>
      </trkpt>
      <trkpt lat="43.54051" lon="2.95283">
        <ele>543</ele>
        <time>2019-03-03T13:11:24Z</time>
      </trkpt>
      <trkpt lat="43.5405" lon="2.9528">
        <ele>543</ele>
        <time>2019-03-03T13:11:25Z</time>
      </trkpt>
      <trkpt lat="43.5405" lon="2.95277">
        <ele>544</ele>
        <time>2019-03-03T13:11:26Z</time>
      </trkpt>
      <trkpt lat="43.54049" lon="2.95274">
        <ele>544</ele>
        <time>2019-03-03T13:11:27Z</time>
      </trkpt>
      <trkpt lat="43.54048" lon="2.95271">
        <ele>545</ele>
        <time>2019-03-03T13:11:28Z</time>
      </trkpt>
      <trkpt lat="43.54048" lon="2.95268">
        <ele>545</ele>
        <time>2019-03-03T13:11:29Z</time>
      </trkpt>
      <trkpt lat="43.54047" lon="2.95265">
        <ele>545</ele>
        <time>2019-03-03T13:11:30Z</time>
      </trkpt>
      <trkpt lat="43.54047" lon="2.95262">
        <ele>546</ele>
        <time>2019-03-03T13:11:31Z</time>
      </trkpt>
      <trkpt lat="43.54047" lon="2.95259">
        <ele>546</ele>
        <time>2019-03-03T13:11:32Z</time>
      </trkpt>
      <trkpt lat="43.54046" lon="2.95256">
        <ele>546</ele>
        <time>2019-03-03T13:11:33Z</time>
      </trkpt>
      <trkpt lat="43.54045" lon="2.95253">
        <ele>547</ele>
        <time>2019-03-03T13:11:34Z</time>
      </trkpt>
      <trkpt lat="43.54045" lon="2.95251">
        <ele>547</ele>
        <time>2019-03-03T13:11:35Z</time>
      </trkpt>
      <trkpt lat="43.54044" lon="2.95249">
        <ele>548</ele>
        <time>2019-03-03T13:11:36Z</time>
      </trkpt>
      <trkpt lat="43.54043" lon="2.95246">
        <ele>548</ele>
        <time>2019-03-03T13:11:37Z</time>
      </trkpt>
      <trkpt lat="43.54043" lon="2.95243">
        <ele>548</ele>
        <time>2019-03-03T13:11:38Z</time>
      </trkpt>
      <trkpt lat="43.54042" lon="2.9524">
        <ele>549</ele>
        <time>2019-03-03T13:11:39Z</time>
      </trkpt>
      <trkpt lat="43.54042" lon="2.95238">
        <ele>549</ele>
        <time>2019-03-03T13:11:40Z</time>
      </trkpt>
      <trkpt lat="43.54041" lon="2.95235">
        <ele>549</ele>
        <time>2019-03-03T13:11:41Z</time>
      </trkpt>
      <trkpt lat="43.5404" lon="2.95232">
        <ele>549</ele>
        <time>2019-03-03T13:11:42Z</time>
      </trkpt>
      <trkpt lat="43.5404" lon="2.95229">
        <ele>550</ele>
        <time>2019-03-03T13:11:43Z</time>
      </trkpt>
      <trkpt lat="43.54039" lon="2.95226">
        <ele>550</ele>
        <time>2019-03-03T13:11:44Z</time>
      </trkpt>
      <trkpt lat="43.54039" lon="2.95223">
        <ele>550</ele>
        <time>2019-03-03T13:11:45Z</time>
      </trkpt>
      <trkpt lat="43.54038" lon="2.95219">
        <ele>551</ele>
        <time>2019-03-03T13:11:46Z</time>
      </trkpt>
      <trkpt lat="43.54038" lon="2.95216">
        <ele>551</ele>
        <time>2019-03-03T13:11:47Z</time>
      </trkpt>
      <trkpt lat="43.54037" lon="2.95213">
        <ele>551</ele>
        <time>2019-03-03T13:11:48Z</time>
      </trkpt>
      <trkpt lat="43.54037" lon="2.9521">
        <ele>552</ele>
        <time>2019-03-03T13:11:49Z</time>
      </trkpt>
      <trkpt lat="43.54036" lon="2.95207">
        <ele>552</ele>
        <time>2019-03-03T13:11:50Z</time>
      </trkpt>
      <trkpt lat="43.54036" lon="2.95204">
        <ele>553</ele>
        <time>2019-03-03T13:11:51Z</time>
      </trkpt>
      <trkpt lat="43.54035" lon="2.95202">
        <ele>553</ele>
        <time>2019-03-03T13:11:52Z</time>
      </trkpt>
      <trkpt lat="43.54035" lon="2.95199">
        <ele>553</ele>
        <time>2019-03-03T13:11:53Z</time>
      </trkpt>
      <trkpt lat="43.54034" lon="2.95196">
        <ele>553</ele>
        <time>2019-03-03T13:11:54Z</time>
      </trkpt>
      <trkpt lat="43.54033" lon="2.95193">
        <ele>553</ele>
        <time>2019-03-03T13:11:55Z</time>
      </trkpt>
      <trkpt lat="43.54033" lon="2.9519">
        <ele>554</ele>
        <time>2019-03-03T13:11:56Z</time>
      </trkpt>
      <trkpt lat="43.54032" lon="2.95188">
        <ele>554</ele>
        <time>2019-03-03T13:11:57Z</time>
      </trkpt>
      <trkpt lat="43.54031" lon="2.95186">
        <ele>554</ele>
        <time>2019-03-03T13:11:58Z</time>
      </trkpt>
      <trkpt lat="43.5403" lon="2.95183">
        <ele>554</ele>
        <time>2019-03-03T13:11:59Z</time>
      </trkpt>
      <trkpt lat="43.54029" lon="2.9518">
        <ele>555</ele>
        <time>2019-03-03T13:12:00Z</time>
      </trkpt>
      <trkpt lat="43.54028" lon="2.95178">
        <ele>555</ele>
        <time>2019-03-03T13:12:01Z</time>
      </trkpt>
      <trkpt lat="43.54027" lon="2.95175">
        <ele>556</ele>
        <time>2019-03-03T13:12:02Z</time>
      </trkpt>
      <trkpt lat="43.54026" lon="2.95172">
        <ele>556</ele>
        <time>2019-03-03T13:12:03Z</time>
      </trkpt>
      <trkpt lat="43.54025" lon="2.95169">
        <ele>556</ele>
        <time>2019-03-03T13:12:04Z</time>
      </trkpt>
      <trkpt lat="43.54024" lon="2.95167">
        <ele>557</ele>
        <time>2019-03-03T13:12:05Z</time>
      </trkpt>
      <trkpt lat="43.54023" lon="2.95164">
        <ele>557</ele>
        <time>2019-03-03T13:12:06Z</time>
      </trkpt>
      <trkpt lat="43.54022" lon="2.95161">
        <ele>557</ele>
        <time>2019-03-03T13:12:07Z</time>
      </trkpt>
      <trkpt lat="43.54021" lon="2.95158">
        <ele>557</ele>
        <time>2019-03-03T13:12:08Z</time>
      </trkpt>
      <trkpt lat="43.54019" lon="2.95155">
        <ele>558</ele>
        <time>2019-03-03T13:12:09Z</time>
      </trkpt>
      <trkpt lat="43.54018" lon="2.95152">
        <ele>558</ele>
        <time>2019-03-03T13:12:10Z</time>
      </trkpt>
      <trkpt lat="43.54017" lon="2.9515">
        <ele>558</ele>
        <time>2019-03-03T13:12:11Z</time>
      </trkpt>
      <trkpt lat="43.54015" lon="2.95147">
        <ele>558</ele>
        <time>2019-03-03T13:12:12Z</time>
      </trkpt>
      <trkpt lat="43.54013" lon="2.95144">
        <ele>558</ele>
        <time>2019-03-03T13:12:13Z</time>
      </trkpt>
      <trkpt lat="43.54012" lon="2.95142">
        <ele>559</ele>
        <time>2019-03-03T13:12:14Z</time>
      </trkpt>
      <trkpt lat="43.54011" lon="2.95139">
        <ele>559</ele>
        <time>2019-03-03T13:12:15Z</time>
      </trkpt>
      <trkpt lat="43.5401" lon="2.95137">
        <ele>559</ele>
        <time>2019-03-03T13:12:16Z</time>
      </trkpt>
      <trkpt lat="43.54009" lon="2.95134">
        <ele>559</ele>
        <time>2019-03-03T13:12:17Z</time>
      </trkpt>
      <trkpt lat="43.54007" lon="2.95131">
        <ele>559</ele>
        <time>2019-03-03T13:12:18Z</time>
      </trkpt>
      <trkpt lat="43.54006" lon="2.95127">
        <ele>560</ele>
        <time>2019-03-03T13:12:19Z</time>
      </trkpt>
      <trkpt lat="43.54005" lon="2.95125">
        <ele>560</ele>
        <time>2019-03-03T13:12:20Z</time>
      </trkpt>
      <trkpt lat="43.54005" lon="2.95122">
        <ele>560</ele>
        <time>2019-03-03T13:12:21Z</time>
      </trkpt>
      <trkpt lat="43.54004" lon="2.95119">
        <ele>561</ele>
        <time>2019-03-03T13:12:22Z</time>
      </trkpt>
      <trkpt lat="43.54003" lon="2.95117">
        <ele>561</ele>
        <time>2019-03-03T13:12:23Z</time>
      </trkpt>
      <trkpt lat="43.54002" lon="2.95114">
        <ele>561</ele>
        <time>2019-03-03T13:12:24Z</time>
      </trkpt>
      <trkpt lat="43.54001" lon="2.95111">
        <ele>562</ele>
        <time>2019-03-03T13:12:25Z</time>
      </trkpt>
      <trkpt lat="43.54" lon="2.95108">
        <ele>562</ele>
        <time>2019-03-03T13:12:26Z</time>
      </trkpt>
      <trkpt lat="43.53999" lon="2.95105">
        <ele>562</ele>
        <time>2019-03-03T13:12:27Z</time>
      </trkpt>
      <trkpt lat="43.53997" lon="2.95102">
        <ele>562</ele>
        <time>2019-03-03T13:12:28Z</time>
      </trkpt>
      <trkpt lat="43.53996" lon="2.95099">
        <ele>563</ele>
        <time>2019-03-03T13:12:29Z</time>
      </trkpt>
      <trkpt lat="43.53994" lon="2.95097">
        <ele>563</ele>
        <time>2019-03-03T13:12:30Z</time>
      </trkpt>
      <trkpt lat="43.53992" lon="2.95094">
        <ele>563</ele>
        <time>2019-03-03T13:12:31Z</time>
      </trkpt>
      <trkpt lat="43.53991" lon="2.95091">
        <ele>563</ele>
        <time>2019-03-03T13:12:32Z</time>
      </trkpt>
      <trkpt lat="43.5399" lon="2.95088">
        <ele>563</ele>
        <time>2019-03-03T13:12:33Z</time>
      </trkpt>
      <trkpt lat="43.53989" lon="2.95085">
        <ele>564</ele>
        <time>2019-03-03T13:12:34Z</time>
      </trkpt>
      <trkpt lat="43.53989" lon="2.95082">
        <ele>564</ele>
        <time>2019-03-03T13:12:35Z</time>
      </trkpt>
      <trkpt lat="43.53989" lon="2.95079">
        <ele>564</ele>
        <time>2019-03-03T13:12:36Z</time>
      </trkpt>
      <trkpt lat="43.53989" lon="2.95075">
        <ele>564</ele>
        <time>2019-03-03T13:12:37Z</time>
      </trkpt>
      <trkpt lat="43.53989" lon="2.95072">
        <ele>565</ele>
        <time>2019-03-03T13:12:38Z</time>
      </trkpt>
      <trkpt lat="43.5399" lon="2.95068">
        <ele>565</ele>
        <time>2019-03-03T13:12:39Z</time>
      </trkpt>
      <trkpt lat="43.5399" lon="2.95065">
        <ele>565</ele>
        <time>2019-03-03T13:12:40Z</time>
      </trkpt>
      <trkpt lat="43.5399" lon="2.95061">
        <ele>565</ele>
        <time>2019-03-03T13:12:41Z</time>
      </trkpt>
      <trkpt lat="43.5399" lon="2.95057">
        <ele>566</ele>
        <time>2019-03-03T13:12:42Z</time>
      </trkpt>
      <trkpt lat="43.5399" lon="2.95054">
        <ele>566</ele>
        <time>2019-03-03T13:12:43Z</time>
      </trkpt>
      <trkpt lat="43.53989" lon="2.9505">
        <ele>566</ele>
        <time>2019-03-03T13:12:44Z</time>
      </trkpt>
      <trkpt lat="43.53989" lon="2.95046">
        <ele>566</ele>
        <time>2019-03-03T13:12:45Z</time>
      </trkpt>
      <trkpt lat="43.5399" lon="2.95043">
        <ele>566</ele>
        <time>2019-03-03T13:12:46Z</time>
      </trkpt>
      <trkpt lat="43.5399" lon="2.9504">
        <ele>566</ele>
        <time>2019-03-03T13:12:47Z</time>
      </trkpt>
      <trkpt lat="43.53991" lon="2.95037">
        <ele>566</ele>
        <time>2019-03-03T13:12:48Z</time>
      </trkpt>
      <trkpt lat="43.53993" lon="2.95035">
        <ele>566</ele>
        <time>2019-03-03T13:12:49Z</time>
      </trkpt>
      <trkpt lat="43.53995" lon="2.95032">
        <ele>567</ele>
        <time>2019-03-03T13:12:50Z</time>
      </trkpt>
      <trkpt lat="43.53997" lon="2.9503">
        <ele>567</ele>
        <time>2019-03-03T13:12:51Z</time>
      </trkpt>
      <trkpt lat="43.53999" lon="2.95029">
        <ele>567</ele>
        <time>2019-03-03T13:12:52Z</time>
      </trkpt>
      <trkpt lat="43.54002" lon="2.95028">
        <ele>567</ele>
        <time>2019-03-03T13:12:53Z</time>
      </trkpt>
      <trkpt lat="43.54004" lon="2.95026">
        <ele>567</ele>
        <time>2019-03-03T13:12:54Z</time>
      </trkpt>
      <trkpt lat="43.54006" lon="2.95025">
        <ele>567</ele>
        <time>2019-03-03T13:12:55Z</time>
      </trkpt>
      <trkpt lat="43.54008" lon="2.95024">
        <ele>568</ele>
        <time>2019-03-03T13:12:56Z</time>
      </trkpt>
      <trkpt lat="43.5401" lon="2.95023">
        <ele>568</ele>
        <time>2019-03-03T13:12:57Z</time>
      </trkpt>
      <trkpt lat="43.54012" lon="2.95022">
        <ele>567</ele>
        <time>2019-03-03T13:12:58Z</time>
      </trkpt>
      <trkpt lat="43.54014" lon="2.95021">
        <ele>568</ele>
        <time>2019-03-03T13:12:59Z</time>
      </trkpt>
      <trkpt lat="43.54016" lon="2.9502">
        <ele>568</ele>
        <time>2019-03-03T13:13:00Z</time>
      </trkpt>
      <trkpt lat="43.54018" lon="2.95019">
        <ele>568</ele>
        <time>2019-03-03T13:13:01Z</time>
      </trkpt>
      <trkpt lat="43.54019" lon="2.95017">
        <ele>568</ele>
        <time>2019-03-03T13:13:02Z</time>
      </trkpt>
      <trkpt lat="43.54021" lon="2.95015">
        <ele>568</ele>
        <time>2019-03-03T13:13:03Z</time>
      </trkpt>
      <trkpt lat="43.54023" lon="2.95013">
        <ele>568</ele>
        <time>2019-03-03T13:13:04Z</time>
      </trkpt>
      <trkpt lat="43.54024" lon="2.95011">
        <ele>568</ele>
        <time>2019-03-03T13:13:05Z</time>
      </trkpt>
      <trkpt lat="43.54026" lon="2.95008">
        <ele>569</ele>
        <time>2019-03-03T13:13:06Z</time>
      </trkpt>
      <trkpt lat="43.54027" lon="2.95005">
        <ele>569</ele>
        <time>2019-03-03T13:13:07Z</time>
      </trkpt>
      <trkpt lat="43.54028" lon="2.95002">
        <ele>569</ele>
        <time>2019-03-03T13:13:08Z</time>
      </trkpt>
      <trkpt lat="43.54029" lon="2.94999">
        <ele>569</ele>
        <time>2019-03-03T13:13:09Z</time>
      </trkpt>
      <trkpt lat="43.5403" lon="2.94996">
        <ele>570</ele>
        <time>2019-03-03T13:13:10Z</time>
      </trkpt>
      <trkpt lat="43.54031" lon="2.94993">
        <ele>570</ele>
        <time>2019-03-03T13:13:11Z</time>
      </trkpt>
      <trkpt lat="43.54031" lon="2.9499">
        <ele>570</ele>
        <time>2019-03-03T13:13:12Z</time>
      </trkpt>
      <trkpt lat="43.54032" lon="2.94987">
        <ele>570</ele>
        <time>2019-03-03T13:13:13Z</time>
      </trkpt>
      <trkpt lat="43.54032" lon="2.94985">
        <ele>570</ele>
        <time>2019-03-03T13:13:14Z</time>
      </trkpt>
      <trkpt lat="43.54032" lon="2.94982">
        <ele>571</ele>
        <time>2019-03-03T13:13:15Z</time>
      </trkpt>
      <trkpt lat="43.54032" lon="2.94978">
        <ele>571</ele>
        <time>2019-03-03T13:13:16Z</time>
      </trkpt>
      <trkpt lat="43.54032" lon="2.94976">
        <ele>571</ele>
        <time>2019-03-03T13:13:17Z</time>
      </trkpt>
      <trkpt lat="43.54032" lon="2.94973">
        <ele>571</ele>
        <time>2019-03-03T13:13:18Z</time>
      </trkpt>
      <trkpt lat="43.54031" lon="2.9497">
        <ele>572</ele>
        <time>2019-03-03T13:13:19Z</time>
      </trkpt>
      <trkpt lat="43.54031" lon="2.94966">
        <ele>572</ele>
        <time>2019-03-03T13:13:20Z</time>
      </trkpt>
      <trkpt lat="43.54031" lon="2.94963">
        <ele>572</ele>
        <time>2019-03-03T13:13:21Z</time>
      </trkpt>
      <trkpt lat="43.54031" lon="2.9496">
        <ele>572</ele>
        <time>2019-03-03T13:13:22Z</time>
      </trkpt>
      <trkpt lat="43.5403" lon="2.94956">
        <ele>573</ele>
        <time>2019-03-03T13:13:23Z</time>
      </trkpt>
      <trkpt lat="43.5403" lon="2.94953">
        <ele>574</ele>
        <time>2019-03-03T13:13:24Z</time>
      </trkpt>
      <trkpt lat="43.54031" lon="2.94949">
        <ele>574</ele>
        <time>2019-03-03T13:13:25Z</time>
      </trkpt>
      <trkpt lat="43.54032" lon="2.94946">
        <ele>574</ele>
        <time>2019-03-03T13:13:26Z</time>
      </trkpt>
      <trkpt lat="43.54033" lon="2.94943">
        <ele>575</ele>
        <time>2019-03-03T13:13:27Z</time>
      </trkpt>
      <trkpt lat="43.54034" lon="2.94941">
        <ele>575</ele>
        <time>2019-03-03T13:13:28Z</time>
      </trkpt>
      <trkpt lat="43.54035" lon="2.94938">
        <ele>575</ele>
        <time>2019-03-03T13:13:29Z</time>
      </trkpt>
      <trkpt lat="43.54035" lon="2.94935">
        <ele>575</ele>
        <time>2019-03-03T13:13:30Z</time>
      </trkpt>
      <trkpt lat="43.54036" lon="2.94932">
        <ele>576</ele>
        <time>2019-03-03T13:13:31Z</time>
      </trkpt>
      <trkpt lat="43.54036" lon="2.94929">
        <ele>576</ele>
        <time>2019-03-03T13:13:32Z</time>
      </trkpt>
      <trkpt lat="43.54037" lon="2.94926">
        <ele>576</ele>
        <time>2019-03-03T13:13:33Z</time>
      </trkpt>
      <trkpt lat="43.54037" lon="2.94923">
        <ele>576</ele>
        <time>2019-03-03T13:13:34Z</time>
      </trkpt>
      <trkpt lat="43.54037" lon="2.94919">
        <ele>576</ele>
        <time>2019-03-03T13:13:35Z</time>
      </trkpt>
      <trkpt lat="43.54038" lon="2.94916">
        <ele>577</ele>
        <time>2019-03-03T13:13:36Z</time>
      </trkpt>
      <trkpt lat="43.54038" lon="2.94913">
        <ele>577</ele>
        <time>2019-03-03T13:13:37Z</time>
      </trkpt>
      <trkpt lat="43.54038" lon="2.9491">
        <ele>577</ele>
        <time>2019-03-03T13:13:38Z</time>
      </trkpt>
      <trkpt lat="43.54038" lon="2.94907">
        <ele>577</ele>
        <time>2019-03-03T13:13:39Z</time>
      </trkpt>
      <trkpt lat="43.54037" lon="2.94903">
        <ele>578</ele>
        <time>2019-03-03T13:13:40Z</time>
      </trkpt>
      <trkpt lat="43.54037" lon="2.949">
        <ele>578</ele>
        <time>2019-03-03T13:13:41Z</time>
      </trkpt>
      <trkpt lat="43.54037" lon="2.94897">
        <ele>578</ele>
        <time>2019-03-03T13:13:42Z</time>
      </trkpt>
      <trkpt lat="43.54037" lon="2.94894">
        <ele>578</ele>
        <time>2019-03-03T13:13:43Z</time>
      </trkpt>
      <trkpt lat="43.54037" lon="2.94891">
        <ele>578</ele>
        <time>2019-03-03T13:13:44Z</time>
      </trkpt>
      <trkpt lat="43.54037" lon="2.94888">
        <ele>579</ele>
        <time>2019-03-03T13:13:45Z</time>
      </trkpt>
      <trkpt lat="43.54037" lon="2.94885">
        <ele>579</ele>
        <time>2019-03-03T13:13:46Z</time>
      </trkpt>
      <trkpt lat="43.54037" lon="2.94883">
        <ele>579</ele>
        <time>2019-03-03T13:13:47Z</time>
      </trkpt>
      <trkpt lat="43.54036" lon="2.9488">
        <ele>579</ele>
        <time>2019-03-03T13:13:48Z</time>
      </trkpt>
      <trkpt lat="43.54037" lon="2.94877">
        <ele>579</ele>
        <time>2019-03-03T13:13:49Z</time>
      </trkpt>
      <trkpt lat="43.54037" lon="2.94875">
        <ele>580</ele>
        <time>2019-03-03T13:13:50Z</time>
      </trkpt>
      <trkpt lat="43.54037" lon="2.94872">
        <ele>580</ele>
        <time>2019-03-03T13:13:51Z</time>
      </trkpt>
      <trkpt lat="43.54037" lon="2.94869">
        <ele>580</ele>
        <time>2019-03-03T13:13:52Z</time>
      </trkpt>
      <trkpt lat="43.54038" lon="2.94867">
        <ele>580</ele>
        <time>2019-03-03T13:13:53Z</time>
      </trkpt>
      <trkpt lat="43.54039" lon="2.94865">
        <ele>580</ele>
        <time>2019-03-03T13:13:54Z</time>
      </trkpt>
      <trkpt lat="43.5404" lon="2.94862">
        <ele>580</ele>
        <time>2019-03-03T13:13:55Z</time>
      </trkpt>
      <trkpt lat="43.54042" lon="2.9486">
        <ele>581</ele>
        <time>2019-03-03T13:13:56Z</time>
      </trkpt>
      <trkpt lat="43.54043" lon="2.94859">
        <ele>581</ele>
        <time>2019-03-03T13:13:57Z</time>
      </trkpt>
      <trkpt lat="43.54045" lon="2.94857">
        <ele>581</ele>
        <time>2019-03-03T13:13:58Z</time>
      </trkpt>
      <trkpt lat="43.54047" lon="2.94856">
        <ele>581</ele>
        <time>2019-03-03T13:13:59Z</time>
      </trkpt>
      <trkpt lat="43.54049" lon="2.94854">
        <ele>581</ele>
        <time>2019-03-03T13:14:00Z</time>
      </trkpt>
      <trkpt lat="43.54051" lon="2.94852">
        <ele>581</ele>
        <time>2019-03-03T13:14:01Z</time>
      </trkpt>
      <trkpt lat="43.54052" lon="2.9485">
        <ele>581</ele>
        <time>2019-03-03T13:14:02Z</time>
      </trkpt>
      <trkpt lat="43.54054" lon="2.94848">
        <ele>581</ele>
        <time>2019-03-03T13:14:03Z</time>
      </trkpt>
      <trkpt lat="43.54055" lon="2.94846">
        <ele>582</ele>
        <time>2019-03-03T13:14:04Z</time>
      </trkpt>
      <trkpt lat="43.54057" lon="2.94844">
        <ele>582</ele>
        <time>2019-03-03T13:14:05Z</time>
      </trkpt>
      <trkpt lat="43.54058" lon="2.94842">
        <ele>582</ele>
        <time>2019-03-03T13:14:06Z</time>
      </trkpt>
      <trkpt lat="43.54059" lon="2.9484">
        <ele>582</ele>
        <time>2019-03-03T13:14:07Z</time>
      </trkpt>
      <trkpt lat="43.5406" lon="2.94838">
        <ele>582</ele>
        <time>2019-03-03T13:14:08Z</time>
      </trkpt>
      <trkpt lat="43.54061" lon="2.94836">
        <ele>582</ele>
        <time>2019-03-03T13:14:09Z</time>
      </trkpt>
      <trkpt lat="43.54063" lon="2.94833">
        <ele>582</ele>
        <time>2019-03-03T13:14:10Z</time>
      </trkpt>
      <trkpt lat="43.54064" lon="2.94832">
        <ele>582</ele>
        <time>2019-03-03T13:14:11Z</time>
      </trkpt>
      <trkpt lat="43.54065" lon="2.9483">
        <ele>582</ele>
        <time>2019-03-03T13:14:12Z</time>
      </trkpt>
      <trkpt lat="43.54067" lon="2.94828">
        <ele>582</ele>
        <time>2019-03-03T13:14:13Z</time>
      </trkpt>
      <trkpt lat="43.54068" lon="2.94826">
        <ele>583</ele>
        <time>2019-03-03T13:14:14Z</time>
      </trkpt>
      <trkpt lat="43.54069" lon="2.94824">
        <ele>583</ele>
        <time>2019-03-03T13:14:15Z</time>
      </trkpt>
      <trkpt lat="43.54071" lon="2.94822">
        <ele>583</ele>
        <time>2019-03-03T13:14:16Z</time>
      </trkpt>
      <trkpt lat="43.54072" lon="2.94821">
        <ele>583</ele>
        <time>2019-03-03T13:14:17Z</time>
      </trkpt>
      <trkpt lat="43.54074" lon="2.94819">
        <ele>584</ele>
        <time>2019-03-03T13:14:18Z</time>
      </trkpt>
      <trkpt lat="43.54075" lon="2.94817">
        <ele>584</ele>
        <time>2019-03-03T13:14:19Z</time>
      </trkpt>
      <trkpt lat="43.54077" lon="2.94816">
        <ele>584</ele>
        <time>2019-03-03T13:14:20Z</time>
      </trkpt>
      <trkpt lat="43.54079" lon="2.94814">
        <ele>584</ele>
        <time>2019-03-03T13:14:21Z</time>
      </trkpt>
      <trkpt lat="43.54081" lon="2.94812">
        <ele>584</ele>
        <time>2019-03-03T13:14:22Z</time>
      </trkpt>
      <trkpt lat="43.54083" lon="2.9481">
        <ele>585</ele>
        <time>2019-03-03T13:14:23Z</time>
      </trkpt>
      <trkpt lat="43.54084" lon="2.94808">
        <ele>585</ele>
        <time>2019-03-03T13:14:24Z</time>
      </trkpt>
      <trkpt lat="43.54086" lon="2.94806">
        <ele>585</ele>
        <time>2019-03-03T13:14:25Z</time>
      </trkpt>
      <trkpt lat="43.54087" lon="2.94803">
        <ele>586</ele>
        <time>2019-03-03T13:14:26Z</time>
      </trkpt>
      <trkpt lat="43.54089" lon="2.94801">
        <ele>586</ele>
        <time>2019-03-03T13:14:27Z</time>
      </trkpt>
      <trkpt lat="43.54091" lon="2.94799">
        <ele>586</ele>
        <time>2019-03-03T13:14:28Z</time>
      </trkpt>
      <trkpt lat="43.54092" lon="2.94797">
        <ele>586</ele>
        <time>2019-03-03T13:14:29Z</time>
      </trkpt>
      <trkpt lat="43.54094" lon="2.94795">
        <ele>586</ele>
        <time>2019-03-03T13:14:30Z</time>
      </trkpt>
      <trkpt lat="43.54096" lon="2.94793">
        <ele>587</ele>
        <time>2019-03-03T13:14:31Z</time>
      </trkpt>
      <trkpt lat="43.54097" lon="2.9479">
        <ele>587</ele>
        <time>2019-03-03T13:14:32Z</time>
      </trkpt>
      <trkpt lat="43.54098" lon="2.94788">
        <ele>587</ele>
        <time>2019-03-03T13:14:33Z</time>
      </trkpt>
      <trkpt lat="43.541" lon="2.94785">
        <ele>587</ele>
        <time>2019-03-03T13:14:34Z</time>
      </trkpt>
      <trkpt lat="43.54101" lon="2.94782">
        <ele>587</ele>
        <time>2019-03-03T13:14:35Z</time>
      </trkpt>
      <trkpt lat="43.54102" lon="2.94779">
        <ele>587</ele>
        <time>2019-03-03T13:14:36Z</time>
      </trkpt>
      <trkpt lat="43.54103" lon="2.94776">
        <ele>587</ele>
        <time>2019-03-03T13:14:37Z</time>
      </trkpt>
      <trkpt lat="43.54104" lon="2.94773">
        <ele>587</ele>
        <time>2019-03-03T13:14:38Z</time>
      </trkpt>
      <trkpt lat="43.54105" lon="2.9477">
        <ele>588</ele>
        <time>2019-03-03T13:14:39Z</time>
      </trkpt>
      <trkpt lat="43.54106" lon="2.94767">
        <ele>588</ele>
        <time>2019-03-03T13:14:40Z</time>
      </trkpt>
      <trkpt lat="43.54106" lon="2.94764">
        <ele>588</ele>
        <time>2019-03-03T13:14:41Z</time>
      </trkpt>
      <trkpt lat="43.54107" lon="2.94761">
        <ele>588</ele>
        <time>2019-03-03T13:14:42Z</time>
      </trkpt>
      <trkpt lat="43.54108" lon="2.94759">
        <ele>588</ele>
        <time>2019-03-03T13:14:43Z</time>
      </trkpt>
      <trkpt lat="43.54109" lon="2.94756">
        <ele>589</ele>
        <time>2019-03-03T13:14:44Z</time>
      </trkpt>
      <trkpt lat="43.54109" lon="2.94754">
        <ele>589</ele>
        <time>2019-03-03T13:14:45Z</time>
      </trkpt>
      <trkpt lat="43.5411" lon="2.94752">
        <ele>589</ele>
        <time>2019-03-03T13:14:46Z</time>
      </trkpt>
      <trkpt lat="43.54111" lon="2.94749">
        <ele>589</ele>
        <time>2019-03-03T13:14:47Z</time>
      </trkpt>
      <trkpt lat="43.54112" lon="2.94746">
        <ele>589</ele>
        <time>2019-03-03T13:14:48Z</time>
      </trkpt>
      <trkpt lat="43.54112" lon="2.94743">
        <ele>589</ele>
        <time>2019-03-03T13:14:49Z</time>
      </trkpt>
      <trkpt lat="43.54113" lon="2.9474">
        <ele>589</ele>
        <time>2019-03-03T13:14:50Z</time>
      </trkpt>
      <trkpt lat="43.54113" lon="2.94737">
        <ele>590</ele>
        <time>2019-03-03T13:14:51Z</time>
      </trkpt>
      <trkpt lat="43.54114" lon="2.94734">
        <ele>590</ele>
        <time>2019-03-03T13:14:52Z</time>
      </trkpt>
      <trkpt lat="43.54115" lon="2.94731">
        <ele>590</ele>
        <time>2019-03-03T13:14:53Z</time>
      </trkpt>
      <trkpt lat="43.54115" lon="2.94728">
        <ele>590</ele>
        <time>2019-03-03T13:14:54Z</time>
      </trkpt>
      <trkpt lat="43.54115" lon="2.94725">
        <ele>590</ele>
        <time>2019-03-03T13:14:55Z</time>
      </trkpt>
      <trkpt lat="43.54115" lon="2.94723">
        <ele>590</ele>
        <time>2019-03-03T13:14:56Z</time>
      </trkpt>
      <trkpt lat="43.54116" lon="2.94721">
        <ele>591</ele>
        <time>2019-03-03T13:14:57Z</time>
      </trkpt>
      <trkpt lat="43.54116" lon="2.94719">
        <ele>591</ele>
        <time>2019-03-03T13:14:58Z</time>
      </trkpt>
      <trkpt lat="43.54117" lon="2.94717">
        <ele>591</ele>
        <time>2019-03-03T13:14:59Z</time>
      </trkpt>
      <trkpt lat="43.54117" lon="2.94714">
        <ele>591</ele>
        <time>2019-03-03T13:15:00Z</time>
      </trkpt>
      <trkpt lat="43.54117" lon="2.94712">
        <ele>591</ele>
        <time>2019-03-03T13:15:01Z</time>
      </trkpt>
      <trkpt lat="43.54117" lon="2.9471">
        <ele>591</ele>
        <time>2019-03-03T13:15:02Z</time>
      </trkpt>
      <trkpt lat="43.54117" lon="2.94708">
        <ele>592</ele>
        <time>2019-03-03T13:15:03Z</time>
      </trkpt>
      <trkpt lat="43.54117" lon="2.94704">
        <ele>592</ele>
        <time>2019-03-03T13:15:04Z</time>
      </trkpt>
      <trkpt lat="43.54117" lon="2.94702">
        <ele>592</ele>
        <time>2019-03-03T13:15:05Z</time>
      </trkpt>
      <trkpt lat="43.54117" lon="2.94699">
        <ele>592</ele>
        <time>2019-03-03T13:15:06Z</time>
      </trkpt>
      <trkpt lat="43.54117" lon="2.94696">
        <ele>592</ele>
        <time>2019-03-03T13:15:07Z</time>
      </trkpt>
      <trkpt lat="43.54117" lon="2.94693">
        <ele>592</ele>
        <time>2019-03-03T13:15:08Z</time>
      </trkpt>
      <trkpt lat="43.54117" lon="2.9469">
        <ele>593</ele>
        <time>2019-03-03T13:15:09Z</time>
      </trkpt>
      <trkpt lat="43.54117" lon="2.94687">
        <ele>593</ele>
        <time>2019-03-03T13:15:10Z</time>
      </trkpt>
      <trkpt lat="43.54117" lon="2.94684">
        <ele>593</ele>
        <time>2019-03-03T13:15:11Z</time>
      </trkpt>
      <trkpt lat="43.54117" lon="2.9468">
        <ele>593</ele>
        <time>2019-03-03T13:15:12Z</time>
      </trkpt>
      <trkpt lat="43.54117" lon="2.94677">
        <ele>593</ele>
        <time>2019-03-03T13:15:13Z</time>
      </trkpt>
      <trkpt lat="43.54118" lon="2.94674">
        <ele>593</ele>
        <time>2019-03-03T13:15:14Z</time>
      </trkpt>
      <trkpt lat="43.54118" lon="2.94671">
        <ele>594</ele>
        <time>2019-03-03T13:15:15Z</time>
      </trkpt>
      <trkpt lat="43.54118" lon="2.94669">
        <ele>594</ele>
        <time>2019-03-03T13:15:16Z</time>
      </trkpt>
      <trkpt lat="43.54119" lon="2.94666">
        <ele>594</ele>
        <time>2019-03-03T13:15:17Z</time>
      </trkpt>
      <trkpt lat="43.54119" lon="2.94663">
        <ele>594</ele>
        <time>2019-03-03T13:15:18Z</time>
      </trkpt>
      <trkpt lat="43.54119" lon="2.9466">
        <ele>594</ele>
        <time>2019-03-03T13:15:19Z</time>
      </trkpt>
      <trkpt lat="43.54119" lon="2.94657">
        <ele>595</ele>
        <time>2019-03-03T13:15:20Z</time>
      </trkpt>
      <trkpt lat="43.54119" lon="2.94654">
        <ele>595</ele>
        <time>2019-03-03T13:15:21Z</time>
      </trkpt>
      <trkpt lat="43.54119" lon="2.9465">
        <ele>595</ele>
        <time>2019-03-03T13:15:22Z</time>
      </trkpt>
      <trkpt lat="43.54119" lon="2.94647">
        <ele>595</ele>
        <time>2019-03-03T13:15:23Z</time>
      </trkpt>
      <trkpt lat="43.5412" lon="2.94644">
        <ele>596</ele>
        <time>2019-03-03T13:15:24Z</time>
      </trkpt>
      <trkpt lat="43.5412" lon="2.94641">
        <ele>596</ele>
        <time>2019-03-03T13:15:25Z</time>
      </trkpt>
      <trkpt lat="43.5412" lon="2.94639">
        <ele>596</ele>
        <time>2019-03-03T13:15:26Z</time>
      </trkpt>
      <trkpt lat="43.5412" lon="2.94636">
        <ele>597</ele>
        <time>2019-03-03T13:15:27Z</time>
      </trkpt>
      <trkpt lat="43.5412" lon="2.94633">
        <ele>597</ele>
        <time>2019-03-03T13:15:28Z</time>
      </trkpt>
      <trkpt lat="43.5412" lon="2.9463">
        <ele>597</ele>
        <time>2019-03-03T13:15:29Z</time>
      </trkpt>
      <trkpt lat="43.5412" lon="2.94627">
        <ele>597</ele>
        <time>2019-03-03T13:15:30Z</time>
      </trkpt>
      <trkpt lat="43.54119" lon="2.94624">
        <ele>598</ele>
        <time>2019-03-03T13:15:31Z</time>
      </trkpt>
      <trkpt lat="43.54119" lon="2.94621">
        <ele>598</ele>
        <time>2019-03-03T13:15:32Z</time>
      </trkpt>
      <trkpt lat="43.54119" lon="2.94618">
        <ele>598</ele>
        <time>2019-03-03T13:15:33Z</time>
      </trkpt>
      <trkpt lat="43.54119" lon="2.94615">
        <ele>598</ele>
        <time>2019-03-03T13:15:34Z</time>
      </trkpt>
      <trkpt lat="43.54119" lon="2.94611">
        <ele>599</ele>
        <time>2019-03-03T13:15:35Z</time>
      </trkpt>
      <trkpt lat="43.54119" lon="2.94607">
        <ele>599</ele>
        <time>2019-03-03T13:15:36Z</time>
      </trkpt>
      <trkpt lat="43.54119" lon="2.94604">
        <ele>599</ele>
        <time>2019-03-03T13:15:37Z</time>
      </trkpt>
      <trkpt lat="43.54119" lon="2.94601">
        <ele>599</ele>
        <time>2019-03-03T13:15:38Z</time>
      </trkpt>
      <trkpt lat="43.54119" lon="2.94598">
        <ele>599</ele>
        <time>2019-03-03T13:15:39Z</time>
      </trkpt>
      <trkpt lat="43.5412" lon="2.94595">
        <ele>599</ele>
        <time>2019-03-03T13:15:40Z</time>
      </trkpt>
      <trkpt lat="43.54121" lon="2.94592">
        <ele>599</ele>
        <time>2019-03-03T13:15:41Z</time>
      </trkpt>
      <trkpt lat="43.54122" lon="2.94589">
        <ele>600</ele>
        <time>2019-03-03T13:15:42Z</time>
      </trkpt>
      <trkpt lat="43.54123" lon="2.94587">
        <ele>600</ele>
        <time>2019-03-03T13:15:43Z</time>
      </trkpt>
      <trkpt lat="43.54125" lon="2.94584">
        <ele>600</ele>
        <time>2019-03-03T13:15:44Z</time>
      </trkpt>
      <trkpt lat="43.54127" lon="2.94581">
        <ele>600</ele>
        <time>2019-03-03T13:15:45Z</time>
      </trkpt>
      <trkpt lat="43.54128" lon="2.94578">
        <ele>600</ele>
        <time>2019-03-03T13:15:46Z</time>
      </trkpt>
      <trkpt lat="43.5413" lon="2.94575">
        <ele>600</ele>
        <time>2019-03-03T13:15:47Z</time>
      </trkpt>
      <trkpt lat="43.54132" lon="2.94572">
        <ele>600</ele>
        <time>2019-03-03T13:15:48Z</time>
      </trkpt>
      <trkpt lat="43.54134" lon="2.94569">
        <ele>600</ele>
        <time>2019-03-03T13:15:49Z</time>
      </trkpt>
      <trkpt lat="43.54135" lon="2.94567">
        <ele>600</ele>
        <time>2019-03-03T13:15:50Z</time>
      </trkpt>
      <trkpt lat="43.54137" lon="2.94564">
        <ele>600</ele>
        <time>2019-03-03T13:15:51Z</time>
      </trkpt>
      <trkpt lat="43.54139" lon="2.94562">
        <ele>600</ele>
        <time>2019-03-03T13:15:52Z</time>
      </trkpt>
      <trkpt lat="43.54141" lon="2.94559">
        <ele>601</ele>
        <time>2019-03-03T13:15:53Z</time>
      </trkpt>
      <trkpt lat="43.54143" lon="2.94556">
        <ele>601</ele>
        <time>2019-03-03T13:15:54Z</time>
      </trkpt>
      <trkpt lat="43.54145" lon="2.94553">
        <ele>601</ele>
        <time>2019-03-03T13:15:55Z</time>
      </trkpt>
      <trkpt lat="43.54147" lon="2.9455">
        <ele>601</ele>
        <time>2019-03-03T13:15:56Z</time>
      </trkpt>
      <trkpt lat="43.54149" lon="2.94548">
        <ele>601</ele>
        <time>2019-03-03T13:15:57Z</time>
      </trkpt>
      <trkpt lat="43.54151" lon="2.94545">
        <ele>601</ele>
        <time>2019-03-03T13:15:58Z</time>
      </trkpt>
      <trkpt lat="43.54153" lon="2.94542">
        <ele>601</ele>
        <time>2019-03-03T13:15:59Z</time>
      </trkpt>
      <trkpt lat="43.54155" lon="2.94539">
        <ele>601</ele>
        <time>2019-03-03T13:16:00Z</time>
      </trkpt>
      <trkpt lat="43.54157" lon="2.94535">
        <ele>601</ele>
        <time>2019-03-03T13:16:01Z</time>
      </trkpt>
      <trkpt lat="43.54159" lon="2.94532">
        <ele>601</ele>
        <time>2019-03-03T13:16:02Z</time>
      </trkpt>
      <trkpt lat="43.5416" lon="2.9453">
        <ele>601</ele>
        <time>2019-03-03T13:16:03Z</time>
      </trkpt>
      <trkpt lat="43.54162" lon="2.94527">
        <ele>601</ele>
        <time>2019-03-03T13:16:04Z</time>
      </trkpt>
      <trkpt lat="43.54163" lon="2.94524">
        <ele>601</ele>
        <time>2019-03-03T13:16:05Z</time>
      </trkpt>
      <trkpt lat="43.54164" lon="2.94522">
        <ele>601</ele>
        <time>2019-03-03T13:16:06Z</time>
      </trkpt>
      <trkpt lat="43.54165" lon="2.94519">
        <ele>601</ele>
        <time>2019-03-03T13:16:07Z</time>
      </trkpt>
      <trkpt lat="43.54166" lon="2.94516">
        <ele>601</ele>
        <time>2019-03-03T13:16:08Z</time>
      </trkpt>
      <trkpt lat="43.54167" lon="2.94512">
        <ele>601</ele>
        <time>2019-03-03T13:16:09Z</time>
      </trkpt>
      <trkpt lat="43.54168" lon="2.94509">
        <ele>600</ele>
        <time>2019-03-03T13:16:10Z</time>
      </trkpt>
      <trkpt lat="43.5417" lon="2.94505">
        <ele>600</ele>
        <time>2019-03-03T13:16:11Z</time>
      </trkpt>
      <trkpt lat="43.54171" lon="2.94502">
        <ele>600</ele>
        <time>2019-03-03T13:16:12Z</time>
      </trkpt>
      <trkpt lat="43.54172" lon="2.94498">
        <ele>600</ele>
        <time>2019-03-03T13:16:13Z</time>
      </trkpt>
      <trkpt lat="43.54173" lon="2.94494">
        <ele>600</ele>
        <time>2019-03-03T13:16:14Z</time>
      </trkpt>
      <trkpt lat="43.54174" lon="2.9449">
        <ele>600</ele>
        <time>2019-03-03T13:16:15Z</time>
      </trkpt>
      <trkpt lat="43.54175" lon="2.94486">
        <ele>600</ele>
        <time>2019-03-03T13:16:16Z</time>
      </trkpt>
      <trkpt lat="43.54176" lon="2.94481">
        <ele>600</ele>
        <time>2019-03-03T13:16:17Z</time>
      </trkpt>
      <trkpt lat="43.54177" lon="2.94478">
        <ele>601</ele>
        <time>2019-03-03T13:16:18Z</time>
      </trkpt>
      <trkpt lat="43.54178" lon="2.94474">
        <ele>601</ele>
        <time>2019-03-03T13:16:19Z</time>
      </trkpt>
      <trkpt lat="43.54178" lon="2.94469">
        <ele>601</ele>
        <time>2019-03-03T13:16:20Z</time>
      </trkpt>
      <trkpt lat="43.54179" lon="2.94465">
        <ele>601</ele>
        <time>2019-03-03T13:16:21Z</time>
      </trkpt>
      <trkpt lat="43.54179" lon="2.94461">
        <ele>601</ele>
        <time>2019-03-03T13:16:22Z</time>
      </trkpt>
      <trkpt lat="43.54179" lon="2.94457">
        <ele>601</ele>
        <time>2019-03-03T13:16:23Z</time>
      </trkpt>
      <trkpt lat="43.54179" lon="2.94452">
        <ele>601</ele>
        <time>2019-03-03T13:16:24Z</time>
      </trkpt>
      <trkpt lat="43.54179" lon="2.94448">
        <ele>601</ele>
        <time>2019-03-03T13:16:25Z</time>
      </trkpt>
      <trkpt lat="43.54178" lon="2.94443">
        <ele>601</ele>
        <time>2019-03-03T13:16:26Z</time>
      </trkpt>
      <trkpt lat="43.54177" lon="2.94439">
        <ele>601</ele>
        <time>2019-03-03T13:16:27Z</time>
      </trkpt>
      <trkpt lat="43.54175" lon="2.94435">
        <ele>601</ele>
        <time>2019-03-03T13:16:28Z</time>
      </trkpt>
      <trkpt lat="43.54174" lon="2.94432">
        <ele>601</ele>
        <time>2019-03-03T13:16:29Z</time>
      </trkpt>
      <trkpt lat="43.54173" lon="2.94428">
        <ele>601</ele>
        <time>2019-03-03T13:16:30Z</time>
      </trkpt>
      <trkpt lat="43.54171" lon="2.94425">
        <ele>601</ele>
        <time>2019-03-03T13:16:31Z</time>
      </trkpt>
      <trkpt lat="43.5417" lon="2.94421">
        <ele>601</ele>
        <time>2019-03-03T13:16:32Z</time>
      </trkpt>
      <trkpt lat="43.54168" lon="2.94417">
        <ele>602</ele>
        <time>2019-03-03T13:16:33Z</time>
      </trkpt>
      <trkpt lat="43.54166" lon="2.94414">
        <ele>602</ele>
        <time>2019-03-03T13:16:34Z</time>
      </trkpt>
      <trkpt lat="43.54164" lon="2.9441">
        <ele>602</ele>
        <time>2019-03-03T13:16:35Z</time>
      </trkpt>
      <trkpt lat="43.54161" lon="2.94407">
        <ele>602</ele>
        <time>2019-03-03T13:16:36Z</time>
      </trkpt>
      <trkpt lat="43.54159" lon="2.94404">
        <ele>602</ele>
        <time>2019-03-03T13:16:37Z</time>
      </trkpt>
      <trkpt lat="43.54157" lon="2.94401">
        <ele>602</ele>
        <time>2019-03-03T13:16:38Z</time>
      </trkpt>
      <trkpt lat="43.54154" lon="2.94398">
        <ele>602</ele>
        <time>2019-03-03T13:16:39Z</time>
      </trkpt>
      <trkpt lat="43.54152" lon="2.94394">
        <ele>602</ele>
        <time>2019-03-03T13:16:40Z</time>
      </trkpt>
      <trkpt lat="43.54149" lon="2.94391">
        <ele>602</ele>
        <time>2019-03-03T13:16:41Z</time>
      </trkpt>
      <trkpt lat="43.54147" lon="2.94388">
        <ele>602</ele>
        <time>2019-03-03T13:16:42Z</time>
      </trkpt>
      <trkpt lat="43.54144" lon="2.94384">
        <ele>602</ele>
        <time>2019-03-03T13:16:43Z</time>
      </trkpt>
      <trkpt lat="43.54142" lon="2.94381">
        <ele>602</ele>
        <time>2019-03-03T13:16:44Z</time>
      </trkpt>
      <trkpt lat="43.5414" lon="2.94378">
        <ele>602</ele>
        <time>2019-03-03T13:16:45Z</time>
      </trkpt>
      <trkpt lat="43.54137" lon="2.94375">
        <ele>602</ele>
        <time>2019-03-03T13:16:46Z</time>
      </trkpt>
      <trkpt lat="43.54135" lon="2.94372">
        <ele>601</ele>
        <time>2019-03-03T13:16:47Z</time>
      </trkpt>
      <trkpt lat="43.54133" lon="2.94369">
        <ele>601</ele>
        <time>2019-03-03T13:16:48Z</time>
      </trkpt>
      <trkpt lat="43.5413" lon="2.94366">
        <ele>601</ele>
        <time>2019-03-03T13:16:49Z</time>
      </trkpt>
      <trkpt lat="43.54128" lon="2.94364">
        <ele>601</ele>
        <time>2019-03-03T13:16:50Z</time>
      </trkpt>
      <trkpt lat="43.54126" lon="2.94362">
        <ele>601</ele>
        <time>2019-03-03T13:16:51Z</time>
      </trkpt>
      <trkpt lat="43.54124" lon="2.94359">
        <ele>602</ele>
        <time>2019-03-03T13:16:52Z</time>
      </trkpt>
      <trkpt lat="43.54121" lon="2.94357">
        <ele>602</ele>
        <time>2019-03-03T13:16:53Z</time>
      </trkpt>
      <trkpt lat="43.54119" lon="2.94355">
        <ele>602</ele>
        <time>2019-03-03T13:16:54Z</time>
      </trkpt>
      <trkpt lat="43.54116" lon="2.94353">
        <ele>602</ele>
        <time>2019-03-03T13:16:55Z</time>
      </trkpt>
      <trkpt lat="43.54114" lon="2.9435">
        <ele>602</ele>
        <time>2019-03-03T13:16:56Z</time>
      </trkpt>
      <trkpt lat="43.54112" lon="2.94348">
        <ele>602</ele>
        <time>2019-03-03T13:16:57Z</time>
      </trkpt>
      <trkpt lat="43.54109" lon="2.94346">
        <ele>602</ele>
        <time>2019-03-03T13:16:58Z</time>
      </trkpt>
      <trkpt lat="43.54107" lon="2.94343">
        <ele>602</ele>
        <time>2019-03-03T13:16:59Z</time>
      </trkpt>
      <trkpt lat="43.54105" lon="2.94341">
        <ele>602</ele>
        <time>2019-03-03T13:17:00Z</time>
      </trkpt>
      <trkpt lat="43.54103" lon="2.94338">
        <ele>603</ele>
        <time>2019-03-03T13:17:01Z</time>
      </trkpt>
      <trkpt lat="43.54101" lon="2.94336">
        <ele>603</ele>
        <time>2019-03-03T13:17:02Z</time>
      </trkpt>
      <trkpt lat="43.54099" lon="2.94333">
        <ele>603</ele>
        <time>2019-03-03T13:17:03Z</time>
      </trkpt>
      <trkpt lat="43.54097" lon="2.9433">
        <ele>603</ele>
        <time>2019-03-03T13:17:04Z</time>
      </trkpt>
      <trkpt lat="43.54095" lon="2.94328">
        <ele>603</ele>
        <time>2019-03-03T13:17:05Z</time>
      </trkpt>
      <trkpt lat="43.54093" lon="2.94325">
        <ele>604</ele>
        <time>2019-03-03T13:17:06Z</time>
      </trkpt>
      <trkpt lat="43.5409" lon="2.94322">
        <ele>604</ele>
        <time>2019-03-03T13:17:07Z</time>
      </trkpt>
      <trkpt lat="43.54088" lon="2.94319">
        <ele>604</ele>
        <time>2019-03-03T13:17:08Z</time>
      </trkpt>
      <trkpt lat="43.54086" lon="2.94316">
        <ele>604</ele>
        <time>2019-03-03T13:17:09Z</time>
      </trkpt>
      <trkpt lat="43.54084" lon="2.94313">
        <ele>604</ele>
        <time>2019-03-03T13:17:10Z</time>
      </trkpt>
      <trkpt lat="43.54082" lon="2.9431">
        <ele>605</ele>
        <time>2019-03-03T13:17:11Z</time>
      </trkpt>
      <trkpt lat="43.5408" lon="2.94308">
        <ele>605</ele>
        <time>2019-03-03T13:17:12Z</time>
      </trkpt>
      <trkpt lat="43.54078" lon="2.94305">
        <ele>605</ele>
        <time>2019-03-03T13:17:13Z</time>
      </trkpt>
      <trkpt lat="43.54076" lon="2.94302">
        <ele>606</ele>
        <time>2019-03-03T13:17:14Z</time>
      </trkpt>
      <trkpt lat="43.54074" lon="2.94299">
        <ele>606</ele>
        <time>2019-03-03T13:17:15Z</time>
      </trkpt>
      <trkpt lat="43.54073" lon="2.94296">
        <ele>607</ele>
        <time>2019-03-03T13:17:16Z</time>
      </trkpt>
      <trkpt lat="43.54071" lon="2.94293">
        <ele>607</ele>
        <time>2019-03-03T13:17:17Z</time>
      </trkpt>
      <trkpt lat="43.5407" lon="2.94291">
        <ele>607</ele>
        <time>2019-03-03T13:17:18Z</time>
      </trkpt>
      <trkpt lat="43.54068" lon="2.94288">
        <ele>608</ele>
        <time>2019-03-03T13:17:19Z</time>
      </trkpt>
      <trkpt lat="43.54067" lon="2.94285">
        <ele>608</ele>
        <time>2019-03-03T13:17:20Z</time>
      </trkpt>
      <trkpt lat="43.54065" lon="2.94282">
        <ele>608</ele>
        <time>2019-03-03T13:17:21Z</time>
      </trkpt>
      <trkpt lat="43.54064" lon="2.94279">
        <ele>609</ele>
        <time>2019-03-03T13:17:22Z</time>
      </trkpt>
      <trkpt lat="43.54062" lon="2.94276">
        <ele>609</ele>
        <time>2019-03-03T13:17:23Z</time>
      </trkpt>
      <trkpt lat="43.54061" lon="2.94273">
        <ele>610</ele>
        <time>2019-03-03T13:17:24Z</time>
      </trkpt>
      <trkpt lat="43.5406" lon="2.9427">
        <ele>610</ele>
        <time>2019-03-03T13:17:25Z</time>
      </trkpt>
      <trkpt lat="43.54059" lon="2.94267">
        <ele>610</ele>
        <time>2019-03-03T13:17:26Z</time>
      </trkpt>
      <trkpt lat="43.54057" lon="2.94264">
        <ele>611</ele>
        <time>2019-03-03T13:17:27Z</time>
      </trkpt>
      <trkpt lat="43.54056" lon="2.94261">
        <ele>611</ele>
        <time>2019-03-03T13:17:28Z</time>
      </trkpt>
      <trkpt lat="43.54055" lon="2.94259">
        <ele>611</ele>
        <time>2019-03-03T13:17:29Z</time>
      </trkpt>
      <trkpt lat="43.54053" lon="2.94256">
        <ele>612</ele>
        <time>2019-03-03T13:17:30Z</time>
      </trkpt>
      <trkpt lat="43.54052" lon="2.94253">
        <ele>612</ele>
        <time>2019-03-03T13:17:31Z</time>
      </trkpt>
      <trkpt lat="43.5405" lon="2.9425">
        <ele>612</ele>
        <time>2019-03-03T13:17:32Z</time>
      </trkpt>
      <trkpt lat="43.54049" lon="2.94247">
        <ele>612</ele>
        <time>2019-03-03T13:17:33Z</time>
      </trkpt>
      <trkpt lat="43.54047" lon="2.94245">
        <ele>612</ele>
        <time>2019-03-03T13:17:34Z</time>
      </trkpt>
      <trkpt lat="43.54045" lon="2.94242">
        <ele>613</ele>
        <time>2019-03-03T13:17:35Z</time>
      </trkpt>
      <trkpt lat="43.54043" lon="2.9424">
        <ele>613</ele>
        <time>2019-03-03T13:17:36Z</time>
      </trkpt>
      <trkpt lat="43.54041" lon="2.94238">
        <ele>613</ele>
        <time>2019-03-03T13:17:37Z</time>
      </trkpt>
      <trkpt lat="43.54039" lon="2.94236">
        <ele>614</ele>
        <time>2019-03-03T13:17:38Z</time>
      </trkpt>
      <trkpt lat="43.54037" lon="2.94233">
        <ele>614</ele>
        <time>2019-03-03T13:17:39Z</time>
      </trkpt>
      <trkpt lat="43.54035" lon="2.94231">
        <ele>614</ele>
        <time>2019-03-03T13:17:40Z</time>
      </trkpt>
      <trkpt lat="43.54033" lon="2.94229">
        <ele>614</ele>
        <time>2019-03-03T13:17:41Z</time>
      </trkpt>
      <trkpt lat="43.54031" lon="2.94227">
        <ele>615</ele>
        <time>2019-03-03T13:17:42Z</time>
      </trkpt>
      <trkpt lat="43.54029" lon="2.94225">
        <ele>615</ele>
        <time>2019-03-03T13:17:43Z</time>
      </trkpt>
      <trkpt lat="43.54027" lon="2.94223">
        <ele>615</ele>
        <time>2019-03-03T13:17:44Z</time>
      </trkpt>
      <trkpt lat="43.54025" lon="2.94222">
        <ele>616</ele>
        <time>2019-03-03T13:17:45Z</time>
      </trkpt>
      <trkpt lat="43.54023" lon="2.9422">
        <ele>616</ele>
        <time>2019-03-03T13:17:46Z</time>
      </trkpt>
      <trkpt lat="43.54021" lon="2.94218">
        <ele>616</ele>
        <time>2019-03-03T13:17:47Z</time>
      </trkpt>
      <trkpt lat="43.5402" lon="2.94216">
        <ele>616</ele>
        <time>2019-03-03T13:17:48Z</time>
      </trkpt>
      <trkpt lat="43.54017" lon="2.94215">
        <ele>616</ele>
        <time>2019-03-03T13:17:49Z</time>
      </trkpt>
      <trkpt lat="43.54015" lon="2.94213">
        <ele>617</ele>
        <time>2019-03-03T13:17:50Z</time>
      </trkpt>
      <trkpt lat="43.54013" lon="2.94211">
        <ele>617</ele>
        <time>2019-03-03T13:17:51Z</time>
      </trkpt>
      <trkpt lat="43.54011" lon="2.9421">
        <ele>618</ele>
        <time>2019-03-03T13:17:52Z</time>
      </trkpt>
      <trkpt lat="43.54009" lon="2.94208">
        <ele>618</ele>
        <time>2019-03-03T13:17:53Z</time>
      </trkpt>
      <trkpt lat="43.54006" lon="2.94207">
        <ele>618</ele>
        <time>2019-03-03T13:17:54Z</time>
      </trkpt>
      <trkpt lat="43.54004" lon="2.94206">
        <ele>618</ele>
        <time>2019-03-03T13:17:55Z</time>
      </trkpt>
      <trkpt lat="43.54002" lon="2.94205">
        <ele>619</ele>
        <time>2019-03-03T13:17:56Z</time>
      </trkpt>
      <trkpt lat="43.53999" lon="2.94203">
        <ele>619</ele>
        <time>2019-03-03T13:17:57Z</time>
      </trkpt>
      <trkpt lat="43.53997" lon="2.94202">
        <ele>619</ele>
        <time>2019-03-03T13:17:58Z</time>
      </trkpt>
      <trkpt lat="43.53995" lon="2.942">
        <ele>620</ele>
        <time>2019-03-03T13:17:59Z</time>
      </trkpt>
      <trkpt lat="43.53992" lon="2.94199">
        <ele>620</ele>
        <time>2019-03-03T13:18:00Z</time>
      </trkpt>
      <trkpt lat="43.5399" lon="2.94197">
        <ele>620</ele>
        <time>2019-03-03T13:18:01Z</time>
      </trkpt>
      <trkpt lat="43.53988" lon="2.94195">
        <ele>620</ele>
        <time>2019-03-03T13:18:02Z</time>
      </trkpt>
      <trkpt lat="43.53986" lon="2.94194">
        <ele>621</ele>
        <time>2019-03-03T13:18:03Z</time>
      </trkpt>
      <trkpt lat="43.53983" lon="2.94192">
        <ele>621</ele>
        <time>2019-03-03T13:18:04Z</time>
      </trkpt>
      <trkpt lat="43.53981" lon="2.9419">
        <ele>621</ele>
        <time>2019-03-03T13:18:05Z</time>
      </trkpt>
      <trkpt lat="43.53979" lon="2.94187">
        <ele>621</ele>
        <time>2019-03-03T13:18:06Z</time>
      </trkpt>
      <trkpt lat="43.53977" lon="2.94185">
        <ele>621</ele>
        <time>2019-03-03T13:18:07Z</time>
      </trkpt>
      <trkpt lat="43.53975" lon="2.94183">
        <ele>621</ele>
        <time>2019-03-03T13:18:08Z</time>
      </trkpt>
      <trkpt lat="43.53972" lon="2.94181">
        <ele>621</ele>
        <time>2019-03-03T13:18:09Z</time>
      </trkpt>
      <trkpt lat="43.5397" lon="2.94179">
        <ele>621</ele>
        <time>2019-03-03T13:18:10Z</time>
      </trkpt>
      <trkpt lat="43.53968" lon="2.94177">
        <ele>621</ele>
        <time>2019-03-03T13:18:11Z</time>
      </trkpt>
      <trkpt lat="43.53966" lon="2.94175">
        <ele>621</ele>
        <time>2019-03-03T13:18:12Z</time>
      </trkpt>
      <trkpt lat="43.53964" lon="2.94173">
        <ele>621</ele>
        <time>2019-03-03T13:18:13Z</time>
      </trkpt>
      <trkpt lat="43.53963" lon="2.94171">
        <ele>621</ele>
        <time>2019-03-03T13:18:14Z</time>
      </trkpt>
      <trkpt lat="43.53961" lon="2.94169">
        <ele>622</ele>
        <time>2019-03-03T13:18:15Z</time>
      </trkpt>
      <trkpt lat="43.53959" lon="2.94167">
        <ele>622</ele>
        <time>2019-03-03T13:18:16Z</time>
      </trkpt>
      <trkpt lat="43.53957" lon="2.94165">
        <ele>622</ele>
        <time>2019-03-03T13:18:17Z</time>
      </trkpt>
      <trkpt lat="43.53956" lon="2.94163">
        <ele>622</ele>
        <time>2019-03-03T13:18:18Z</time>
      </trkpt>
      <trkpt lat="43.53954" lon="2.94161">
        <ele>622</ele>
        <time>2019-03-03T13:18:19Z</time>
      </trkpt>
      <trkpt lat="43.53952" lon="2.94159">
        <ele>622</ele>
        <time>2019-03-03T13:18:20Z</time>
      </trkpt>
      <trkpt lat="43.5395" lon="2.94157">
        <ele>622</ele>
        <time>2019-03-03T13:18:21Z</time>
      </trkpt>
      <trkpt lat="43.53948" lon="2.94154">
        <ele>622</ele>
        <time>2019-03-03T13:18:22Z</time>
      </trkpt>
      <trkpt lat="43.53946" lon="2.94152">
        <ele>622</ele>
        <time>2019-03-03T13:18:23Z</time>
      </trkpt>
      <trkpt lat="43.53943" lon="2.94149">
        <ele>622</ele>
        <time>2019-03-03T13:18:24Z</time>
      </trkpt>
      <trkpt lat="43.53941" lon="2.94147">
        <ele>622</ele>
        <time>2019-03-03T13:18:25Z</time>
      </trkpt>
      <trkpt lat="43.53938" lon="2.94146">
        <ele>622</ele>
        <time>2019-03-03T13:18:26Z</time>
      </trkpt>
      <trkpt lat="43.53936" lon="2.94144">
        <ele>622</ele>
        <time>2019-03-03T13:18:27Z</time>
      </trkpt>
      <trkpt lat="43.53934" lon="2.94142">
        <ele>622</ele>
        <time>2019-03-03T13:18:28Z</time>
      </trkpt>
      <trkpt lat="43.53931" lon="2.9414">
        <ele>622</ele>
        <time>2019-03-03T13:18:29Z</time>
      </trkpt>
      <trkpt lat="43.53928" lon="2.94139">
        <ele>622</ele>
        <time>2019-03-03T13:18:30Z</time>
      </trkpt>
      <trkpt lat="43.53925" lon="2.94138">
        <ele>622</ele>
        <time>2019-03-03T13:18:31Z</time>
      </trkpt>
      <trkpt lat="43.53922" lon="2.94137">
        <ele>622</ele>
        <time>2019-03-03T13:18:32Z</time>
      </trkpt>
      <trkpt lat="43.53918" lon="2.94137">
        <ele>622</ele>
        <time>2019-03-03T13:18:33Z</time>
      </trkpt>
      <trkpt lat="43.53915" lon="2.94136">
        <ele>621</ele>
        <time>2019-03-03T13:18:34Z</time>
      </trkpt>
      <trkpt lat="43.53911" lon="2.94134">
        <ele>621</ele>
        <time>2019-03-03T13:18:35Z</time>
      </trkpt>
      <trkpt lat="43.53908" lon="2.94132">
        <ele>621</ele>
        <time>2019-03-03T13:18:36Z</time>
      </trkpt>
      <trkpt lat="43.53905" lon="2.94131">
        <ele>621</ele>
        <time>2019-03-03T13:18:37Z</time>
      </trkpt>
      <trkpt lat="43.53901" lon="2.9413">
        <ele>620</ele>
        <time>2019-03-03T13:18:38Z</time>
      </trkpt>
      <trkpt lat="43.53896" lon="2.94131">
        <ele>620</ele>
        <time>2019-03-03T13:18:39Z</time>
      </trkpt>
      <trkpt lat="43.53891" lon="2.94131">
        <ele>619</ele>
        <time>2019-03-03T13:18:40Z</time>
      </trkpt>
      <trkpt lat="43.53886" lon="2.94131">
        <ele>619</ele>
        <time>2019-03-03T13:18:41Z</time>
      </trkpt>
      <trkpt lat="43.5388" lon="2.94132">
        <ele>619</ele>
        <time>2019-03-03T13:18:42Z</time>
      </trkpt>
      <trkpt lat="43.53875" lon="2.94133">
        <ele>618</ele>
        <time>2019-03-03T13:18:43Z</time>
      </trkpt>
      <trkpt lat="43.5387" lon="2.94135">
        <ele>618</ele>
        <time>2019-03-03T13:18:44Z</time>
      </trkpt>
      <trkpt lat="43.53864" lon="2.94137">
        <ele>618</ele>
        <time>2019-03-03T13:18:45Z</time>
      </trkpt>
      <trkpt lat="43.5386" lon="2.94139">
        <ele>617</ele>
        <time>2019-03-03T13:18:46Z</time>
      </trkpt>
      <trkpt lat="43.53855" lon="2.9414">
        <ele>617</ele>
        <time>2019-03-03T13:18:47Z</time>
      </trkpt>
      <trkpt lat="43.53851" lon="2.94142">
        <ele>617</ele>
        <time>2019-03-03T13:18:48Z</time>
      </trkpt>
      <trkpt lat="43.53848" lon="2.94143">
        <ele>616</ele>
        <time>2019-03-03T13:18:49Z</time>
      </trkpt>
      <trkpt lat="43.53844" lon="2.94144">
        <ele>615</ele>
        <time>2019-03-03T13:18:50Z</time>
      </trkpt>
      <trkpt lat="43.53841" lon="2.94145">
        <ele>615</ele>
        <time>2019-03-03T13:18:51Z</time>
      </trkpt>
      <trkpt lat="43.53837" lon="2.94146">
        <ele>615</ele>
        <time>2019-03-03T13:18:52Z</time>
      </trkpt>
      <trkpt lat="43.53834" lon="2.94147">
        <ele>615</ele>
        <time>2019-03-03T13:18:53Z</time>
      </trkpt>
      <trkpt lat="43.53831" lon="2.94148">
        <ele>615</ele>
        <time>2019-03-03T13:18:54Z</time>
      </trkpt>
      <trkpt lat="43.53828" lon="2.94149">
        <ele>615</ele>
        <time>2019-03-03T13:18:55Z</time>
      </trkpt>
      <trkpt lat="43.53825" lon="2.9415">
        <ele>615</ele>
        <time>2019-03-03T13:18:56Z</time>
      </trkpt>
      <trkpt lat="43.53822" lon="2.9415">
        <ele>615</ele>
        <time>2019-03-03T13:18:57Z</time>
      </trkpt>
      <trkpt lat="43.53819" lon="2.9415">
        <ele>615</ele>
        <time>2019-03-03T13:18:58Z</time>
      </trkpt>
      <trkpt lat="43.53817" lon="2.9415">
        <ele>616</ele>
        <time>2019-03-03T13:18:59Z</time>
      </trkpt>
      <trkpt lat="43.53814" lon="2.9415">
        <ele>616</ele>
        <time>2019-03-03T13:19:00Z</time>
      </trkpt>
      <trkpt lat="43.53811" lon="2.94151">
        <ele>616</ele>
        <time>2019-03-03T13:19:01Z</time>
      </trkpt>
      <trkpt lat="43.53809" lon="2.94151">
        <ele>616</ele>
        <time>2019-03-03T13:19:02Z</time>
      </trkpt>
      <trkpt lat="43.53806" lon="2.94153">
        <ele>616</ele>
        <time>2019-03-03T13:19:03Z</time>
      </trkpt>
      <trkpt lat="43.53804" lon="2.94155">
        <ele>617</ele>
        <time>2019-03-03T13:19:04Z</time>
      </trkpt>
      <trkpt lat="43.53802" lon="2.94158">
        <ele>617</ele>
        <time>2019-03-03T13:19:05Z</time>
      </trkpt>
      <trkpt lat="43.538" lon="2.94162">
        <ele>617</ele>
        <time>2019-03-03T13:19:06Z</time>
      </trkpt>
      <trkpt lat="43.53799" lon="2.94165">
        <ele>617</ele>
        <time>2019-03-03T13:19:07Z</time>
      </trkpt>
      <trkpt lat="43.53798" lon="2.9417">
        <ele>618</ele>
        <time>2019-03-03T13:19:08Z</time>
      </trkpt>
      <trkpt lat="43.53797" lon="2.94174">
        <ele>618</ele>
        <time>2019-03-03T13:19:09Z</time>
      </trkpt>
      <trkpt lat="43.53795" lon="2.94178">
        <ele>618</ele>
        <time>2019-03-03T13:19:10Z</time>
      </trkpt>
      <trkpt lat="43.53794" lon="2.94182">
        <ele>618</ele>
        <time>2019-03-03T13:19:11Z</time>
      </trkpt>
      <trkpt lat="43.53792" lon="2.94186">
        <ele>618</ele>
        <time>2019-03-03T13:19:12Z</time>
      </trkpt>
      <trkpt lat="43.53791" lon="2.94189">
        <ele>618</ele>
        <time>2019-03-03T13:19:13Z</time>
      </trkpt>
      <trkpt lat="43.53789" lon="2.94193">
        <ele>619</ele>
        <time>2019-03-03T13:19:14Z</time>
      </trkpt>
      <trkpt lat="43.53788" lon="2.94197">
        <ele>619</ele>
        <time>2019-03-03T13:19:15Z</time>
      </trkpt>
      <trkpt lat="43.53787" lon="2.942">
        <ele>619</ele>
        <time>2019-03-03T13:19:16Z</time>
      </trkpt>
      <trkpt lat="43.53786" lon="2.94204">
        <ele>619</ele>
        <time>2019-03-03T13:19:17Z</time>
      </trkpt>
      <trkpt lat="43.53784" lon="2.94208">
        <ele>619</ele>
        <time>2019-03-03T13:19:18Z</time>
      </trkpt>
      <trkpt lat="43.53783" lon="2.94211">
        <ele>619</ele>
        <time>2019-03-03T13:19:19Z</time>
      </trkpt>
      <trkpt lat="43.53781" lon="2.94214">
        <ele>620</ele>
        <time>2019-03-03T13:19:20Z</time>
      </trkpt>
      <trkpt lat="43.53779" lon="2.94218">
        <ele>620</ele>
        <time>2019-03-03T13:19:21Z</time>
      </trkpt>
      <trkpt lat="43.53777" lon="2.94221">
        <ele>620</ele>
        <time>2019-03-03T13:19:22Z</time>
      </trkpt>
      <trkpt lat="43.53776" lon="2.94224">
        <ele>620</ele>
        <time>2019-03-03T13:19:23Z</time>
      </trkpt>
      <trkpt lat="43.53774" lon="2.94227">
        <ele>620</ele>
        <time>2019-03-03T13:19:24Z</time>
      </trkpt>
      <trkpt lat="43.53773" lon="2.9423">
        <ele>621</ele>
        <time>2019-03-03T13:19:25Z</time>
      </trkpt>
      <trkpt lat="43.53771" lon="2.94233">
        <ele>621</ele>
        <time>2019-03-03T13:19:26Z</time>
      </trkpt>
      <trkpt lat="43.53769" lon="2.94236">
        <ele>621</ele>
        <time>2019-03-03T13:19:27Z</time>
      </trkpt>
      <trkpt lat="43.53767" lon="2.94239">
        <ele>621</ele>
        <time>2019-03-03T13:19:28Z</time>
      </trkpt>
      <trkpt lat="43.53765" lon="2.94242">
        <ele>621</ele>
        <time>2019-03-03T13:19:29Z</time>
      </trkpt>
      <trkpt lat="43.53763" lon="2.94244">
        <ele>621</ele>
        <time>2019-03-03T13:19:30Z</time>
      </trkpt>
      <trkpt lat="43.53761" lon="2.94246">
        <ele>621</ele>
        <time>2019-03-03T13:19:31Z</time>
      </trkpt>
      <trkpt lat="43.53758" lon="2.94247">
        <ele>621</ele>
        <time>2019-03-03T13:19:32Z</time>
      </trkpt>
      <trkpt lat="43.53755" lon="2.94248">
        <ele>622</ele>
        <time>2019-03-03T13:19:33Z</time>
      </trkpt>
      <trkpt lat="43.53752" lon="2.94248">
        <ele>622</ele>
        <time>2019-03-03T13:19:34Z</time>
      </trkpt>
      <trkpt lat="43.5375" lon="2.94248">
        <ele>622</ele>
        <time>2019-03-03T13:19:35Z</time>
      </trkpt>
      <trkpt lat="43.53747" lon="2.94247">
        <ele>622</ele>
        <time>2019-03-03T13:19:36Z</time>
      </trkpt>
      <trkpt lat="43.53744" lon="2.94246">
        <ele>622</ele>
        <time>2019-03-03T13:19:37Z</time>
      </trkpt>
      <trkpt lat="43.53742" lon="2.94244">
        <ele>622</ele>
        <time>2019-03-03T13:19:38Z</time>
      </trkpt>
      <trkpt lat="43.53739" lon="2.94243">
        <ele>623</ele>
        <time>2019-03-03T13:19:39Z</time>
      </trkpt>
      <trkpt lat="43.53737" lon="2.94242">
        <ele>623</ele>
        <time>2019-03-03T13:19:40Z</time>
      </trkpt>
      <trkpt lat="43.53734" lon="2.94241">
        <ele>623</ele>
        <time>2019-03-03T13:19:41Z</time>
      </trkpt>
      <trkpt lat="43.53732" lon="2.9424">
        <ele>623</ele>
        <time>2019-03-03T13:19:42Z</time>
      </trkpt>
      <trkpt lat="43.53729" lon="2.9424">
        <ele>623</ele>
        <time>2019-03-03T13:19:43Z</time>
      </trkpt>
      <trkpt lat="43.53726" lon="2.9424">
        <ele>623</ele>
        <time>2019-03-03T13:19:44Z</time>
      </trkpt>
      <trkpt lat="43.53723" lon="2.9424">
        <ele>623</ele>
        <time>2019-03-03T13:19:45Z</time>
      </trkpt>
      <trkpt lat="43.53719" lon="2.94239">
        <ele>624</ele>
        <time>2019-03-03T13:19:46Z</time>
      </trkpt>
      <trkpt lat="43.53716" lon="2.94238">
        <ele>624</ele>
        <time>2019-03-03T13:19:47Z</time>
      </trkpt>
      <trkpt lat="43.53713" lon="2.94236">
        <ele>624</ele>
        <time>2019-03-03T13:19:48Z</time>
      </trkpt>
      <trkpt lat="43.5371" lon="2.94235">
        <ele>624</ele>
        <time>2019-03-03T13:19:49Z</time>
      </trkpt>
      <trkpt lat="43.53707" lon="2.94233">
        <ele>624</ele>
        <time>2019-03-03T13:19:50Z</time>
      </trkpt>
      <trkpt lat="43.53704" lon="2.94231">
        <ele>624</ele>
        <time>2019-03-03T13:19:51Z</time>
      </trkpt>
      <trkpt lat="43.53701" lon="2.9423">
        <ele>624</ele>
        <time>2019-03-03T13:19:52Z</time>
      </trkpt>
      <trkpt lat="43.53698" lon="2.94229">
        <ele>624</ele>
        <time>2019-03-03T13:19:53Z</time>
      </trkpt>
      <trkpt lat="43.53695" lon="2.94228">
        <ele>624</ele>
        <time>2019-03-03T13:19:54Z</time>
      </trkpt>
      <trkpt lat="43.53692" lon="2.94227">
        <ele>624</ele>
        <time>2019-03-03T13:19:55Z</time>
      </trkpt>
      <trkpt lat="43.53689" lon="2.94226">
        <ele>624</ele>
        <time>2019-03-03T13:19:56Z</time>
      </trkpt>
      <trkpt lat="43.53686" lon="2.94225">
        <ele>624</ele>
        <time>2019-03-03T13:19:57Z</time>
      </trkpt>
      <trkpt lat="43.53682" lon="2.94224">
        <ele>624</ele>
        <time>2019-03-03T13:19:58Z</time>
      </trkpt>
      <trkpt lat="43.5368" lon="2.94223">
        <ele>624</ele>
        <time>2019-03-03T13:19:59Z</time>
      </trkpt>
      <trkpt lat="43.53677" lon="2.94222">
        <ele>624</ele>
        <time>2019-03-03T13:20:00Z</time>
      </trkpt>
      <trkpt lat="43.53673" lon="2.9422">
        <ele>624</ele>
        <time>2019-03-03T13:20:01Z</time>
      </trkpt>
      <trkpt lat="43.5367" lon="2.94218">
        <ele>624</ele>
        <time>2019-03-03T13:20:02Z</time>
      </trkpt>
      <trkpt lat="43.53667" lon="2.94216">
        <ele>624</ele>
        <time>2019-03-03T13:20:03Z</time>
      </trkpt>
      <trkpt lat="43.53663" lon="2.94213">
        <ele>624</ele>
        <time>2019-03-03T13:20:04Z</time>
      </trkpt>
      <trkpt lat="43.5366" lon="2.94211">
        <ele>624</ele>
        <time>2019-03-03T13:20:05Z</time>
      </trkpt>
      <trkpt lat="43.53657" lon="2.94208">
        <ele>624</ele>
        <time>2019-03-03T13:20:06Z</time>
      </trkpt>
      <trkpt lat="43.53654" lon="2.94205">
        <ele>624</ele>
        <time>2019-03-03T13:20:07Z</time>
      </trkpt>
      <trkpt lat="43.5365" lon="2.94202">
        <ele>624</ele>
        <time>2019-03-03T13:20:08Z</time>
      </trkpt>
      <trkpt lat="43.53647" lon="2.94199">
        <ele>624</ele>
        <time>2019-03-03T13:20:09Z</time>
      </trkpt>
      <trkpt lat="43.53644" lon="2.94194">
        <ele>624</ele>
        <time>2019-03-03T13:20:10Z</time>
      </trkpt>
      <trkpt lat="43.53642" lon="2.94189">
        <ele>624</ele>
        <time>2019-03-03T13:20:11Z</time>
      </trkpt>
      <trkpt lat="43.5364" lon="2.94183">
        <ele>624</ele>
        <time>2019-03-03T13:20:12Z</time>
      </trkpt>
      <trkpt lat="43.53639" lon="2.94176">
        <ele>624</ele>
        <time>2019-03-03T13:20:13Z</time>
      </trkpt>
      <trkpt lat="43.53637" lon="2.94168">
        <ele>624</ele>
        <time>2019-03-03T13:20:14Z</time>
      </trkpt>
      <trkpt lat="43.53636" lon="2.94161">
        <ele>624</ele>
        <time>2019-03-03T13:20:15Z</time>
      </trkpt>
      <trkpt lat="43.53635" lon="2.94153">
        <ele>624</ele>
        <time>2019-03-03T13:20:16Z</time>
      </trkpt>
      <trkpt lat="43.53633" lon="2.94145">
        <ele>624</ele>
        <time>2019-03-03T13:20:17Z</time>
      </trkpt>
      <trkpt lat="43.53631" lon="2.94137">
        <ele>623</ele>
        <time>2019-03-03T13:20:18Z</time>
      </trkpt>
      <trkpt lat="43.53628" lon="2.9413">
        <ele>623</ele>
        <time>2019-03-03T13:20:19Z</time>
      </trkpt>
      <trkpt lat="43.53625" lon="2.94124">
        <ele>622</ele>
        <time>2019-03-03T13:20:20Z</time>
      </trkpt>
      <trkpt lat="43.53621" lon="2.94118">
        <ele>622</ele>
        <time>2019-03-03T13:20:21Z</time>
      </trkpt>
      <trkpt lat="43.53617" lon="2.94112">
        <ele>621</ele>
        <time>2019-03-03T13:20:22Z</time>
      </trkpt>
      <trkpt lat="43.53612" lon="2.94108">
        <ele>620</ele>
        <time>2019-03-03T13:20:23Z</time>
      </trkpt>
      <trkpt lat="43.53609" lon="2.94103">
        <ele>620</ele>
        <time>2019-03-03T13:20:24Z</time>
      </trkpt>
      <trkpt lat="43.53605" lon="2.94098">
        <ele>620</ele>
        <time>2019-03-03T13:20:25Z</time>
      </trkpt>
      <trkpt lat="43.53602" lon="2.94094">
        <ele>619</ele>
        <time>2019-03-03T13:20:26Z</time>
      </trkpt>
      <trkpt lat="43.53598" lon="2.94089">
        <ele>619</ele>
        <time>2019-03-03T13:20:27Z</time>
      </trkpt>
      <trkpt lat="43.53594" lon="2.94085">
        <ele>619</ele>
        <time>2019-03-03T13:20:28Z</time>
      </trkpt>
      <trkpt lat="43.53591" lon="2.94081">
        <ele>619</ele>
        <time>2019-03-03T13:20:29Z</time>
      </trkpt>
      <trkpt lat="43.53587" lon="2.94077">
        <ele>619</ele>
        <time>2019-03-03T13:20:30Z</time>
      </trkpt>
      <trkpt lat="43.53583" lon="2.94073">
        <ele>619</ele>
        <time>2019-03-03T13:20:31Z</time>
      </trkpt>
      <trkpt lat="43.5358" lon="2.94069">
        <ele>619</ele>
        <time>2019-03-03T13:20:32Z</time>
      </trkpt>
      <trkpt lat="43.53576" lon="2.94065">
        <ele>619</ele>
        <time>2019-03-03T13:20:33Z</time>
      </trkpt>
      <trkpt lat="43.53573" lon="2.94062">
        <ele>619</ele>
        <time>2019-03-03T13:20:34Z</time>
      </trkpt>
      <trkpt lat="43.5357" lon="2.9406">
        <ele>619</ele>
        <time>2019-03-03T13:20:35Z</time>
      </trkpt>
      <trkpt lat="43.53567" lon="2.94057">
        <ele>619</ele>
        <time>2019-03-03T13:20:36Z</time>
      </trkpt>
      <trkpt lat="43.53564" lon="2.94055">
        <ele>619</ele>
        <time>2019-03-03T13:20:37Z</time>
      </trkpt>
      <trkpt lat="43.53561" lon="2.94052">
        <ele>619</ele>
        <time>2019-03-03T13:20:38Z</time>
      </trkpt>
      <trkpt lat="43.53558" lon="2.94049">
        <ele>619</ele>
        <time>2019-03-03T13:20:39Z</time>
      </trkpt>
      <trkpt lat="43.53555" lon="2.94047">
        <ele>619</ele>
        <time>2019-03-03T13:20:40Z</time>
      </trkpt>
      <trkpt lat="43.53552" lon="2.94044">
        <ele>619</ele>
        <time>2019-03-03T13:20:41Z</time>
      </trkpt>
      <trkpt lat="43.53548" lon="2.94041">
        <ele>619</ele>
        <time>2019-03-03T13:20:42Z</time>
      </trkpt>
      <trkpt lat="43.53545" lon="2.94038">
        <ele>619</ele>
        <time>2019-03-03T13:20:43Z</time>
      </trkpt>
      <trkpt lat="43.53541" lon="2.94035">
        <ele>619</ele>
        <time>2019-03-03T13:20:44Z</time>
      </trkpt>
      <trkpt lat="43.53537" lon="2.94032">
        <ele>619</ele>
        <time>2019-03-03T13:20:45Z</time>
      </trkpt>
      <trkpt lat="43.53534" lon="2.94029">
        <ele>619</ele>
        <time>2019-03-03T13:20:46Z</time>
      </trkpt>
      <trkpt lat="43.53531" lon="2.94026">
        <ele>619</ele>
        <time>2019-03-03T13:20:47Z</time>
      </trkpt>
      <trkpt lat="43.53528" lon="2.94024">
        <ele>619</ele>
        <time>2019-03-03T13:20:48Z</time>
      </trkpt>
      <trkpt lat="43.53525" lon="2.94022">
        <ele>619</ele>
        <time>2019-03-03T13:20:49Z</time>
      </trkpt>
      <trkpt lat="43.53523" lon="2.9402">
        <ele>619</ele>
        <time>2019-03-03T13:20:50Z</time>
      </trkpt>
      <trkpt lat="43.53521" lon="2.94018">
        <ele>619</ele>
        <time>2019-03-03T13:20:51Z</time>
      </trkpt>
      <trkpt lat="43.53519" lon="2.94016">
        <ele>620</ele>
        <time>2019-03-03T13:20:52Z</time>
      </trkpt>
      <trkpt lat="43.53516" lon="2.94014">
        <ele>620</ele>
        <time>2019-03-03T13:20:53Z</time>
      </trkpt>
      <trkpt lat="43.53514" lon="2.94011">
        <ele>620</ele>
        <time>2019-03-03T13:20:54Z</time>
      </trkpt>
      <trkpt lat="43.53512" lon="2.94008">
        <ele>620</ele>
        <time>2019-03-03T13:20:55Z</time>
      </trkpt>
      <trkpt lat="43.5351" lon="2.94005">
        <ele>620</ele>
        <time>2019-03-03T13:20:56Z</time>
      </trkpt>
      <trkpt lat="43.53508" lon="2.94002">
        <ele>620</ele>
        <time>2019-03-03T13:20:57Z</time>
      </trkpt>
      <trkpt lat="43.53506" lon="2.93998">
        <ele>620</ele>
        <time>2019-03-03T13:20:58Z</time>
      </trkpt>
      <trkpt lat="43.53504" lon="2.93995">
        <ele>620</ele>
        <time>2019-03-03T13:20:59Z</time>
      </trkpt>
      <trkpt lat="43.53502" lon="2.93991">
        <ele>620</ele>
        <time>2019-03-03T13:21:00Z</time>
      </trkpt>
      <trkpt lat="43.535" lon="2.93988">
        <ele>620</ele>
        <time>2019-03-03T13:21:01Z</time>
      </trkpt>
      <trkpt lat="43.53498" lon="2.93985">
        <ele>620</ele>
        <time>2019-03-03T13:21:02Z</time>
      </trkpt>
      <trkpt lat="43.53496" lon="2.93982">
        <ele>620</ele>
        <time>2019-03-03T13:21:03Z</time>
      </trkpt>
      <trkpt lat="43.53494" lon="2.9398">
        <ele>620</ele>
        <time>2019-03-03T13:21:04Z</time>
      </trkpt>
      <trkpt lat="43.53491" lon="2.93979">
        <ele>620</ele>
        <time>2019-03-03T13:21:05Z</time>
      </trkpt>
      <trkpt lat="43.53489" lon="2.93979">
        <ele>620</ele>
        <time>2019-03-03T13:21:06Z</time>
      </trkpt>
      <trkpt lat="43.53486" lon="2.93979">
        <ele>620</ele>
        <time>2019-03-03T13:21:07Z</time>
      </trkpt>
      <trkpt lat="43.53483" lon="2.9398">
        <ele>621</ele>
        <time>2019-03-03T13:21:08Z</time>
      </trkpt>
      <trkpt lat="43.53481" lon="2.93982">
        <ele>621</ele>
        <time>2019-03-03T13:21:09Z</time>
      </trkpt>
      <trkpt lat="43.53478" lon="2.93985">
        <ele>621</ele>
        <time>2019-03-03T13:21:10Z</time>
      </trkpt>
      <trkpt lat="43.53476" lon="2.93988">
        <ele>622</ele>
        <time>2019-03-03T13:21:11Z</time>
      </trkpt>
      <trkpt lat="43.53475" lon="2.93991">
        <ele>622</ele>
        <time>2019-03-03T13:21:12Z</time>
      </trkpt>
      <trkpt lat="43.53474" lon="2.93994">
        <ele>622</ele>
        <time>2019-03-03T13:21:13Z</time>
      </trkpt>
      <trkpt lat="43.53473" lon="2.93998">
        <ele>622</ele>
        <time>2019-03-03T13:21:14Z</time>
      </trkpt>
      <trkpt lat="43.53474" lon="2.94001">
        <ele>623</ele>
        <time>2019-03-03T13:21:15Z</time>
      </trkpt>
      <trkpt lat="43.53474" lon="2.94004">
        <ele>623</ele>
        <time>2019-03-03T13:21:16Z</time>
      </trkpt>
      <trkpt lat="43.53474" lon="2.94008">
        <ele>623</ele>
        <time>2019-03-03T13:21:17Z</time>
      </trkpt>
      <trkpt lat="43.53475" lon="2.94011">
        <ele>623</ele>
        <time>2019-03-03T13:21:18Z</time>
      </trkpt>
      <trkpt lat="43.53476" lon="2.94014">
        <ele>623</ele>
        <time>2019-03-03T13:21:19Z</time>
      </trkpt>
      <trkpt lat="43.53477" lon="2.94017">
        <ele>623</ele>
        <time>2019-03-03T13:21:20Z</time>
      </trkpt>
      <trkpt lat="43.53478" lon="2.9402">
        <ele>623</ele>
        <time>2019-03-03T13:21:21Z</time>
      </trkpt>
      <trkpt lat="43.53479" lon="2.94023">
        <ele>624</ele>
        <time>2019-03-03T13:21:22Z</time>
      </trkpt>
      <trkpt lat="43.5348" lon="2.94027">
        <ele>624</ele>
        <time>2019-03-03T13:21:23Z</time>
      </trkpt>
      <trkpt lat="43.53481" lon="2.9403">
        <ele>624</ele>
        <time>2019-03-03T13:21:24Z</time>
      </trkpt>
      <trkpt lat="43.53483" lon="2.94032">
        <ele>624</ele>
        <time>2019-03-03T13:21:25Z</time>
      </trkpt>
      <trkpt lat="43.53484" lon="2.94035">
        <ele>625</ele>
        <time>2019-03-03T13:21:26Z</time>
      </trkpt>
      <trkpt lat="43.53485" lon="2.94038">
        <ele>625</ele>
        <time>2019-03-03T13:21:27Z</time>
      </trkpt>
      <trkpt lat="43.53487" lon="2.94041">
        <ele>626</ele>
        <time>2019-03-03T13:21:28Z</time>
      </trkpt>
      <trkpt lat="43.53488" lon="2.94043">
        <ele>626</ele>
        <time>2019-03-03T13:21:29Z</time>
      </trkpt>
      <trkpt lat="43.53489" lon="2.94046">
        <ele>626</ele>
        <time>2019-03-03T13:21:30Z</time>
      </trkpt>
      <trkpt lat="43.53491" lon="2.94049">
        <ele>626</ele>
        <time>2019-03-03T13:21:31Z</time>
      </trkpt>
      <trkpt lat="43.53492" lon="2.94051">
        <ele>627</ele>
        <time>2019-03-03T13:21:32Z</time>
      </trkpt>
      <trkpt lat="43.53493" lon="2.94054">
        <ele>627</ele>
        <time>2019-03-03T13:21:33Z</time>
      </trkpt>
      <trkpt lat="43.53494" lon="2.94057">
        <ele>627</ele>
        <time>2019-03-03T13:21:34Z</time>
      </trkpt>
      <trkpt lat="43.53496" lon="2.94059">
        <ele>628</ele>
        <time>2019-03-03T13:21:35Z</time>
      </trkpt>
      <trkpt lat="43.53497" lon="2.94061">
        <ele>628</ele>
        <time>2019-03-03T13:21:36Z</time>
      </trkpt>
      <trkpt lat="43.53499" lon="2.94063">
        <ele>628</ele>
        <time>2019-03-03T13:21:37Z</time>
      </trkpt>
      <trkpt lat="43.53501" lon="2.94065">
        <ele>628</ele>
        <time>2019-03-03T13:21:38Z</time>
      </trkpt>
      <trkpt lat="43.53502" lon="2.94067">
        <ele>629</ele>
        <time>2019-03-03T13:21:39Z</time>
      </trkpt>
      <trkpt lat="43.53504" lon="2.94069">
        <ele>629</ele>
        <time>2019-03-03T13:21:40Z</time>
      </trkpt>
      <trkpt lat="43.53505" lon="2.94071">
        <ele>629</ele>
        <time>2019-03-03T13:21:41Z</time>
      </trkpt>
      <trkpt lat="43.53507" lon="2.94073">
        <ele>629</ele>
        <time>2019-03-03T13:21:42Z</time>
      </trkpt>
      <trkpt lat="43.53509" lon="2.94075">
        <ele>630</ele>
        <time>2019-03-03T13:21:43Z</time>
      </trkpt>
      <trkpt lat="43.53511" lon="2.94078">
        <ele>630</ele>
        <time>2019-03-03T13:21:44Z</time>
      </trkpt>
      <trkpt lat="43.53512" lon="2.9408">
        <ele>631</ele>
        <time>2019-03-03T13:21:45Z</time>
      </trkpt>
      <trkpt lat="43.53514" lon="2.94082">
        <ele>631</ele>
        <time>2019-03-03T13:21:46Z</time>
      </trkpt>
      <trkpt lat="43.53515" lon="2.94085">
        <ele>632</ele>
        <time>2019-03-03T13:21:47Z</time>
      </trkpt>
      <trkpt lat="43.53517" lon="2.94087">
        <ele>632</ele>
        <time>2019-03-03T13:21:48Z</time>
      </trkpt>
      <trkpt lat="43.53518" lon="2.94089">
        <ele>632</ele>
        <time>2019-03-03T13:21:49Z</time>
      </trkpt>
      <trkpt lat="43.5352" lon="2.94091">
        <ele>633</ele>
        <time>2019-03-03T13:21:50Z</time>
      </trkpt>
      <trkpt lat="43.53521" lon="2.94093">
        <ele>633</ele>
        <time>2019-03-03T13:21:51Z</time>
      </trkpt>
      <trkpt lat="43.53523" lon="2.94095">
        <ele>633</ele>
        <time>2019-03-03T13:21:52Z</time>
      </trkpt>
      <trkpt lat="43.53525" lon="2.94097">
        <ele>634</ele>
        <time>2019-03-03T13:21:53Z</time>
      </trkpt>
      <trkpt lat="43.53526" lon="2.941">
        <ele>634</ele>
        <time>2019-03-03T13:21:54Z</time>
      </trkpt>
      <trkpt lat="43.53528" lon="2.94102">
        <ele>634</ele>
        <time>2019-03-03T13:21:55Z</time>
      </trkpt>
      <trkpt lat="43.5353" lon="2.94104">
        <ele>635</ele>
        <time>2019-03-03T13:21:56Z</time>
      </trkpt>
      <trkpt lat="43.53531" lon="2.94106">
        <ele>635</ele>
        <time>2019-03-03T13:21:57Z</time>
      </trkpt>
      <trkpt lat="43.53533" lon="2.94108">
        <ele>635</ele>
        <time>2019-03-03T13:21:58Z</time>
      </trkpt>
      <trkpt lat="43.53534" lon="2.9411">
        <ele>636</ele>
        <time>2019-03-03T13:21:59Z</time>
      </trkpt>
      <trkpt lat="43.53536" lon="2.94113">
        <ele>636</ele>
        <time>2019-03-03T13:22:00Z</time>
      </trkpt>
      <trkpt lat="43.53537" lon="2.94115">
        <ele>636</ele>
        <time>2019-03-03T13:22:01Z</time>
      </trkpt>
      <trkpt lat="43.53539" lon="2.94117">
        <ele>636</ele>
        <time>2019-03-03T13:22:02Z</time>
      </trkpt>
      <trkpt lat="43.5354" lon="2.94119">
        <ele>636</ele>
        <time>2019-03-03T13:22:03Z</time>
      </trkpt>
      <trkpt lat="43.53542" lon="2.94121">
        <ele>637</ele>
        <time>2019-03-03T13:22:04Z</time>
      </trkpt>
      <trkpt lat="43.53543" lon="2.94123">
        <ele>637</ele>
        <time>2019-03-03T13:22:05Z</time>
      </trkpt>
      <trkpt lat="43.53544" lon="2.94126">
        <ele>637</ele>
        <time>2019-03-03T13:22:06Z</time>
      </trkpt>
      <trkpt lat="43.53546" lon="2.94128">
        <ele>638</ele>
        <time>2019-03-03T13:22:07Z</time>
      </trkpt>
      <trkpt lat="43.53547" lon="2.9413">
        <ele>638</ele>
        <time>2019-03-03T13:22:08Z</time>
      </trkpt>
      <trkpt lat="43.53549" lon="2.94133">
        <ele>638</ele>
        <time>2019-03-03T13:22:09Z</time>
      </trkpt>
      <trkpt lat="43.5355" lon="2.94135">
        <ele>639</ele>
        <time>2019-03-03T13:22:10Z</time>
      </trkpt>
      <trkpt lat="43.53551" lon="2.94138">
        <ele>639</ele>
        <time>2019-03-03T13:22:11Z</time>
      </trkpt>
      <trkpt lat="43.53552" lon="2.9414">
        <ele>640</ele>
        <time>2019-03-03T13:22:12Z</time>
      </trkpt>
      <trkpt lat="43.53553" lon="2.94143">
        <ele>640</ele>
        <time>2019-03-03T13:22:13Z</time>
      </trkpt>
      <trkpt lat="43.53555" lon="2.94145">
        <ele>640</ele>
        <time>2019-03-03T13:22:14Z</time>
      </trkpt>
      <trkpt lat="43.53556" lon="2.94147">
        <ele>641</ele>
        <time>2019-03-03T13:22:15Z</time>
      </trkpt>
      <trkpt lat="43.53557" lon="2.9415">
        <ele>641</ele>
        <time>2019-03-03T13:22:16Z</time>
      </trkpt>
      <trkpt lat="43.53558" lon="2.94152">
        <ele>641</ele>
        <time>2019-03-03T13:22:17Z</time>
      </trkpt>
      <trkpt lat="43.53559" lon="2.94154">
        <ele>641</ele>
        <time>2019-03-03T13:22:18Z</time>
      </trkpt>
      <trkpt lat="43.5356" lon="2.94156">
        <ele>641</ele>
        <time>2019-03-03T13:22:19Z</time>
      </trkpt>
      <trkpt lat="43.53561" lon="2.94159">
        <ele>642</ele>
        <time>2019-03-03T13:22:20Z</time>
      </trkpt>
      <trkpt lat="43.53562" lon="2.94161">
        <ele>642</ele>
        <time>2019-03-03T13:22:21Z</time>
      </trkpt>
      <trkpt lat="43.53564" lon="2.94163">
        <ele>642</ele>
        <time>2019-03-03T13:22:22Z</time>
      </trkpt>
      <trkpt lat="43.53565" lon="2.94165">
        <ele>642</ele>
        <time>2019-03-03T13:22:23Z</time>
      </trkpt>
      <trkpt lat="43.53566" lon="2.94167">
        <ele>643</ele>
        <time>2019-03-03T13:22:24Z</time>
      </trkpt>
      <trkpt lat="43.53567" lon="2.9417">
        <ele>643</ele>
        <time>2019-03-03T13:22:25Z</time>
      </trkpt>
      <trkpt lat="43.53568" lon="2.94172">
        <ele>643</ele>
        <time>2019-03-03T13:22:26Z</time>
      </trkpt>
      <trkpt lat="43.53569" lon="2.94174">
        <ele>643</ele>
        <time>2019-03-03T13:22:27Z</time>
      </trkpt>
      <trkpt lat="43.53571" lon="2.94177">
        <ele>644</ele>
        <time>2019-03-03T13:22:28Z</time>
      </trkpt>
      <trkpt lat="43.53572" lon="2.94179">
        <ele>644</ele>
        <time>2019-03-03T13:22:29Z</time>
      </trkpt>
      <trkpt lat="43.53573" lon="2.94181">
        <ele>644</ele>
        <time>2019-03-03T13:22:30Z</time>
      </trkpt>
      <trkpt lat="43.53574" lon="2.94184">
        <ele>645</ele>
        <time>2019-03-03T13:22:31Z</time>
      </trkpt>
      <trkpt lat="43.53575" lon="2.94186">
        <ele>645</ele>
        <time>2019-03-03T13:22:32Z</time>
      </trkpt>
      <trkpt lat="43.53575" lon="2.94188">
        <ele>645</ele>
        <time>2019-03-03T13:22:33Z</time>
      </trkpt>
      <trkpt lat="43.53576" lon="2.94191">
        <ele>646</ele>
        <time>2019-03-03T13:22:34Z</time>
      </trkpt>
      <trkpt lat="43.53577" lon="2.94193">
        <ele>646</ele>
        <time>2019-03-03T13:22:35Z</time>
      </trkpt>
      <trkpt lat="43.53578" lon="2.94196">
        <ele>646</ele>
        <time>2019-03-03T13:22:36Z</time>
      </trkpt>
      <trkpt lat="43.53579" lon="2.94199">
        <ele>647</ele>
        <time>2019-03-03T13:22:37Z</time>
      </trkpt>
      <trkpt lat="43.5358" lon="2.94201">
        <ele>647</ele>
        <time>2019-03-03T13:22:38Z</time>
      </trkpt>
      <trkpt lat="43.5358" lon="2.94204">
        <ele>647</ele>
        <time>2019-03-03T13:22:39Z</time>
      </trkpt>
      <trkpt lat="43.53581" lon="2.94207">
        <ele>648</ele>
        <time>2019-03-03T13:22:40Z</time>
      </trkpt>
      <trkpt lat="43.53582" lon="2.94209">
        <ele>648</ele>
        <time>2019-03-03T13:22:41Z</time>
      </trkpt>
      <trkpt lat="43.53583" lon="2.94212">
        <ele>649</ele>
        <time>2019-03-03T13:22:42Z</time>
      </trkpt>
      <trkpt lat="43.53583" lon="2.94215">
        <ele>649</ele>
        <time>2019-03-03T13:22:43Z</time>
      </trkpt>
      <trkpt lat="43.53584" lon="2.94217">
        <ele>649</ele>
        <time>2019-03-03T13:22:44Z</time>
      </trkpt>
      <trkpt lat="43.53584" lon="2.9422">
        <ele>649</ele>
        <time>2019-03-03T13:22:45Z</time>
      </trkpt>
      <trkpt lat="43.53585" lon="2.94222">
        <ele>650</ele>
        <time>2019-03-03T13:22:46Z</time>
      </trkpt>
      <trkpt lat="43.53586" lon="2.94225">
        <ele>650</ele>
        <time>2019-03-03T13:22:47Z</time>
      </trkpt>
      <trkpt lat="43.53586" lon="2.94227">
        <ele>650</ele>
        <time>2019-03-03T13:22:48Z</time>
      </trkpt>
      <trkpt lat="43.53587" lon="2.9423">
        <ele>651</ele>
        <time>2019-03-03T13:22:49Z</time>
      </trkpt>
      <trkpt lat="43.53587" lon="2.94233">
        <ele>651</ele>
        <time>2019-03-03T13:22:50Z</time>
      </trkpt>
      <trkpt lat="43.53588" lon="2.94235">
        <ele>652</ele>
        <time>2019-03-03T13:22:51Z</time>
      </trkpt>
      <trkpt lat="43.53588" lon="2.94238">
        <ele>652</ele>
        <time>2019-03-03T13:22:52Z</time>
      </trkpt>
      <trkpt lat="43.53589" lon="2.94241">
        <ele>652</ele>
        <time>2019-03-03T13:22:53Z</time>
      </trkpt>
      <trkpt lat="43.5359" lon="2.94244">
        <ele>652</ele>
        <time>2019-03-03T13:22:54Z</time>
      </trkpt>
      <trkpt lat="43.53591" lon="2.94246">
        <ele>653</ele>
        <time>2019-03-03T13:22:55Z</time>
      </trkpt>
      <trkpt lat="43.53592" lon="2.94249">
        <ele>653</ele>
        <time>2019-03-03T13:22:56Z</time>
      </trkpt>
      <trkpt lat="43.53594" lon="2.94252">
        <ele>654</ele>
        <time>2019-03-03T13:22:57Z</time>
      </trkpt>
      <trkpt lat="43.53595" lon="2.94255">
        <ele>654</ele>
        <time>2019-03-03T13:22:58Z</time>
      </trkpt>
      <trkpt lat="43.53596" lon="2.94257">
        <ele>654</ele>
        <time>2019-03-03T13:22:59Z</time>
      </trkpt>
      <trkpt lat="43.53598" lon="2.9426">
        <ele>654</ele>
        <time>2019-03-03T13:23:00Z</time>
      </trkpt>
      <trkpt lat="43.53599" lon="2.94263">
        <ele>655</ele>
        <time>2019-03-03T13:23:01Z</time>
      </trkpt>
      <trkpt lat="43.53601" lon="2.94265">
        <ele>655</ele>
        <time>2019-03-03T13:23:02Z</time>
      </trkpt>
      <trkpt lat="43.53602" lon="2.94267">
        <ele>655</ele>
        <time>2019-03-03T13:23:03Z</time>
      </trkpt>
      <trkpt lat="43.53604" lon="2.9427">
        <ele>656</ele>
        <time>2019-03-03T13:23:04Z</time>
      </trkpt>
      <trkpt lat="43.53605" lon="2.94272">
        <ele>656</ele>
        <time>2019-03-03T13:23:05Z</time>
      </trkpt>
      <trkpt lat="43.53607" lon="2.94274">
        <ele>656</ele>
        <time>2019-03-03T13:23:06Z</time>
      </trkpt>
      <trkpt lat="43.53609" lon="2.94276">
        <ele>656</ele>
        <time>2019-03-03T13:23:07Z</time>
      </trkpt>
      <trkpt lat="43.5361" lon="2.94278">
        <ele>656</ele>
        <time>2019-03-03T13:23:08Z</time>
      </trkpt>
      <trkpt lat="43.53612" lon="2.9428">
        <ele>657</ele>
        <time>2019-03-03T13:23:09Z</time>
      </trkpt>
      <trkpt lat="43.53613" lon="2.94282">
        <ele>657</ele>
        <time>2019-03-03T13:23:10Z</time>
      </trkpt>
      <trkpt lat="43.53615" lon="2.94284">
        <ele>658</ele>
        <time>2019-03-03T13:23:11Z</time>
      </trkpt>
      <trkpt lat="43.53616" lon="2.94285">
        <ele>658</ele>
        <time>2019-03-03T13:23:12Z</time>
      </trkpt>
      <trkpt lat="43.53618" lon="2.94287">
        <ele>658</ele>
        <time>2019-03-03T13:23:13Z</time>
      </trkpt>
      <trkpt lat="43.53619" lon="2.94288">
        <ele>658</ele>
        <time>2019-03-03T13:23:14Z</time>
      </trkpt>
      <trkpt lat="43.53621" lon="2.9429">
        <ele>659</ele>
        <time>2019-03-03T13:23:15Z</time>
      </trkpt>
      <trkpt lat="43.53622" lon="2.94292">
        <ele>659</ele>
        <time>2019-03-03T13:23:16Z</time>
      </trkpt>
      <trkpt lat="43.53623" lon="2.94293">
        <ele>659</ele>
        <time>2019-03-03T13:23:17Z</time>
      </trkpt>
      <trkpt lat="43.53625" lon="2.94295">
        <ele>659</ele>
        <time>2019-03-03T13:23:18Z</time>
      </trkpt>
      <trkpt lat="43.53626" lon="2.94296">
        <ele>660</ele>
        <time>2019-03-03T13:23:19Z</time>
      </trkpt>
      <trkpt lat="43.53628" lon="2.94298">
        <ele>660</ele>
        <time>2019-03-03T13:23:20Z</time>
      </trkpt>
      <trkpt lat="43.53629" lon="2.943">
        <ele>660</ele>
        <time>2019-03-03T13:23:21Z</time>
      </trkpt>
      <trkpt lat="43.53631" lon="2.94302">
        <ele>661</ele>
        <time>2019-03-03T13:23:22Z</time>
      </trkpt>
      <trkpt lat="43.53632" lon="2.94303">
        <ele>661</ele>
        <time>2019-03-03T13:23:23Z</time>
      </trkpt>
      <trkpt lat="43.53634" lon="2.94305">
        <ele>661</ele>
        <time>2019-03-03T13:23:24Z</time>
      </trkpt>
      <trkpt lat="43.53636" lon="2.94307">
        <ele>661</ele>
        <time>2019-03-03T13:23:25Z</time>
      </trkpt>
      <trkpt lat="43.53637" lon="2.94309">
        <ele>662</ele>
        <time>2019-03-03T13:23:26Z</time>
      </trkpt>
      <trkpt lat="43.53638" lon="2.94311">
        <ele>662</ele>
        <time>2019-03-03T13:23:27Z</time>
      </trkpt>
      <trkpt lat="43.5364" lon="2.94312">
        <ele>662</ele>
        <time>2019-03-03T13:23:28Z</time>
      </trkpt>
      <trkpt lat="43.53641" lon="2.94314">
        <ele>662</ele>
        <time>2019-03-03T13:23:29Z</time>
      </trkpt>
      <trkpt lat="43.53643" lon="2.94316">
        <ele>663</ele>
        <time>2019-03-03T13:23:30Z</time>
      </trkpt>
      <trkpt lat="43.53644" lon="2.94318">
        <ele>663</ele>
        <time>2019-03-03T13:23:31Z</time>
      </trkpt>
      <trkpt lat="43.53645" lon="2.9432">
        <ele>663</ele>
        <time>2019-03-03T13:23:32Z</time>
      </trkpt>
      <trkpt lat="43.53647" lon="2.94321">
        <ele>663</ele>
        <time>2019-03-03T13:23:33Z</time>
      </trkpt>
      <trkpt lat="43.53648" lon="2.94323">
        <ele>664</ele>
        <time>2019-03-03T13:23:34Z</time>
      </trkpt>
      <trkpt lat="43.5365" lon="2.94325">
        <ele>664</ele>
        <time>2019-03-03T13:23:35Z</time>
      </trkpt>
      <trkpt lat="43.53651" lon="2.94327">
        <ele>664</ele>
        <time>2019-03-03T13:23:36Z</time>
      </trkpt>
      <trkpt lat="43.53653" lon="2.94328">
        <ele>665</ele>
        <time>2019-03-03T13:23:37Z</time>
      </trkpt>
      <trkpt lat="43.53654" lon="2.9433">
        <ele>665</ele>
        <time>2019-03-03T13:23:38Z</time>
      </trkpt>
      <trkpt lat="43.53656" lon="2.94332">
        <ele>665</ele>
        <time>2019-03-03T13:23:39Z</time>
      </trkpt>
      <trkpt lat="43.53657" lon="2.94334">
        <ele>665</ele>
        <time>2019-03-03T13:23:40Z</time>
      </trkpt>
      <trkpt lat="43.53658" lon="2.94336">
        <ele>666</ele>
        <time>2019-03-03T13:23:41Z</time>
      </trkpt>
      <trkpt lat="43.5366" lon="2.94337">
        <ele>666</ele>
        <time>2019-03-03T13:23:42Z</time>
      </trkpt>
      <trkpt lat="43.53661" lon="2.94339">
        <ele>666</ele>
        <time>2019-03-03T13:23:43Z</time>
      </trkpt>
      <trkpt lat="43.53662" lon="2.94341">
        <ele>666</ele>
        <time>2019-03-03T13:23:44Z</time>
      </trkpt>
      <trkpt lat="43.53664" lon="2.94343">
        <ele>667</ele>
        <time>2019-03-03T13:23:45Z</time>
      </trkpt>
      <trkpt lat="43.53665" lon="2.94345">
        <ele>667</ele>
        <time>2019-03-03T13:23:46Z</time>
      </trkpt>
      <trkpt lat="43.53667" lon="2.94346">
        <ele>667</ele>
        <time>2019-03-03T13:23:47Z</time>
      </trkpt>
      <trkpt lat="43.53668" lon="2.94348">
        <ele>668</ele>
        <time>2019-03-03T13:23:48Z</time>
      </trkpt>
      <trkpt lat="43.53669" lon="2.9435">
        <ele>668</ele>
        <time>2019-03-03T13:23:49Z</time>
      </trkpt>
      <trkpt lat="43.5367" lon="2.94352">
        <ele>668</ele>
        <time>2019-03-03T13:23:50Z</time>
      </trkpt>
      <trkpt lat="43.53672" lon="2.94354">
        <ele>669</ele>
        <time>2019-03-03T13:23:51Z</time>
      </trkpt>
      <trkpt lat="43.53673" lon="2.94355">
        <ele>669</ele>
        <time>2019-03-03T13:23:52Z</time>
      </trkpt>
      <trkpt lat="43.53675" lon="2.94357">
        <ele>669</ele>
        <time>2019-03-03T13:23:53Z</time>
      </trkpt>
      <trkpt lat="43.53676" lon="2.94359">
        <ele>669</ele>
        <time>2019-03-03T13:23:54Z</time>
      </trkpt>
      <trkpt lat="43.53677" lon="2.94361">
        <ele>670</ele>
        <time>2019-03-03T13:23:55Z</time>
      </trkpt>
      <trkpt lat="43.53679" lon="2.94362">
        <ele>670</ele>
        <time>2019-03-03T13:23:56Z</time>
      </trkpt>
      <trkpt lat="43.5368" lon="2.94364">
        <ele>670</ele>
        <time>2019-03-03T13:23:57Z</time>
      </trkpt>
      <trkpt lat="43.53681" lon="2.94366">
        <ele>670</ele>
        <time>2019-03-03T13:23:58Z</time>
      </trkpt>
      <trkpt lat="43.53683" lon="2.94368">
        <ele>671</ele>
        <time>2019-03-03T13:23:59Z</time>
      </trkpt>
      <trkpt lat="43.53684" lon="2.9437">
        <ele>671</ele>
        <time>2019-03-03T13:24:00Z</time>
      </trkpt>
      <trkpt lat="43.53685" lon="2.94372">
        <ele>671</ele>
        <time>2019-03-03T13:24:01Z</time>
      </trkpt>
      <trkpt lat="43.53687" lon="2.94374">
        <ele>671</ele>
        <time>2019-03-03T13:24:02Z</time>
      </trkpt>
      <trkpt lat="43.53688" lon="2.94376">
        <ele>671</ele>
        <time>2019-03-03T13:24:03Z</time>
      </trkpt>
      <trkpt lat="43.53689" lon="2.94378">
        <ele>672</ele>
        <time>2019-03-03T13:24:04Z</time>
      </trkpt>
      <trkpt lat="43.5369" lon="2.9438">
        <ele>672</ele>
        <time>2019-03-03T13:24:05Z</time>
      </trkpt>
      <trkpt lat="43.53692" lon="2.94382">
        <ele>672</ele>
        <time>2019-03-03T13:24:06Z</time>
      </trkpt>
      <trkpt lat="43.53693" lon="2.94384">
        <ele>673</ele>
        <time>2019-03-03T13:24:07Z</time>
      </trkpt>
      <trkpt lat="43.53694" lon="2.94386">
        <ele>673</ele>
        <time>2019-03-03T13:24:08Z</time>
      </trkpt>
      <trkpt lat="43.53695" lon="2.94388">
        <ele>673</ele>
        <time>2019-03-03T13:24:09Z</time>
      </trkpt>
      <trkpt lat="43.53697" lon="2.9439">
        <ele>674</ele>
        <time>2019-03-03T13:24:10Z</time>
      </trkpt>
      <trkpt lat="43.53698" lon="2.94392">
        <ele>674</ele>
        <time>2019-03-03T13:24:11Z</time>
      </trkpt>
      <trkpt lat="43.53699" lon="2.94394">
        <ele>674</ele>
        <time>2019-03-03T13:24:12Z</time>
      </trkpt>
      <trkpt lat="43.53701" lon="2.94396">
        <ele>675</ele>
        <time>2019-03-03T13:24:13Z</time>
      </trkpt>
      <trkpt lat="43.53702" lon="2.94398">
        <ele>675</ele>
        <time>2019-03-03T13:24:14Z</time>
      </trkpt>
      <trkpt lat="43.53704" lon="2.944">
        <ele>675</ele>
        <time>2019-03-03T13:24:15Z</time>
      </trkpt>
      <trkpt lat="43.53705" lon="2.94402">
        <ele>676</ele>
        <time>2019-03-03T13:24:16Z</time>
      </trkpt>
      <trkpt lat="43.53707" lon="2.94403">
        <ele>676</ele>
        <time>2019-03-03T13:24:17Z</time>
      </trkpt>
      <trkpt lat="43.53708" lon="2.94405">
        <ele>676</ele>
        <time>2019-03-03T13:24:18Z</time>
      </trkpt>
      <trkpt lat="43.5371" lon="2.94406">
        <ele>676</ele>
        <time>2019-03-03T13:24:19Z</time>
      </trkpt>
      <trkpt lat="43.53711" lon="2.94408">
        <ele>677</ele>
        <time>2019-03-03T13:24:20Z</time>
      </trkpt>
      <trkpt lat="43.53712" lon="2.9441">
        <ele>677</ele>
        <time>2019-03-03T13:24:21Z</time>
      </trkpt>
      <trkpt lat="43.53714" lon="2.94412">
        <ele>677</ele>
        <time>2019-03-03T13:24:22Z</time>
      </trkpt>
      <trkpt lat="43.53715" lon="2.94413">
        <ele>678</ele>
        <time>2019-03-03T13:24:23Z</time>
      </trkpt>
      <trkpt lat="43.53717" lon="2.94415">
        <ele>678</ele>
        <time>2019-03-03T13:24:24Z</time>
      </trkpt>
      <trkpt lat="43.53718" lon="2.94417">
        <ele>678</ele>
        <time>2019-03-03T13:24:25Z</time>
      </trkpt>
      <trkpt lat="43.5372" lon="2.94419">
        <ele>678</ele>
        <time>2019-03-03T13:24:26Z</time>
      </trkpt>
      <trkpt lat="43.53721" lon="2.9442">
        <ele>679</ele>
        <time>2019-03-03T13:24:27Z</time>
      </trkpt>
      <trkpt lat="43.53723" lon="2.94422">
        <ele>679</ele>
        <time>2019-03-03T13:24:28Z</time>
      </trkpt>
      <trkpt lat="43.53724" lon="2.94424">
        <ele>679</ele>
        <time>2019-03-03T13:24:29Z</time>
      </trkpt>
      <trkpt lat="43.53726" lon="2.94425">
        <ele>679</ele>
        <time>2019-03-03T13:24:30Z</time>
      </trkpt>
      <trkpt lat="43.53727" lon="2.94427">
        <ele>679</ele>
        <time>2019-03-03T13:24:31Z</time>
      </trkpt>
      <trkpt lat="43.53728" lon="2.9443">
        <ele>680</ele>
        <time>2019-03-03T13:24:32Z</time>
      </trkpt>
      <trkpt lat="43.5373" lon="2.94431">
        <ele>680</ele>
        <time>2019-03-03T13:24:33Z</time>
      </trkpt>
      <trkpt lat="43.53731" lon="2.94433">
        <ele>680</ele>
        <time>2019-03-03T13:24:34Z</time>
      </trkpt>
      <trkpt lat="43.53732" lon="2.94435">
        <ele>681</ele>
        <time>2019-03-03T13:24:35Z</time>
      </trkpt>
      <trkpt lat="43.53733" lon="2.94437">
        <ele>681</ele>
        <time>2019-03-03T13:24:36Z</time>
      </trkpt>
      <trkpt lat="43.53735" lon="2.94438">
        <ele>681</ele>
        <time>2019-03-03T13:24:37Z</time>
      </trkpt>
      <trkpt lat="43.53736" lon="2.9444">
        <ele>681</ele>
        <time>2019-03-03T13:24:38Z</time>
      </trkpt>
      <trkpt lat="43.53737" lon="2.94442">
        <ele>682</ele>
        <time>2019-03-03T13:24:39Z</time>
      </trkpt>
      <trkpt lat="43.53739" lon="2.94444">
        <ele>682</ele>
        <time>2019-03-03T13:24:40Z</time>
      </trkpt>
      <trkpt lat="43.5374" lon="2.94446">
        <ele>682</ele>
        <time>2019-03-03T13:24:41Z</time>
      </trkpt>
      <trkpt lat="43.53741" lon="2.94447">
        <ele>682</ele>
        <time>2019-03-03T13:24:42Z</time>
      </trkpt>
      <trkpt lat="43.53743" lon="2.94449">
        <ele>682</ele>
        <time>2019-03-03T13:24:43Z</time>
      </trkpt>
      <trkpt lat="43.53744" lon="2.94451">
        <ele>683</ele>
        <time>2019-03-03T13:24:44Z</time>
      </trkpt>
      <trkpt lat="43.53746" lon="2.94453">
        <ele>683</ele>
        <time>2019-03-03T13:24:45Z</time>
      </trkpt>
      <trkpt lat="43.53747" lon="2.94454">
        <ele>683</ele>
        <time>2019-03-03T13:24:46Z</time>
      </trkpt>
      <trkpt lat="43.53749" lon="2.94456">
        <ele>684</ele>
        <time>2019-03-03T13:24:47Z</time>
      </trkpt>
      <trkpt lat="43.5375" lon="2.94458">
        <ele>684</ele>
        <time>2019-03-03T13:24:48Z</time>
      </trkpt>
      <trkpt lat="43.53752" lon="2.9446">
        <ele>684</ele>
        <time>2019-03-03T13:24:49Z</time>
      </trkpt>
      <trkpt lat="43.53753" lon="2.94462">
        <ele>684</ele>
        <time>2019-03-03T13:24:50Z</time>
      </trkpt>
      <trkpt lat="43.53755" lon="2.94464">
        <ele>685</ele>
        <time>2019-03-03T13:24:51Z</time>
      </trkpt>
      <trkpt lat="43.53756" lon="2.94466">
        <ele>685</ele>
        <time>2019-03-03T13:24:52Z</time>
      </trkpt>
      <trkpt lat="43.53757" lon="2.94467">
        <ele>685</ele>
        <time>2019-03-03T13:24:53Z</time>
      </trkpt>
      <trkpt lat="43.53759" lon="2.94469">
        <ele>686</ele>
        <time>2019-03-03T13:24:54Z</time>
      </trkpt>
      <trkpt lat="43.5376" lon="2.94471">
        <ele>686</ele>
        <time>2019-03-03T13:24:55Z</time>
      </trkpt>
      <trkpt lat="43.53762" lon="2.94473">
        <ele>686</ele>
        <time>2019-03-03T13:24:56Z</time>
      </trkpt>
      <trkpt lat="43.53763" lon="2.94474">
        <ele>686</ele>
        <time>2019-03-03T13:24:57Z</time>
      </trkpt>
      <trkpt lat="43.53765" lon="2.94476">
        <ele>687</ele>
        <time>2019-03-03T13:24:58Z</time>
      </trkpt>
      <trkpt lat="43.53766" lon="2.94478">
        <ele>687</ele>
        <time>2019-03-03T13:24:59Z</time>
      </trkpt>
      <trkpt lat="43.53768" lon="2.9448">
        <ele>687</ele>
        <time>2019-03-03T13:25:00Z</time>
      </trkpt>
      <trkpt lat="43.53769" lon="2.94482">
        <ele>688</ele>
        <time>2019-03-03T13:25:01Z</time>
      </trkpt>
      <trkpt lat="43.53771" lon="2.94483">
        <ele>688</ele>
        <time>2019-03-03T13:25:02Z</time>
      </trkpt>
      <trkpt lat="43.53772" lon="2.94485">
        <ele>688</ele>
        <time>2019-03-03T13:25:03Z</time>
      </trkpt>
      <trkpt lat="43.53773" lon="2.94487">
        <ele>688</ele>
        <time>2019-03-03T13:25:04Z</time>
      </trkpt>
      <trkpt lat="43.53775" lon="2.94489">
        <ele>689</ele>
        <time>2019-03-03T13:25:05Z</time>
      </trkpt>
      <trkpt lat="43.53776" lon="2.94491">
        <ele>689</ele>
        <time>2019-03-03T13:25:06Z</time>
      </trkpt>
      <trkpt lat="43.53778" lon="2.94493">
        <ele>689</ele>
        <time>2019-03-03T13:25:07Z</time>
      </trkpt>
      <trkpt lat="43.53779" lon="2.94494">
        <ele>690</ele>
        <time>2019-03-03T13:25:08Z</time>
      </trkpt>
      <trkpt lat="43.53781" lon="2.94496">
        <ele>690</ele>
        <time>2019-03-03T13:25:09Z</time>
      </trkpt>
      <trkpt lat="43.53782" lon="2.94498">
        <ele>690</ele>
        <time>2019-03-03T13:25:10Z</time>
      </trkpt>
      <trkpt lat="43.53784" lon="2.945">
        <ele>690</ele>
        <time>2019-03-03T13:25:11Z</time>
      </trkpt>
      <trkpt lat="43.53785" lon="2.94501">
        <ele>691</ele>
        <time>2019-03-03T13:25:12Z</time>
      </trkpt>
      <trkpt lat="43.53787" lon="2.94503">
        <ele>691</ele>
        <time>2019-03-03T13:25:13Z</time>
      </trkpt>
      <trkpt lat="43.53788" lon="2.94505">
        <ele>691</ele>
        <time>2019-03-03T13:25:14Z</time>
      </trkpt>
      <trkpt lat="43.53789" lon="2.94507">
        <ele>691</ele>
        <time>2019-03-03T13:25:15Z</time>
      </trkpt>
      <trkpt lat="43.53791" lon="2.94509">
        <ele>692</ele>
        <time>2019-03-03T13:25:16Z</time>
      </trkpt>
      <trkpt lat="43.53792" lon="2.94511">
        <ele>692</ele>
        <time>2019-03-03T13:25:17Z</time>
      </trkpt>
      <trkpt lat="43.53794" lon="2.94513">
        <ele>692</ele>
        <time>2019-03-03T13:25:18Z</time>
      </trkpt>
      <trkpt lat="43.53795" lon="2.94515">
        <ele>692</ele>
        <time>2019-03-03T13:25:19Z</time>
      </trkpt>
      <trkpt lat="43.53797" lon="2.94517">
        <ele>692</ele>
        <time>2019-03-03T13:25:20Z</time>
      </trkpt>
      <trkpt lat="43.53798" lon="2.94519">
        <ele>693</ele>
        <time>2019-03-03T13:25:21Z</time>
      </trkpt>
      <trkpt lat="43.538" lon="2.94521">
        <ele>693</ele>
        <time>2019-03-03T13:25:22Z</time>
      </trkpt>
      <trkpt lat="43.53801" lon="2.94523">
        <ele>693</ele>
        <time>2019-03-03T13:25:23Z</time>
      </trkpt>
      <trkpt lat="43.53803" lon="2.94525">
        <ele>693</ele>
        <time>2019-03-03T13:25:24Z</time>
      </trkpt>
      <trkpt lat="43.53804" lon="2.94527">
        <ele>694</ele>
        <time>2019-03-03T13:25:25Z</time>
      </trkpt>
      <trkpt lat="43.53805" lon="2.94529">
        <ele>694</ele>
        <time>2019-03-03T13:25:26Z</time>
      </trkpt>
      <trkpt lat="43.53806" lon="2.94531">
        <ele>694</ele>
        <time>2019-03-03T13:25:27Z</time>
      </trkpt>
      <trkpt lat="43.53808" lon="2.94533">
        <ele>694</ele>
        <time>2019-03-03T13:25:28Z</time>
      </trkpt>
      <trkpt lat="43.53809" lon="2.94535">
        <ele>695</ele>
        <time>2019-03-03T13:25:29Z</time>
      </trkpt>
      <trkpt lat="43.53811" lon="2.94536">
        <ele>695</ele>
        <time>2019-03-03T13:25:30Z</time>
      </trkpt>
      <trkpt lat="43.53812" lon="2.94538">
        <ele>695</ele>
        <time>2019-03-03T13:25:31Z</time>
      </trkpt>
      <trkpt lat="43.53814" lon="2.9454">
        <ele>695</ele>
        <time>2019-03-03T13:25:32Z</time>
      </trkpt>
      <trkpt lat="43.53815" lon="2.94542">
        <ele>696</ele>
        <time>2019-03-03T13:25:33Z</time>
      </trkpt>
      <trkpt lat="43.53817" lon="2.94544">
        <ele>696</ele>
        <time>2019-03-03T13:25:34Z</time>
      </trkpt>
      <trkpt lat="43.53818" lon="2.94546">
        <ele>696</ele>
        <time>2019-03-03T13:25:35Z</time>
      </trkpt>
      <trkpt lat="43.53819" lon="2.94548">
        <ele>696</ele>
        <time>2019-03-03T13:25:36Z</time>
      </trkpt>
      <trkpt lat="43.53821" lon="2.9455">
        <ele>697</ele>
        <time>2019-03-03T13:25:37Z</time>
      </trkpt>
      <trkpt lat="43.53822" lon="2.94552">
        <ele>697</ele>
        <time>2019-03-03T13:25:38Z</time>
      </trkpt>
      <trkpt lat="43.53824" lon="2.94553">
        <ele>697</ele>
        <time>2019-03-03T13:25:39Z</time>
      </trkpt>
      <trkpt lat="43.53825" lon="2.94555">
        <ele>697</ele>
        <time>2019-03-03T13:25:40Z</time>
      </trkpt>
      <trkpt lat="43.53826" lon="2.94557">
        <ele>698</ele>
        <time>2019-03-03T13:25:41Z</time>
      </trkpt>
      <trkpt lat="43.53828" lon="2.94559">
        <ele>698</ele>
        <time>2019-03-03T13:25:42Z</time>
      </trkpt>
      <trkpt lat="43.53829" lon="2.9456">
        <ele>698</ele>
        <time>2019-03-03T13:25:43Z</time>
      </trkpt>
      <trkpt lat="43.53831" lon="2.94562">
        <ele>698</ele>
        <time>2019-03-03T13:25:44Z</time>
      </trkpt>
      <trkpt lat="43.53832" lon="2.94564">
        <ele>698</ele>
        <time>2019-03-03T13:25:45Z</time>
      </trkpt>
      <trkpt lat="43.53834" lon="2.94565">
        <ele>699</ele>
        <time>2019-03-03T13:25:46Z</time>
      </trkpt>
      <trkpt lat="43.53835" lon="2.94567">
        <ele>699</ele>
        <time>2019-03-03T13:25:47Z</time>
      </trkpt>
      <trkpt lat="43.53837" lon="2.94568">
        <ele>699</ele>
        <time>2019-03-03T13:25:48Z</time>
      </trkpt>
      <trkpt lat="43.53839" lon="2.94569">
        <ele>699</ele>
        <time>2019-03-03T13:25:49Z</time>
      </trkpt>
      <trkpt lat="43.5384" lon="2.94571">
        <ele>699</ele>
        <time>2019-03-03T13:25:50Z</time>
      </trkpt>
      <trkpt lat="43.53842" lon="2.94573">
        <ele>700</ele>
        <time>2019-03-03T13:25:51Z</time>
      </trkpt>
      <trkpt lat="43.53843" lon="2.94575">
        <ele>700</ele>
        <time>2019-03-03T13:25:52Z</time>
      </trkpt>
      <trkpt lat="43.53844" lon="2.94576">
        <ele>700</ele>
        <time>2019-03-03T13:25:53Z</time>
      </trkpt>
      <trkpt lat="43.53846" lon="2.94578">
        <ele>700</ele>
        <time>2019-03-03T13:25:54Z</time>
      </trkpt>
      <trkpt lat="43.53848" lon="2.94579">
        <ele>700</ele>
        <time>2019-03-03T13:25:55Z</time>
      </trkpt>
      <trkpt lat="43.53849" lon="2.9458">
        <ele>700</ele>
        <time>2019-03-03T13:25:56Z</time>
      </trkpt>
      <trkpt lat="43.5385" lon="2.94581">
        <ele>700</ele>
        <time>2019-03-03T13:25:57Z</time>
      </trkpt>
      <trkpt lat="43.53851" lon="2.94582">
        <ele>700</ele>
        <time>2019-03-03T13:25:58Z</time>
      </trkpt>
      <trkpt lat="43.53851" lon="2.94582">
        <ele>700</ele>
        <time>2019-03-03T13:25:59Z</time>
      </trkpt>
      <trkpt lat="43.53851" lon="2.94582">
        <ele>700</ele>
        <time>2019-03-03T13:26:00Z</time>
      </trkpt>
      <trkpt lat="43.53852" lon="2.94578">
        <ele>702</ele>
        <time>2019-03-03T13:31:31Z</time>
      </trkpt>
      <trkpt lat="43.53852" lon="2.94576">
        <ele>702</ele>
        <time>2019-03-03T13:31:32Z</time>
      </trkpt>
    </trkseg>
  </trk>
</gpx>